[[{"header":{"parameterUnit":"m.s-1","parameterCategory":1,"la1":31.0,"la2":29.5877,"lo1":-88.7671,"lo2":-86.6584,"dy":0.0162,"dx":0.0185,"nx":115,"ny":88,"refTime":"2024-07-31T00:00:00:Z","depth":0,"parameterNumber":2,"parameterNumberName":"U-component_of_WINDS"},"data":[0.0,0.0,0.0,0.0,0.0,0.0,0.0,0.0,0.0,0.0,0.0,0.0,0.0,0.0,0.0,0.0,0.0,0.0,0.0,0.0,0.0,0.0,0.0,0.0,0.0,0.0,0.0,0.0,0.0,0.0,0.0,0.0,0.0,0.0,0.0,0.0,0.0,0.0,0.0,0.0,0.0,0.0,0.0,0.0,0.0,0.0,0.0,0.0,0.0,0.0,0.0,0.0,0.0,0.0,0.0,0.0,0.0,0.0,0.0,0.0,0.0,0.0,0.0,0.0,0.0,0.0,0.0,0.0,0.0,0.0,0.0,0.0,0.0,0.0,0.0,0.0,0.0,0.0,0.0,0.0,0.0,0.0,0.0,0.0,0.0,0.0,0.0,0.0,0.0,0.0,0.0,0.0,0.0,0.0,0.0,0.0,0.0,0.0,0.0,0.0,0.0,0.0,0.0,0.0,0.0,0.0,0.0,0.0,0.0,0.0,0.0,0.0,0.0,0.0,0.0,0.0,0.0,0.0,0.0,0.0,0.0,0.0,0.0,0.0,0.0,0.0,0.0,0.0,0.0,0.0,0.0,0.0,0.0,0.0,0.0,0.0,0.0,0.0,0.0,0.0,0.0,0.0,0.0,0.0,0.0,0.0,0.0,0.0,0.0,0.0,0.0,0.0,0.0,0.0,0.0,0.0,0.0,0.0,0.0,0.0,0.0,0.0,0.0,0.0,0.0,0.0,0.0,0.0,0.0,0.0,0.0,0.0,0.0,0.0,0.0,0.0,0.0,0.0,0.0,0.0,0.0,0.0,0.0,0.0,0.0,0.0,0.0,0.0,0.0,0.0,0.0,0.0,0.0,0.0,0.0,0.0,0.0,0.0,0.0,0.0,0.0,0.0,0.0,0.0,0.0,0.0,0.0,0.0,0.0,0.0,0.0,0.0,0.0,0.0,0.0,0.0,0.0,0.0,0.0,0.0,0.0,0.0,0.0,0.0,0.0,0.0,0.0,0.0,0.0,0.0,0.0,0.0,0.0,0.0,0.0,0.0,0.0,0.0,0.0,0.0,0.0,0.0,0.0,0.0,0.0,0.0,0.0,0.0,0.0,0.0,0.0,0.0,0.0,0.0,0.0,0.0,0.0,0.0,0.0,0.0,0.0,0.0,0.0,0.0,0.0,0.0,0.0,0.0,0.0,0.0,0.0,0.0,0.0,0.0,0.0,0.0,0.0,0.0,0.0,0.0,0.0,0.0,0.0,0.0,0.0,0.0,0.0,0.0,0.0,0.0,0.0,0.0,0.0,0.0,0.0,0.0,0.0,0.0,0.0,0.0,0.0,0.0,0.0,0.0,0.0,0.0,0.0,0.0,0.0,0.0,0.0,0.0,0.0,0.0,0.0,0.0,0.0,0.0,0.0,0.0,0.0,0.0,0.0,0.0,0.0,0.0,0.0,0.0,0.0,0.0,0.0,0.0,0.0,0.0,0.0,0.0,0.0,0.0,0.0,0.0,0.0,0.0,0.0,0.0,0.0,0.0,0.0,0.0,0.0,0.0,0.0,0.0,0.0,0.0,0.0,0.0,0.0,0.0,0.0,0.0,0.0,0.0,0.0,0.0,0.0,0.0,0.0,0.0,0.0,0.0,0.0,0.0,0.0,0.0,0.0,0.0,0.0,0.0,0.0,0.0,0.0,0.0,0.0,0.0,0.0,0.0,0.0,0.0,0.0,0.0,0.0,0.0,0.0,0.0,0.0,0.0,0.0,0.0,0.0,0.0,0.0,0.0,0.0,0.0,0.0,0.0,0.0,0.0,0.0,0.0,0.0,0.0,0.0,0.0,0.0,0.0,0.0,0.0,0.0,0.0,0.0,0.0,0.0,0.0,0.0,0.0,0.0,0.0,0.0,0.0,0.0,0.0,0.0,0.0,0.0,0.0,0.0,0.0,0.0,0.0,0.0,0.0,0.0,0.0,0.0,0.0,0.0,0.0,0.0,0.0,0.0,0.0,0.0,0.0,0.0,0.0,0.0,0.0,0.0,0.0,0.0,0.0,0.0,0.0,0.0,0.0,0.0,0.0,0.0,0.0,0.0,0.0,0.0,0.0,0.0,0.0,0.0,0.0,0.0,0.0,0.0,0.0,0.0,0.0,0.0,0.0,0.0,0.0,0.0,0.0,0.0,0.0,0.0,0.0,0.0,0.0,0.0,0.0,0.0,0.0,0.0,0.0,0.0,0.0,0.0,0.0,0.0,0.0,0.0,0.0,0.0,0.0,0.0,0.0,0.0,0.0,0.0,0.0,0.0,0.0,0.0,0.0,0.0,0.0,0.0,0.0,0.0,0.0,0.0,0.0,0.0,0.0,0.0,0.0,0.0,0.0,0.0,0.0,0.0,0.0,0.0,0.0,0.0,0.0,0.0,0.0,0.0,0.0,0.0,0.0,0.0,0.0,0.0,0.0,0.0,0.0,0.0,0.0,0.0,0.0,0.0,0.0,0.0,0.0,0.0,0.0,0.0,0.0,0.0,0.0,0.0,0.0,0.0,0.0,0.0,0.0,0.0,0.0,0.0,0.0,0.0,0.0,0.0,0.0,0.0,0.0,0.0,0.0,0.0,0.0,0.0,0.0,0.0,0.0,0.0,0.0,0.0,0.0,0.0,0.0,0.0,0.0,0.0,0.0,0.0,0.0,0.0,0.0,0.0,0.0,0.0,0.0,0.0,0.0,0.0,0.0,0.0,0.0,0.0,0.0,0.0,0.0,0.0,0.0,0.0,0.0,0.0,0.0,0.0,0.0,0.0,0.0,0.0,0.0,0.0,0.0,0.0,0.0,0.0,0.0,0.0,0.0,0.0,0.0,0.0,0.0,0.0,0.0,0.0,0.0,0.0,0.0,0.0,0.0,0.0,0.0,0.0,0.0,0.0,0.0,0.0,0.0,0.0,0.0,0.0,0.0,0.0,0.0,0.0,0.0,0.0,0.0,0.0,0.0,0.0,0.0,0.0,0.0,0.0,0.0,0.0,0.0,0.0,0.0,0.0,0.0,0.0,0.0,0.0,0.0,0.0,0.0,0.0,0.0,0.0,0.0,0.0,0.0,0.0,0.0,0.0,0.0,0.0,0.0,0.0,0.0,0.0,0.0,0.0,0.0,0.0,0.0,0.0,0.0,0.0,0.0,0.0,0.0,0.0,0.0,0.0,0.0,0.0,0.0,0.0,0.0,0.0,0.0,0.0,0.0,0.0,0.0,0.0,0.0,0.0,0.0,0.0,0.0,0.0,0.0,0.0,0.0,0.0,0.0,0.0,0.0,0.0,0.0,0.0,0.0,0.0,0.0,0.0,0.0,0.0,0.0,0.0,0.0,0.0,0.0,0.0,0.0,0.0,0.0,0.0,0.0,0.0,0.0,0.0,0.0,0.0,0.0,0.0,0.0,0.0,0.0,0.0,0.0,0.0,0.0,0.0,0.0,0.0,0.0,0.0,0.0,0.0,0.0,0.0,0.0,0.0,0.0,0.0,0.0,0.0,0.0,0.0,0.0,0.0,0.0,0.0,0.0,0.0,0.0,0.0,0.0,0.0,0.0,0.0,0.0,0.0,0.0,0.0,0.0,0.0,0.0,0.0,0.0,0.0,0.0,0.0,0.0,0.0,0.0,0.0,0.0,0.0,0.0,0.0,0.0,0.0,0.0,0.0,0.0,0.0,0.0,0.0,0.0,0.0,0.0,0.0,0.0,0.0,0.0,0.0,0.0,0.0,0.0,0.0,0.0,0.0,0.0,0.0,0.0,0.0,0.0,0.0,0.0,0.0,0.0,0.0,0.0,0.0,0.0,0.0,0.0,0.0,0.0,0.0,0.0,0.0,0.0,0.0,0.0,0.0,0.0,0.0,0.0,0.0,0.0,0.0,0.0,0.0,0.0,0.0,0.0,0.0,0.0,0.0,0.0,0.0,0.0,0.0,0.0,0.0,0.0,0.0,0.0,0.0,0.0,0.0,0.0,0.0,0.0,0.0,0.0,0.0,0.0,0.0,0.0,0.0,0.0,0.0,0.0,0.0,0.0,0.0,0.0,0.0,0.0,0.0,0.0,0.0,0.0,0.0,0.0,0.0,0.0,0.0,0.0,0.0,0.0,0.0,0.0,0.0,0.0,0.0,0.0,0.0,0.0,0.0,0.0,0.0,0.0,0.0,0.0,0.0,0.0,0.0,0.0,0.0,0.0,0.0,0.0,0.0,0.0,0.0,0.0,0.0,0.0,0.0,0.0,0.0,0.0,0.0,0.0,-0.3698,0.0,0.0,0.0,0.0,0.0,0.0,0.0,0.0,0.0,0.0,0.0,0.0,0.0,0.0,0.0,0.0,0.0,0.0,0.0,0.0,0.0,0.0,0.0,0.0,0.0,0.0,0.0,0.0,0.0,0.0,0.0,0.0,0.0,0.0,0.0,0.0,0.0,0.0,0.0,0.0,0.0,0.0,0.0,0.0,0.0,0.0,0.0,0.0,0.0,0.0,0.0,0.0,0.0,0.0,0.0,0.0,0.0,0.0,0.0,0.0,0.0,0.0,0.0,0.0,0.0,0.0,0.0,0.0,0.0,0.0,0.0,0.0,0.0,0.0,0.0,0.0,0.0,0.0,0.0,0.0,0.0,0.0,0.0,0.0,0.0,0.0,0.0,0.0,0.0,0.0,0.0,0.0,0.0,0.0,0.0,0.0,0.0,0.0,0.0,0.0,0.0,0.0,0.0,0.0,0.0,0.0,0.0,0.0,0.0,0.0,-0.4085,-0.3988,-0.3786,-0.3657,-0.3606,0.0,0.0,0.0,0.0,0.0,0.0,0.0,0.0,0.0,0.0,0.0,0.0,0.0,0.0,0.0,0.0,0.0,0.0,0.0,0.0,0.0,0.0,0.0,0.0,0.0,0.0,0.0,0.0,0.0,0.0,0.0,0.0,0.0,0.0,0.0,0.0,0.0,0.0,0.0,0.0,0.0,0.0,0.0,0.0,0.0,0.0,0.0,0.0,0.0,0.0,0.0,0.0,0.0,0.0,0.0,0.0,0.0,0.0,0.0,0.0,0.0,0.0,0.0,0.0,0.0,0.0,0.0,0.0,0.0,0.0,0.0,0.0,0.0,0.0,0.0,0.0,0.0,0.0,0.0,0.0,0.0,0.0,0.0,0.0,0.0,0.0,0.0,0.0,0.0,0.0,0.0,0.0,0.0,0.0,0.0,0.0,0.0,0.0,0.0,0.0,0.0,0.0,0.0,0.0,0.0,0.0,0.0,0.0,0.0,0.0,0.0,0.0,-0.3842,-0.3801,-0.3679,0.0,0.0,0.0,0.0,0.0,0.0,0.0,0.0,0.0,0.0,0.0,0.0,0.0,0.0,0.0,0.0,0.0,0.0,0.0,0.0,0.0,0.0,0.0,0.0,0.0,0.0,0.0,0.0,0.0,0.0,0.0,0.0,0.0,0.0,0.0,0.0,0.0,0.0,0.0,0.0,0.0,0.0,0.0,0.0,0.0,0.0,0.0,0.0,0.0,0.0,0.0,0.0,0.0,0.0,0.0,0.0,0.0,0.0,0.0,0.0,0.0,0.0,0.0,0.0,0.0,0.0,0.0,0.0,0.0,0.0,0.0,0.0,0.0,0.0,0.0,0.0,0.0,0.0,0.0,0.0,0.0,0.0,0.0,0.0,0.0,0.0,0.0,0.0,0.0,0.0,0.0,0.0,0.0,0.0,0.0,0.0,0.0,0.0,0.0,0.0,0.0,0.0,0.0,0.0,0.0,0.0,0.0,0.0,0.0,0.0,-0.3951,-0.4409,-0.4304,0.0,-0.4246,0.0,0.0,0.0,0.0,0.0,0.0,0.0,0.0,0.0,0.0,0.0,0.0,0.0,0.0,0.0,0.0,0.0,0.0,0.0,0.0,0.0,0.0,0.0,0.0,0.0,0.0,0.0,0.0,0.0,0.0,0.0,0.0,0.0,0.0,0.0,0.0,0.0,0.0,0.0,0.0,0.0,0.0,0.0,0.0,0.0,0.0,0.0,0.0,0.0,0.0,0.0,0.0,0.0,0.0,0.0,0.0,0.0,0.0,0.0,0.0,0.0,0.0,0.0,0.0,0.0,0.0,0.0,0.0,0.0,0.0,0.0,0.0,0.0,0.0,0.0,0.0,0.0,0.0,0.0,0.0,0.0,0.0,0.0,0.0,0.0,0.0,0.0,0.0,0.0,0.0,0.0,0.0,0.0,0.0,0.0,0.0,0.0,0.0,0.0,0.0,0.0,0.0,0.0,0.0,0.0,0.0,0.0,0.0,0.0,0.0,0.0,-0.405,-0.3983,-0.3987,0.0,0.0,0.0,0.0,0.0,0.0,0.0,0.0,0.0,0.0,0.0,0.0,0.0,0.0,0.0,0.0,0.0,0.0,0.0,0.0,0.0,0.0,0.0,0.0,0.0,0.0,0.0,0.0,0.0,0.0,0.0,0.0,0.0,0.0,0.0,0.0,0.0,0.0,0.0,0.0,0.0,0.0,0.0,0.0,0.0,0.0,0.0,0.0,0.0,0.0,0.0,0.0,0.0,0.0,0.0,0.0,0.0,0.0,0.0,0.0,0.0,0.0,0.0,0.0,0.0,0.0,0.0,0.0,0.0,0.0,0.0,0.0,0.0,0.0,0.0,0.0,0.0,0.0,0.0,0.0,0.0,0.0,0.0,0.0,0.0,0.0,0.0,0.0,0.0,0.0,0.0,0.0,0.0,0.0,0.0,0.0,0.0,0.0,0.0,0.0,0.0,0.0,0.0,0.0,0.0,0.0,0.0,0.0,0.0,0.0,-0.3493,0.0,-0.3527,-0.3484,-0.3559,-0.3772,0.0,0.0,0.0,0.0,0.0,0.0,0.0,0.0,0.0,0.0,0.0,0.0,0.0,0.0,0.0,0.0,0.0,0.0,0.0,0.0,0.0,0.0,0.0,0.0,0.0,0.0,0.0,0.0,0.0,0.0,0.0,0.0,0.0,0.0,0.0,0.0,0.0,0.0,0.0,0.0,0.0,0.0,0.0,0.0,0.0,0.0,0.0,0.0,0.0,0.0,0.0,0.0,0.0,0.0,0.0,0.0,0.0,0.0,0.0,0.0,0.0,0.0,0.0,0.0,0.0,0.0,0.0,0.0,0.0,0.0,0.0,0.0,0.0,0.0,0.0,0.0,0.0,0.0,0.0,0.0,0.0,0.0,0.0,0.0,0.0,0.0,0.0,0.0,0.0,0.0,0.0,0.0,0.0,0.0,0.0,0.0,0.0,0.0,0.0,0.0,0.0,0.0,0.0,0.0,0.0,0.0,0.0,0.0,0.0,-0.2719,-0.2716,-0.3175,-0.299,-0.3028,0.0,0.0,0.0,0.0,0.0,0.0,0.0,0.0,0.0,0.0,0.0,0.0,0.0,0.0,0.0,0.0,0.0,0.0,0.0,0.0,0.0,0.0,0.0,0.0,0.0,0.0,0.0,0.0,0.0,0.0,0.0,0.0,0.0,0.0,0.0,0.0,0.0,0.0,0.0,0.0,0.0,0.0,0.0,0.0,0.0,0.0,0.0,0.0,0.0,0.0,0.0,0.0,0.0,0.0,0.0,0.0,0.0,0.0,0.0,0.0,0.0,0.0,0.0,0.0,0.0,0.0,0.0,0.0,0.0,0.0,0.0,0.0,0.0,0.0,0.0,0.0,0.0,0.0,0.0,0.0,0.0,0.0,0.0,0.0,0.0,0.0,0.0,0.0,0.0,0.0,0.0,0.0,0.0,0.0,0.0,0.0,0.0,0.0,0.0,0.0,0.0,0.0,0.0,0.0,0.0,0.0,0.0,0.0,0.0,-0.2402,-0.2506,-0.3106,-0.4089,-0.3265,-0.3063,0.0,0.0,0.0,0.0,0.0,0.0,0.0,0.0,0.0,0.0,0.0,0.0,0.0,0.0,0.0,0.0,0.0,0.0,0.0,0.0,0.0,0.0,0.0,0.0,0.0,0.0,0.0,0.0,0.0,0.0,0.0,0.0,0.0,0.0,0.0,0.0,0.0,0.0,0.0,0.0,0.0,0.0,0.0,0.0,0.0,0.0,0.0,0.0,0.0,0.0,0.0,0.0,0.0,0.0,0.0,0.0,0.0,0.0,0.0,0.0,0.0,0.0,0.0,0.0,0.0,0.0,0.0,0.0,0.0,0.0,0.0,0.0,0.0,0.0,0.0,0.0,0.0,0.0,0.0,0.0,0.0,0.0,0.0,0.0,0.0,0.0,0.0,0.0,0.0,0.0,0.0,0.0,0.0,0.0,0.0,0.0,0.0,0.0,0.0,0.0,0.0,0.0,0.0,0.0,0.0,0.0,0.0,0.0,0.0,-0.2019,0.0,-0.3013,0.0,-0.2726,-0.2392,0.0,0.0,0.0,0.0,0.0,0.0,0.0,0.0,0.0,0.0,0.0,0.0,0.0,0.0,0.0,0.0,0.0,0.0,0.0,0.0,0.0,0.0,0.0,0.0,0.0,0.0,0.0,0.0,0.0,0.0,0.0,0.0,0.0,0.0,0.0,0.0,0.0,0.0,0.0,0.0,0.0,0.0,0.0,0.0,0.0,0.0,0.0,0.0,0.0,0.0,0.0,0.0,0.0,0.0,0.0,0.0,0.0,0.0,0.0,0.0,0.0,0.0,0.0,0.0,0.0,0.0,0.0,0.0,0.0,0.0,0.0,0.0,0.0,0.0,0.0,0.0,0.0,0.0,0.0,0.0,0.0,0.0,0.0,0.0,0.0,0.0,0.0,0.0,0.0,0.0,0.0,0.0,0.0,0.0,0.0,0.0,0.0,0.0,0.0,0.0,0.0,0.0,0.0,0.0,0.0,0.0,0.0,0.0,-0.1572,-0.2067,-0.226,-0.222,-0.1915,-0.1328,-0.1036,0.0,0.0,0.0,0.0,0.0,0.0,0.0,0.0,0.0,0.0,0.0,0.0,0.0,0.0,0.0,0.0,0.0,0.0,0.0,0.0,0.0,0.0,0.0,0.0,0.0,0.0,0.0,0.0,0.0,0.0,0.0,0.0,0.0,0.0,0.0,0.0,0.0,0.0,0.0,0.0,0.0,0.0,0.0,0.0,0.0,0.0,0.0,0.0,0.0,0.0,0.0,0.0,0.0,0.0,0.0,0.0,0.0,0.0,0.0,0.0,0.0,0.0,0.0,0.0,0.0,0.0,0.0,0.0,0.0,0.0,0.0,0.0,0.0,0.0,0.0,0.0,0.0,0.0,0.0,0.0,0.0,0.0,0.0,0.0,0.0,0.0,0.0,0.0,0.0,0.0,0.0,0.0,0.0,0.0,0.0,0.0,0.0,0.0,0.0,0.0,0.0,0.0,0.0,0.0,0.0,0.0,0.0,0.0,0.0,-0.1274,-0.1392,-0.1639,-0.1961,-0.132,-0.115,0.0,0.0,0.0,0.0,0.0,0.0,0.0,0.0,0.0,0.0,0.0,0.0,0.0,0.0,0.0,0.0,0.0,0.0,0.0,0.0,0.0,0.0,0.0,0.0,0.0,0.0,0.0,0.0,0.0,0.0,0.0,0.0,0.0,0.0,0.0,0.0,0.0,0.0,0.0,0.0,0.0,0.0,0.0,0.0,0.0,0.0,0.0,0.0,0.0,0.0,0.0,0.0,0.0,0.0,0.0,0.0,0.0,0.0,0.0,0.0,0.0,0.0,0.0,0.0,0.0,0.0,0.0,0.0,0.0,0.0,0.0,0.0,0.0,0.0,0.0,0.0,0.0,0.0,0.0,0.0,0.0,0.0,0.0,0.0,0.0,0.0,0.0,0.0,0.0,0.0,0.0,0.0,0.0,0.0,0.0,0.0,0.0,0.0,0.0,0.0,0.0,0.0,0.0,0.0,0.0,0.0,0.0,0.0,0.0,-0.1024,-0.1369,-0.1711,-0.2183,-0.1359,-0.1087,-0.1508,0.0,0.0,0.0,0.0,0.0,0.0,0.0,0.0,0.0,0.0,0.0,0.0,0.0,0.0,0.0,0.0,0.0,0.0,0.0,0.0,0.0,0.0,0.0,0.0,0.0,0.0,0.0,0.0,0.0,0.0,0.0,0.0,0.0,0.0,0.0,0.0,0.0,0.0,0.0,0.0,0.0,0.0,0.0,0.0,0.0,0.0,0.0,0.0,0.0,0.0,0.0,0.0,0.0,0.0,0.0,0.0,0.0,0.0,0.0,0.0,0.0,0.0,0.0,0.0,0.0,0.0,0.0,0.0,0.0,0.0,0.0,0.0,0.0,0.0,0.0,0.0,0.0,0.0,0.0,0.0,0.0,0.0,0.0,0.0,0.0,0.0,0.0,0.0,0.0,0.0,0.0,0.0,0.0,0.0,0.0,0.0,0.0,0.0,0.0,0.0,0.0,0.0,0.0,0.0,0.0,0.0,0.0,0.0,-0.1191,-0.1944,-0.2308,-0.2229,-0.1353,-0.0937,0.0,0.0,0.0,0.0,0.0,0.0,0.0,0.0,0.0,0.0,0.0,0.0,0.0,0.0,0.0,0.0,0.0,0.0,0.0,0.0,0.0,0.0,0.0,0.0,0.0,0.0,0.0,0.0,0.0,0.0,0.0,0.0,0.0,0.0,0.0,0.0,0.0,0.0,0.0,0.0,0.0,0.0,0.0,0.0,0.0,0.0,0.0,0.0,0.0,0.0,0.0,0.0,0.0,0.0,0.0,0.0,0.0,0.0,0.0,0.0,0.0,0.0,0.0,0.0,0.0,0.0,0.0,0.0,0.0,0.0,0.0,0.0,0.0,0.0,0.0,0.0,0.0,0.0,0.0,0.0,0.0,0.0,0.0,0.0,0.0,0.0,0.0,0.0,0.0,0.0,0.0,0.0,0.0,0.0,0.0,0.0,0.0,0.0,0.0,0.0,0.0,0.0,0.0,0.0,0.0,0.0,0.0,0.0,0.0,-0.134,-0.1569,-0.1638,-0.1395,-0.11,-0.0902,0.0,0.0,0.0,0.0,0.0,0.0,0.0,0.0,0.0,0.0,0.0,0.0,0.0,0.0,0.0,0.0,0.0,0.0,0.0,0.0,0.0,0.0,0.0,0.0,0.0,0.0,0.0,0.0,0.0,0.0,0.0,0.0,0.0,0.0,0.0,0.0,0.0,0.0,0.0,0.0,0.0,0.0,0.0,0.0,0.0,0.0,0.0,0.0,0.0,0.0,0.0,0.0,0.0,0.0,0.0,0.0,0.0,0.0,0.0,0.0,0.0,0.0,0.0,0.0,0.0,0.0,0.0,0.0,0.0,0.0,0.0,0.0,0.0,0.0,0.0,0.0,0.0,0.0,0.0,0.0,0.0,0.0,0.0,0.0,0.0,0.0,0.0,0.0,0.0,0.0,0.0,0.0,0.0,0.0,0.0,0.0,0.0,0.0,0.0,0.0,0.0,0.0,0.0,0.0,0.0,0.0,0.0,0.0,-0.1226,-0.1423,-0.1439,-0.138,-0.118,-0.1087,-0.0992,0.0,0.0,0.0,0.0,0.0,0.0,0.0,0.0,0.0,0.0,0.0,0.0,0.0,0.0,0.0,0.0,0.0,0.0,0.0,0.0,0.0,0.0,0.0,0.0,0.0,0.0,0.0,0.0,0.0,0.0,0.0,0.0,0.0,0.0,0.0,0.0,0.0,0.0,0.0,0.0,0.0,0.0,0.0,0.0,0.0,0.0,0.0,0.0,0.0,0.0,0.0,0.0,0.0,0.0,0.0,0.0,0.0,0.0,0.0,0.0,0.0,0.0,0.0,0.0,0.0,0.0,0.0,0.0,0.0,0.0,0.0,0.0,0.0,0.0,0.0,0.0,0.0,0.0,0.0,0.0,0.0,0.0,0.0,0.0,0.0,0.0,0.0,0.0,0.0,0.0,0.0,0.0,0.0,0.0,0.0,0.0,0.0,0.0,0.0,0.0,0.0,0.0,0.0,0.0,0.0,0.0,0.0,0.0,-0.1151,-0.1395,-0.1341,-0.1294,-0.1345,-0.1202,-0.1153,0.0,0.0,0.0,0.0,0.0,0.0,0.0,0.0,0.0,0.0,0.0,0.0,0.0,0.0,0.0,0.0,0.0,0.0,0.0,0.0,0.0,0.0,0.0,0.0,0.0,0.0,0.0,0.0,0.0,0.0,0.0,0.0,0.0,0.0,0.0,0.0,0.0,0.0,0.0,0.0,0.0,0.0,0.0,0.0,0.0,0.0,0.0,0.0,0.0,0.0,0.0,0.0,0.0,0.0,0.0,0.0,0.0,0.0,0.0,0.0,0.0,0.0,0.0,0.0,0.0,0.0,0.0,0.0,0.0,0.0,0.0,0.0,0.0,0.0,0.0,0.0,0.0,0.0,0.0,0.0,0.0,0.0,0.0,0.0,0.0,0.0,0.0,0.0,0.0,0.0,0.0,0.0,0.0,0.0,0.0,0.0,0.0,0.0,0.0,0.0,0.0,0.0,0.0,0.0,0.0,0.0,0.0,0.0,-0.1263,-0.1312,-0.1303,-0.1335,-0.1328,-0.1223,-0.1173,0.0,0.0,0.0,0.0,0.0,0.0,0.0,0.0,0.0,0.0,0.0,0.0,0.0,0.0,0.0,0.0,0.0,0.0,0.0,0.0,0.0,0.0,0.0,0.0,0.0,0.0,0.0,0.0,0.0,0.0,0.0,0.0,0.0,0.0,0.0,0.0,0.0,0.0,0.0,0.0,0.0,0.0,0.0,0.0,0.0,0.0,0.0,0.0,-0.1237,0.0,0.0,0.0,0.0,0.0,0.0,0.0,0.0,0.0,0.0,0.0,0.0,0.0,0.0,0.0,0.0,0.0,0.0,0.0,0.0,0.0,0.0,0.0,0.0,0.0,0.0,0.0,0.0,0.0,0.0,0.0,0.0,0.0,0.0,0.0,0.0,0.0,0.0,0.0,0.0,0.0,0.0,0.0,0.0,0.0,0.0,0.0,0.0,0.0,0.0,0.0,0.0,0.0,0.0,0.0,0.0,0.0,0.0,0.0,-0.1243,-0.1276,-0.1337,-0.1361,-0.1261,-0.1258,-0.1147,0.0,0.0,0.0,0.0,0.0,0.0,0.0,0.0,0.0,0.0,0.0,0.0,0.0,0.0,0.0,0.0,0.0,0.0,0.0,0.0,0.0,0.0,0.0,0.0,0.0,0.0,0.0,0.0,0.0,0.0,0.0,0.0,0.0,0.0,0.0,0.0,0.0,0.0,0.0,0.0,0.0,0.0,0.0,0.0,0.0,0.0,0.0,0.0,0.0,0.0,0.0,0.0,0.0,0.0,0.0,0.0,0.0,0.0,0.0,0.0,0.0,0.0,0.0,0.0,0.0,0.0,0.0,0.0,0.0,0.0,0.0,0.0,0.0,0.0,0.0,0.0,0.0,0.0,0.0,0.0,0.0,0.0,0.0,0.0,0.0,0.0,0.0,0.0,0.0,0.0,0.0,0.0,0.0,0.0,0.0,0.0,0.0,0.0,0.0,0.0,0.0,0.0,0.0,0.0,0.0,0.0,0.0,-0.1147,-0.1209,-0.1307,-0.1367,-0.1381,-0.1348,-0.1289,-0.1189,-0.1045,0.0,0.0,0.0,0.0,0.0,0.0,0.0,0.0,0.0,0.0,0.0,0.0,0.0,0.0,0.0,0.0,0.0,0.0,0.0,0.0,0.0,0.0,0.0,0.0,0.0,0.0,0.0,0.0,0.0,0.0,0.0,0.0,0.0,0.0,0.0,0.0,0.0,0.0,-0.1337,-0.1446,0.0,0.0,0.0,0.0,0.0,0.0,0.0,0.0,-0.1367,0.0,0.0,0.0,0.0,0.0,0.0,0.0,0.0,0.0,0.0,0.0,0.0,0.0,0.0,0.0,0.0,0.0,0.0,0.0,0.0,0.0,0.0,0.0,0.0,0.0,0.0,0.0,0.0,0.0,0.0,0.0,0.0,0.0,0.0,0.0,0.0,0.0,0.0,0.0,0.0,0.0,0.0,0.0,0.0,0.0,0.0,0.0,0.0,0.0,0.0,0.0,0.0,0.0,0.0,0.0,0.0,-0.1043,-0.1238,-0.1272,-0.1337,-0.1397,-0.1402,-0.135,-0.1289,-0.1272,-0.1072,0.0,0.0,0.0,0.0,0.0,0.0,0.0,0.0,0.0,0.0,0.0,0.0,0.0,0.0,0.0,0.0,0.0,0.0,0.0,0.0,0.0,0.0,0.0,0.0,0.0,0.0,0.0,0.0,0.0,0.0,0.0,0.0,0.0,0.0,0.0,0.0,0.0,0.0,0.0,-0.1594,-0.168,0.0,0.0,0.0,0.0,0.0,0.0,0.0,0.0,-0.1346,0.0,0.0,0.0,0.0,0.0,0.0,0.0,0.0,0.0,0.0,0.0,0.0,0.0,0.0,0.0,0.0,0.0,0.0,0.0,0.0,0.0,0.0,0.0,0.0,0.0,0.0,0.0,0.0,0.0,0.0,0.0,0.0,0.0,0.0,0.0,0.0,0.0,0.0,0.0,0.0,0.0,0.0,0.0,0.0,0.0,0.0,0.0,0.0,0.0,0.0,0.0,0.0,0.0,0.0,0.0,-0.1023,-0.1191,-0.1303,-0.1343,-0.1376,-0.1376,-0.1347,-0.1243,-0.1144,0.0,0.0,0.0,0.0,0.0,0.0,0.0,0.0,0.0,0.0,0.0,0.0,0.0,0.0,0.0,0.0,0.0,0.0,0.0,0.0,0.0,0.0,0.0,0.0,0.0,0.0,0.0,0.0,0.0,0.0,0.0,0.0,0.0,0.0,0.0,0.0,0.0,0.0,0.0,0.0,-0.1677,-0.1753,-0.1753,0.0,0.0,0.0,0.0,0.0,0.0,-0.1532,-0.1504,0.0,0.0,0.0,0.0,0.0,0.0,0.0,0.0,0.0,0.0,0.0,0.0,0.0,0.0,0.0,0.0,0.0,0.0,0.0,0.0,0.0,0.0,0.0,0.0,0.0,0.0,0.0,0.0,0.0,0.0,0.0,0.0,0.0,0.0,0.0,0.0,0.0,0.0,0.0,0.0,0.0,0.0,0.0,0.0,0.0,0.0,0.0,0.0,0.0,0.0,0.0,0.0,0.0,0.0,0.0,-0.0987,-0.1123,-0.1241,-0.1334,-0.1345,-0.1345,-0.1337,-0.1209,-0.1106,0.0,0.0,0.0,0.0,0.0,0.0,0.0,0.0,0.0,0.0,0.0,0.0,0.0,0.0,0.0,0.0,0.0,0.0,0.0,0.0,0.0,0.0,0.0,0.0,0.0,0.0,0.0,0.0,0.0,0.0,0.0,0.0,0.0,0.0,0.0,0.0,0.0,0.0,0.0,0.0,0.0,-0.1813,-0.1813,-0.1804,0.0,0.0,0.0,0.0,-0.1749,-0.1708,0.0,0.0,0.0,0.0,0.0,0.0,0.0,0.0,0.0,0.0,0.0,0.0,0.0,0.0,0.0,0.0,0.0,0.0,0.0,0.0,0.0,0.0,0.0,0.0,0.0,0.0,0.0,0.0,0.0,0.0,0.0,0.0,0.0,0.0,0.0,0.0,0.0,0.0,0.0,0.0,0.0,0.0,0.0,0.0,0.0,0.0,0.0,0.0,0.0,0.0,0.0,0.0,0.0,0.0,0.0,0.0,-0.0984,-0.1082,-0.1188,-0.1302,-0.1334,-0.1335,-0.1308,-0.1239,-0.1148,0.0,0.0,0.0,0.0,0.0,0.0,0.0,0.0,0.0,0.0,0.0,0.0,0.0,0.0,0.0,0.0,0.0,0.0,0.0,0.0,0.0,0.0,0.0,0.0,0.0,0.0,0.0,0.0,0.0,0.0,0.0,0.0,0.0,0.0,0.0,0.0,0.0,0.0,0.0,0.0,0.0,-0.1871,-0.1872,-0.1828,-0.1831,0.0,0.0,-0.1815,-0.1925,-0.1891,0.0,0.0,0.0,0.0,0.0,0.0,0.0,0.0,0.0,0.0,0.0,0.0,0.0,0.0,0.0,0.0,0.0,0.0,0.0,0.0,0.0,0.0,0.0,0.0,0.0,0.0,0.0,0.0,0.0,0.0,0.0,0.0,0.0,0.0,0.0,0.0,0.0,0.0,0.0,0.0,0.0,0.0,0.0,0.0,0.0,0.0,0.0,0.0,0.0,0.0,0.0,0.0,0.0,0.0,0.0,-0.0841,-0.0986,-0.1093,-0.1197,-0.1298,-0.1299,-0.1298,-0.1302,-0.1194,-0.1095,0.0,0.0,0.0,0.0,0.0,0.0,0.0,0.0,0.0,0.0,0.0,0.0,0.0,0.0,0.0,0.0,0.0,0.0,0.0,0.0,0.0,0.0,0.0,0.0,0.0,0.0,0.0,0.0,0.0,0.0,0.0,0.0,0.0,0.0,0.0,0.0,0.0,0.0,0.0,0.0,0.0,0.0,-0.1933,-0.1941,0.0,0.0,0.0,-0.2013,-0.1969,0.0,0.0,0.0,0.0,0.0,0.0,0.0,0.0,0.0,0.0,0.0,0.0,0.0,0.0,0.0,0.0,0.0,0.0,0.0,0.0,0.0,0.0,0.0,0.0,0.0,0.0,0.0,0.0,0.0,0.0,0.0,0.0,0.0,0.0,0.0,0.0,0.0,0.0,0.0,0.0,0.0,0.0,0.0,0.0,0.0,0.0,0.0,0.0,0.0,0.0,0.0,0.0,0.0,0.0,0.0,0.0,0.0,-0.0999,-0.1117,-0.1218,-0.1299,-0.128,-0.1279,-0.1299,-0.117,0.0,0.0,0.0,0.0,0.0,0.0,0.0,0.0,0.0,0.0,0.0,0.0,0.0,0.0,0.0,0.0,0.0,0.0,0.0,0.0,0.0,0.0,0.0,0.0,0.0,0.0,0.0,-0.0915,0.0,0.0,0.0,0.0,0.0,0.0,0.0,0.0,0.0,0.0,0.0,0.0,0.0,0.0,-0.2062,-0.2078,-0.207,-0.2098,0.0,0.0,-0.2091,-0.2048,-0.2041,-0.1989,0.0,0.0,0.0,0.0,0.0,0.0,0.0,0.0,0.0,0.0,0.0,0.0,0.0,0.0,0.0,0.0,0.0,0.0,0.0,0.0,0.0,0.0,0.0,0.0,0.0,0.0,0.0,0.0,0.0,0.0,0.0,0.0,0.0,0.0,0.0,0.0,0.0,0.0,0.0,0.0,0.0,0.0,0.0,0.0,0.0,0.0,0.0,0.0,0.0,0.0,0.0,0.0,0.0,0.0,0.0,-0.0964,-0.1149,-0.1239,-0.13,-0.1301,-0.1301,-0.1301,-0.121,-0.1106,0.0,0.0,0.0,0.0,0.0,0.0,0.0,0.0,0.0,0.0,0.0,0.0,0.0,0.0,0.0,0.0,0.0,0.0,0.0,0.0,0.0,0.0,0.0,0.0,0.0,0.0,0.0,0.0,0.0,0.0,0.0,0.0,0.0,0.0,0.0,0.0,0.0,0.0,0.0,0.0,0.0,-0.2143,-0.22,-0.2194,-0.2181,0.0,0.0,-0.2161,-0.2157,-0.2155,-0.2147,-0.1913,0.0,0.0,0.0,0.0,0.0,0.0,0.0,0.0,0.0,0.0,0.0,0.0,0.0,0.0,0.0,0.0,0.0,0.0,0.0,0.0,0.0,0.0,0.0,0.0,0.0,0.0,0.0,0.0,0.0,0.0,0.0,0.0,0.0,0.0,0.0,0.0,0.0,0.0,0.0,0.0,0.0,0.0,0.0,0.0,0.0,0.0,0.0,0.0,0.0,0.0,0.0,0.0,0.0,-0.09,-0.1033,-0.117,-0.126,-0.13,-0.1303,-0.1303,-0.1303,-0.1215,-0.1119,0.0,0.0,0.0,0.0,0.0,0.0,0.0,0.0,0.0,0.0,0.0,0.0,0.0,0.0,0.0,0.0,0.0,0.0,0.0,0.0,0.0,0.0,0.0,0.0,0.0,0.0,0.0,0.0,-0.1165,-0.1274,-0.1357,0.0,0.0,0.0,0.0,0.0,0.0,0.0,0.0,0.0,0.0,-0.2221,-0.2252,-0.2286,0.0,0.0,-0.2346,-0.2339,-0.2305,-0.2237,-0.2144,-0.2014,-0.1902,0.0,0.0,0.0,0.0,0.0,0.0,0.0,0.0,0.0,0.0,0.0,0.0,0.0,0.0,0.0,0.0,0.0,0.0,0.0,0.0,0.0,0.0,0.0,0.0,0.0,0.0,0.0,0.0,0.0,0.0,0.0,0.0,0.0,0.0,0.0,0.0,0.0,0.0,0.0,0.0,0.0,0.0,0.0,0.0,0.0,0.0,0.0,0.0,0.0,0.0,0.0,0.0,-0.092,-0.1059,-0.1199,-0.1289,-0.1328,-0.132,-0.1316,-0.1313,-0.1228,-0.1138,0.0,0.0,0.0,0.0,0.0,0.0,0.0,0.0,0.0,0.0,0.0,0.0,0.0,0.0,0.0,0.0,0.0,0.0,0.0,0.0,0.0,0.0,0.0,0.0,0.0,0.0,0.0,0.0,-0.1276,-0.1336,-0.1361,0.0,0.0,0.0,0.0,0.0,0.0,0.0,0.0,0.0,0.0,-0.2245,-0.2346,-0.2376,-0.2314,-0.2312,-0.2421,-0.242,-0.2346,-0.2293,-0.2291,-0.2173,0.0,0.0,0.0,0.0,0.0,0.0,0.0,0.0,0.0,0.0,0.0,0.0,0.0,0.0,0.0,0.0,0.0,0.0,0.0,0.0,0.0,0.0,0.0,0.0,0.0,0.0,0.0,0.0877,0.0,0.0,0.0621,0.0,0.0,0.0,0.0,0.0,0.0,0.0,0.0,0.0,0.0,0.0,0.0,0.0,0.0,0.0,0.0,0.0,0.0,0.0,0.0,0.0,0.0,-0.0941,-0.1117,-0.1239,-0.133,-0.1384,-0.1361,-0.1347,-0.1344,-0.1259,-0.1168,-0.1076,0.0,0.0,0.0,0.0,0.0,0.0,0.0,0.0,0.0,0.0,0.0,0.0,0.0,0.0,0.0,0.0,0.0,0.0,0.0,0.0,0.0,0.0,0.0,0.0,0.0,0.0,-0.1008,-0.1223,-0.1365,0.0,0.0,0.0,0.0,0.0,0.0,0.0,0.0,0.0,0.0,-0.2255,-0.2353,-0.2411,-0.2469,-0.2504,-0.2507,-0.251,-0.247,-0.2361,-0.2428,-0.2424,0.0,0.0,0.0,0.0,0.0,0.0,0.0,0.0,0.0,0.0,0.0,0.0,0.0,0.0,0.0,0.0,0.0,0.0,0.0,0.0,0.0,0.0,0.0,0.0,0.0,0.0,0.0,0.0448,0.0319,0.0,0.0,0.0,0.0,0.0,0.0,0.0,0.0,0.0,0.0,0.0,-0.0,-0.0379,0.0,0.0,0.0,0.0,0.0,0.0,0.0,0.0,0.0,0.0,0.0,0.0,-0.0981,-0.1119,-0.126,-0.1351,-0.1388,-0.1381,-0.1367,-0.1348,-0.1279,-0.1181,-0.1052,0.0,0.0,0.0,0.0,0.0,0.0,0.0,0.0,0.0,0.0,0.0,0.0,0.0,0.0,0.0,0.0,0.0,0.0,0.0,0.0,0.0,0.0,0.0,0.0,0.0,-0.0964,0.0,0.0,0.0,0.0,0.0,0.0,0.0,0.0,0.0,0.0,0.0,-0.2161,-0.2262,-0.2376,-0.2473,-0.2533,-0.2557,-0.2585,0.0,0.0,0.0,0.0,0.0,0.0,0.0,0.0,0.0,0.0,0.0,0.0,0.0,0.0,-0.2342,-0.2004,-0.1909,-0.1995,-0.2206,0.0,0.0,0.0,0.0,0.0,0.0,0.0,0.0,0.0,0.0,0.0,0.0,0.0,0.0,0.0268,0.0,0.0124,0.0,0.0,0.0,0.0,0.0,0.0,0.0,0.0,-0.1,-0.089,-0.0163,-0.0597,-0.0762,0.0,-0.063,-0.0789,0.0,0.0,0.0,0.0,0.0,0.0,0.0,0.0,-0.0974,-0.1168,-0.1296,-0.1376,-0.1403,-0.1396,-0.1376,-0.1348,-0.1279,-0.1191,-0.1083,-0.1002,-0.0931,0.0,0.0,0.0,0.0,0.0,0.0,0.0,0.0,0.0,0.0,0.0,0.0,0.0,0.0,0.0,0.0,0.0,0.0,0.0,0.0,0.0,0.0,0.0,-0.1074,0.0,0.0,0.0,0.0,0.0,0.0,0.0,0.0,0.0,-0.2015,-0.2199,-0.2367,-0.245,-0.2525,-0.2595,-0.2657,0.0,0.0,0.0,0.0,0.0,0.0,0.0,-0.2501,-0.2537,-0.2448,-0.2377,-0.2392,-0.2495,-0.256,-0.2518,0.0,0.0,-0.2279,-0.2325,-0.2495,-0.2767,-0.2988,-0.3207,-0.3617,-0.3767,-0.3841,0.0,0.0,0.0,0.0,0.0,0.0,0.0,0.0,0.1155,0.0609,0.0,0.0361,0.0,0.0,0.0,0.0,0.0,-0.0222,0.0,0.0,-0.1178,-0.1509,-0.1483,-0.1483,-0.1468,-0.1442,-0.1464,-0.1402,-0.1254,-0.1029,0.0,0.0,0.0,0.0,0.0,0.0,-0.111,-0.1254,-0.1344,-0.1404,-0.1433,-0.1406,-0.1378,-0.1347,-0.1262,-0.1201,-0.1168,-0.1108,-0.1024,-0.0909,-0.0842,0.0,0.0,0.0,0.0,0.0,0.0,0.0,0.0,0.0,0.0,0.0,0.0,0.0,0.0,0.0,0.0,0.0,0.0,0.0,0.0,-0.1093,0.0,0.0,0.0,0.0,0.0,0.0,0.0,0.0,0.0,0.0,-0.2207,-0.2414,-0.2561,-0.2677,0.0,0.0,0.0,0.0,-0.2702,-0.2707,-0.2706,-0.2687,-0.2631,-0.2711,-0.2745,-0.2636,0.0,0.0,-0.2556,-0.2623,-0.2665,-0.2546,-0.2627,-0.2696,-0.2689,-0.298,-0.3207,-0.3281,-0.3607,-0.402,-0.4322,-0.4459,-0.4613,0.4297,0.0,0.0,0.0,0.0,0.3617,0.3172,0.2858,0.2438,0.1758,0.0939,0.0844,0.0,0.0,0.0,0.0,0.0,0.0,-0.1079,-0.1136,-0.1372,-0.1512,-0.1545,-0.1568,-0.1562,-0.1532,-0.1519,-0.148,-0.1414,-0.1303,-0.1142,-0.0941,0.0,0.0,0.0,0.0,-0.1181,-0.1286,-0.1356,-0.1405,-0.1435,-0.1427,-0.1399,-0.1349,-0.1301,-0.1252,-0.12,-0.1161,-0.1105,-0.1027,-0.0927,0.0,0.0,0.0,0.0,0.0,0.0,0.0,0.0,0.0,0.0,0.0,0.0,0.0,0.0,0.0,0.0,0.0,0.0,0.0,-0.0952,-0.1004,-0.115,0.0,0.0,0.0,0.0,0.0,0.0,0.0,0.0,0.0,-0.2684,-0.2699,-0.2718,0.0,0.0,-0.2873,-0.2852,-0.2867,-0.2898,-0.294,-0.2947,0.0,-0.2924,-0.288,-0.2865,-0.2913,-0.2951,-0.294,-0.2846,-0.286,-0.2858,-0.2782,-0.3059,-0.3346,-0.334,-0.3315,-0.3467,-0.3701,-0.4175,-0.4568,-0.4976,-0.5165,-0.5183,0.4804,0.4367,0.4242,0.4304,0.4481,0.3968,0.3531,0.3234,0.2758,0.1833,0.076,0.0654,0.0089,-0.0741,-0.082,0.0,0.0,0.0,-0.1427,-0.1491,-0.1521,-0.1554,-0.159,-0.1608,-0.1607,-0.1589,-0.1571,-0.1547,-0.1517,-0.148,-0.1356,-0.1154,0.0,0.0,-0.1133,-0.1202,-0.1277,-0.1352,-0.139,-0.1417,-0.1434,-0.1423,-0.1395,-0.135,-0.1318,-0.1279,-0.1231,-0.1201,-0.1161,-0.1113,-0.102,-0.0939,0.0,0.0,0.0,0.0,0.0,0.0,0.0,0.0,0.0,0.0,0.0,-0.0683,0.0,0.0,0.0,0.0,-0.0914,-0.111,-0.1253,-0.1413,0.0,0.0,0.0,0.0,0.0,0.0,0.0,-0.2602,-0.2745,-0.2861,-0.2933,-0.2932,-0.2924,-0.2924,-0.2966,-0.2991,-0.298,0.0,-0.3007,-0.3044,-0.3146,-0.3146,-0.3144,-0.2991,-0.306,-0.3132,-0.3146,-0.3133,-0.3096,-0.3088,-0.3075,-0.3319,-0.349,-0.3767,-0.3952,-0.4111,-0.4175,-0.4398,-0.4737,-0.517,-0.5513,-0.5513,-0.5513,0.5226,0.5135,0.4959,0.4922,0.4878,0.3945,0.3562,0.3502,0.2363,0.1227,0.0207,0.01,-0.058,-0.1491,-0.1434,0.0,-0.1452,-0.1508,-0.1547,-0.1576,-0.1604,-0.1617,-0.1617,-0.1617,-0.1617,-0.1616,-0.1617,-0.1603,-0.1576,-0.1574,-0.1518,-0.1409,-0.1354,-0.1336,-0.1351,-0.1271,-0.13,-0.1442,-0.1442,-0.1441,-0.1438,-0.1409,-0.1379,-0.1349,-0.1318,-0.1287,-0.1255,-0.1224,-0.1194,-0.1164,-0.1107,-0.1024,-0.0914,0.0,0.0,0.0,0.0,0.0,0.0,0.0,0.0,0.0,0.0,0.0,0.0,0.0,0.0,0.0,-0.1274,0.0,-0.1688,-0.1998,0.0,0.0,0.0,-0.2164,-0.2307,-0.2529,-0.2712,-0.2809,0.0,0.0,-0.3158,-0.3112,-0.3146,-0.3147,-0.3098,-0.308,-0.3134,-0.3094,-0.3158,-0.3167,-0.3065,-0.3065,-0.3076,-0.3067,-0.3065,-0.3074,-0.316,-0.3164,-0.3153,-0.315,-0.334,-0.3894,-0.3994,-0.4184,-0.4664,-0.5046,-0.5242,-0.5141,-0.5379,-0.5727,-0.5716,-0.5711,-0.5708,0.5537,0.5506,0.5394,0.5245,0.5077,0.4759,0.4665,0.4572,0.348,0.2316,0.1267,0.0314,-0.0619,-0.1618,-0.158,-0.1567,-0.1575,-0.1589,-0.1599,-0.1607,-0.1613,-0.1617,-0.1617,-0.1617,-0.1617,-0.1617,-0.1617,-0.1613,-0.1607,-0.1606,-0.1592,-0.1564,-0.1549,-0.1488,-0.1386,-0.1426,-0.1467,-0.1504,-0.1504,-0.1493,-0.147,-0.144,-0.14,-0.135,-0.1318,-0.1277,-0.1224,-0.1194,-0.1163,-0.1133,-0.1096,-0.1053,-0.1003,-0.0893,0.0,0.0,0.0,0.0,0.0,0.0,0.0,0.0,0.0,-0.0932,-0.0836,0.0,-0.0917,0.0,-0.1252,-0.1546,-0.1725,-0.2038,0.0,0.0,-0.2565,-0.2621,-0.2898,-0.2918,-0.2952,-0.3044,-0.3093,-0.3136,-0.3181,-0.32,-0.3209,-0.3209,-0.3196,-0.3177,-0.3146,-0.317,-0.3188,-0.3185,-0.3183,-0.3187,-0.3183,-0.3187,-0.3183,-0.3188,-0.3187,-0.3269,-0.3611,-0.3699,-0.3874,-0.4397,-0.4856,-0.5045,-0.5242,-0.5588,-0.585,-0.5805,-0.5769,-0.5733,-0.5733,-0.5735,-0.5733,0.5528,0.5641,0.5588,0.5482,0.5341,0.4711,0.4461,0.4351,0.3132,0.1937,0.0861,-0.032,-0.1166,-0.168,-0.1663,-0.1648,-0.1637,-0.1637,-0.163,-0.1618,-0.1617,-0.1617,-0.1617,-0.1617,-0.1617,-0.1617,-0.1617,-0.1617,-0.1617,-0.1617,-0.1617,-0.1617,-0.1617,-0.1575,-0.1495,-0.1511,-0.153,-0.1545,-0.1533,-0.1511,-0.1481,-0.1464,-0.1421,-0.135,-0.1332,-0.1294,-0.1234,-0.1202,-0.1172,-0.1142,-0.1099,-0.1069,-0.1052,-0.0964,-0.097,0.0,0.0,0.0,0.0,0.0,0.0,0.0,0.0,0.0,0.0,0.0,-0.102,-0.1064,-0.152,-0.1855,-0.1931,-0.2318,-0.2665,-0.2888,-0.292,-0.2974,-0.3079,-0.3083,-0.3105,-0.3172,-0.318,-0.3192,-0.3226,-0.323,-0.323,-0.323,-0.323,-0.3218,-0.3189,-0.3211,-0.323,-0.323,-0.323,-0.323,-0.323,-0.323,-0.323,-0.3531,-0.3531,-0.3718,-0.4175,-0.4265,-0.4449,-0.4992,-0.5271,-0.5562,-0.5756,-0.6005,-0.6168,-0.6143,-0.6021,-0.5885,-0.582,-0.5768,-0.5733,0.5678,0.5678,0.5665,0.5542,0.5295,0.3994,0.3487,0.3477,0.2095,0.0876,-0.0329,-0.1292,-0.171,-0.171,-0.1706,-0.169,-0.1668,-0.1667,-0.1651,-0.1624,-0.1622,-0.1621,-0.1617,-0.1617,-0.1617,-0.1617,-0.1617,-0.1617,-0.1617,-0.1617,-0.1617,-0.1617,-0.1617,-0.1617,-0.1615,-0.1591,-0.1577,-0.1577,-0.1547,-0.1519,-0.1493,-0.1485,-0.144,-0.1358,-0.1346,-0.1311,-0.1249,-0.1224,-0.1198,-0.1167,-0.1189,-0.1093,-0.1092,-0.1037,-0.1003,0.0,-0.0975,0.0,0.0,0.0,0.0,0.0,0.0,0.0,0.0,-0.1255,-0.1291,-0.1346,-0.1907,-0.229,-0.2295,-0.2733,-0.3121,-0.308,-0.3166,-0.321,-0.3161,-0.3199,-0.323,-0.323,-0.323,-0.323,-0.323,-0.323,-0.323,-0.323,-0.323,-0.3229,-0.333,-0.3229,-0.323,-0.323,-0.323,-0.3331,-0.3331,-0.3432,-0.3632,-0.3934,-0.4033,-0.4234,-0.483,-0.4931,-0.5031,-0.5529,-0.5722,-0.5824,-0.6337,-0.6352,-0.6293,-0.6287,-0.6187,-0.6064,-0.5956,-0.5863,-0.5776,0.5865,0.5857,0.5784,0.5156,0.4069,0.2819,0.2775,0.3536,0.1348,-0.0335,-0.1449,-0.1645,-0.1741,-0.1739,-0.1715,-0.1701,-0.1696,-0.1696,-0.1681,-0.1654,-0.1654,-0.1641,-0.1618,-0.1617,-0.1617,-0.1617,-0.1617,-0.1617,-0.1617,-0.1617,-0.1617,-0.1617,-0.1617,-0.1617,-0.1617,0.0,0.0,0.0,-0.1578,-0.156,-0.1553,-0.1506,-0.145,-0.1384,-0.1336,0.0,-0.119,-0.1201,-0.1198,-0.1169,-0.1179,0.0,0.0,0.0,0.0,0.0,0.0,0.0,0.0,0.0,0.0,0.0,-0.1216,-0.1348,-0.1606,-0.1917,-0.2011,-0.1996,-0.2364,-0.2641,-0.2683,-0.2916,-0.3155,-0.3194,-0.3218,-0.3226,-0.3214,-0.3224,-0.323,-0.323,-0.323,-0.323,-0.323,-0.323,-0.323,-0.323,-0.323,-0.3432,-0.3833,-0.343,-0.323,-0.323,-0.3633,-0.3831,-0.3831,-0.4234,-0.4332,-0.4131,-0.4332,-0.4834,-0.5336,-0.5434,-0.5634,-0.6137,-0.6234,-0.6237,-0.6337,-0.6418,-0.6399,-0.6404,-0.6312,-0.6198,-0.6078,-0.6037,-0.5991,0.5919,0.5912,0.5867,0.5483,0.0,0.2754,0.2248,0.2697,0.0229,-0.1243,-0.1794,-0.1778,-0.1772,-0.1772,-0.1756,-0.1741,-0.1727,-0.1727,-0.1711,-0.1682,-0.1669,-0.1654,-0.1639,-0.1624,-0.1617,-0.1617,-0.1617,-0.1617,-0.1617,-0.1617,-0.1617,-0.1617,-0.1617,-0.1617,-0.1617,-0.1617,-0.1617,-0.1617,-0.1602,-0.1587,-0.1571,-0.1541,-0.1489,-0.1415,-0.1384,0.0,0.0,0.0,0.0,0.0,0.0,0.0,0.0,0.0,0.0,-0.1209,-0.121,-0.1217,-0.123,-0.1245,-0.1293,-0.1383,-0.1666,-0.1827,-0.1771,-0.2092,-0.2373,-0.2257,-0.2604,-0.2757,-0.2782,-0.2985,-0.3196,-0.3228,-0.323,-0.323,-0.323,-0.323,-0.323,-0.323,-0.323,-0.323,-0.323,-0.323,-0.323,-0.323,-0.323,-0.3432,-0.3833,-0.3732,-0.3632,-0.3932,-0.4133,-0.4334,-0.4433,-0.4634,-0.4834,-0.4834,-0.5035,-0.5434,-0.5934,-0.6034,-0.6137,-0.6337,-0.6437,-0.6437,-0.6437,-0.6437,-0.6437,-0.6434,-0.6391,-0.6336,-0.6263,-0.617,-0.607,0.5933,0.5919,0.5669,0.5421,0.5046,0.2672,0.1568,0.1201,0.0,0.0,0.0,-0.1797,-0.1795,-0.1795,-0.1795,-0.1781,-0.1758,-0.1757,-0.1742,-0.1711,-0.1688,-0.1675,-0.1668,-0.1639,-0.1625,-0.1624,-0.1619,-0.1617,-0.1617,-0.1617,-0.1617,-0.1617,-0.1617,-0.1617,-0.1617,-0.1617,-0.1617,-0.1617,-0.1617,-0.1605,-0.158,-0.1574,-0.1533,-0.1453,-0.144,-0.1408,-0.135,-0.1328,-0.1305,-0.1275,-0.1254,-0.1255,-0.1279,-0.1281,-0.1303,-0.1351,-0.1365,-0.1382,-0.1492,-0.1411,-0.1438,-0.1493,-0.203,-0.2315,-0.2015,-0.2297,-0.2563,-0.2563,-0.2701,-0.2826,-0.2826,-0.3029,-0.323,-0.323,-0.323,-0.323,-0.323,-0.323,-0.323,-0.323,-0.323,-0.323,-0.323,-0.323,-0.323,-0.323,-0.3331,-0.3632,-0.4133,-0.4232,-0.4334,-0.4832,-0.4935,-0.4935,-0.4935,-0.5133,-0.5236,-0.5434,-0.5636,-0.5937,-0.6237,-0.6437,-0.6437,-0.6437,-0.6437,-0.6437,-0.6437,-0.6437,-0.6437,-0.6437,-0.6437,-0.6437,-0.642,-0.6287,-0.6157,0.5988,0.5794,0.4679,0.3569,0.2461,0.0983,-0.0366,-0.1324,-0.1633,-0.1838,-0.1832,-0.1806,-0.1795,-0.1795,-0.1795,-0.1793,-0.1789,-0.1789,-0.1772,-0.1744,-0.1739,-0.1723,-0.1697,-0.1669,-0.1656,-0.1654,-0.1629,-0.1617,-0.1617,-0.1617,-0.1617,-0.1617,-0.1617,-0.1617,-0.1617,-0.1617,-0.1617,-0.1617,-0.1617,-0.1615,-0.161,-0.1585,-0.1553,-0.1514,-0.1463,-0.132,-0.1351,-0.1368,-0.1365,-0.1337,-0.1354,-0.1367,-0.1371,-0.1371,-0.1375,-0.1386,-0.1433,-0.1556,-0.1836,-0.1586,-0.1522,-0.1556,-0.2085,-0.2486,-0.2626,-0.2974,-0.3118,-0.3116,-0.3124,-0.313,-0.313,-0.313,-0.323,-0.323,-0.323,-0.323,-0.323,-0.323,-0.323,-0.323,-0.323,-0.323,-0.323,-0.323,-0.323,-0.323,-0.3732,-0.4232,-0.4935,-0.4935,-0.4935,-0.5336,-0.5534,-0.5534,-0.5534,-0.5837,-0.5937,-0.5636,-0.6034,-0.6237,-0.6337,-0.6437,-0.6437,-0.6437,-0.6437,-0.6437,-0.6437,-0.6437,-0.6437,-0.6437,-0.6437,-0.6437,-0.6437,-0.6391,-0.6344,0.5524,0.4857,0.4198,0.3199,0.1846,0.0616,-0.0737,-0.1952,-0.1909,-0.188,-0.1863,-0.1833,-0.1819,-0.1818,-0.1802,-0.1795,-0.1795,-0.1795,-0.1787,-0.1773,-0.1757,-0.1742,-0.1727,-0.1699,-0.1677,-0.1662,-0.1648,-0.1633,-0.1618,-0.1617,-0.1617,-0.1617,-0.1617,-0.1617,-0.1617,-0.1617,-0.1617,-0.1617,-0.1617,-0.1617,-0.1617,-0.1603,-0.1581,-0.1551,-0.1522,-0.1489,-0.1446,-0.1457,-0.1457,-0.1445,-0.1457,-0.1464,-0.1464,-0.1464,-0.1556,-0.1648,-0.1676,-0.189,-0.2196,-0.2043,-0.2073,-0.2193,-0.2511,-0.2715,-0.299,-0.3114,-0.323,-0.323,-0.323,-0.323,-0.323,-0.323,-0.323,-0.323,-0.323,-0.323,-0.323,-0.323,-0.323,-0.323,-0.323,-0.323,-0.323,-0.323,-0.3331,-0.3632,-0.4334,-0.5035,-0.5534,-0.5634,-0.5737,-0.5934,-0.6034,-0.6037,-0.6037,-0.6237,-0.6237,-0.6034,-0.6237,-0.6437,-0.6437,-0.6437,-0.6437,-0.6437,-0.6437,-0.6437,-0.6437,-0.6437,-0.6437,-0.6437,-0.6437,-0.6437,-0.6437,-0.6437,-0.6418,0.508,0.4042,0.3361,0.2222,0.0985,-0.0,-0.0987,-0.1974,-0.1952,-0.1928,-0.1902,-0.186,-0.184,-0.1837,-0.1809,-0.1795,-0.1795,-0.1795,-0.1795,-0.1792,-0.1771,-0.176,-0.1756,-0.1729,-0.1699,-0.1673,-0.1666,-0.1647,-0.162,-0.1617,-0.1617,-0.1617,-0.1617,-0.1617,-0.1617,-0.1617,-0.1617,-0.1617,-0.1617,-0.1617,-0.1617,-0.1617,-0.1606,-0.1583,-0.1575,-0.156,-0.1538,-0.153,-0.1526,-0.1526,-0.1526,-0.1526,-0.1526,-0.1532,-0.1632,-0.1921,-0.1929,-0.2042,-0.2366,-0.2501,-0.2522,-0.2725,-0.2725,-0.2927,-0.3029,-0.313,-0.323,-0.323,-0.323,-0.323,-0.323,-0.323,-0.323,-0.323,-0.323,-0.323,-0.323,-0.323,-0.323,-0.323,-0.323,-0.323,-0.3331,-0.3331,-0.3632,-0.4334,-0.5135,-0.5636,-0.5834,-0.6134,-0.6337,-0.6437,-0.6437,-0.6337,-0.6437,-0.6437,-0.6437,-0.6437,-0.6437,-0.6437,-0.6437,-0.6437,-0.6437,-0.6437,-0.6437,-0.6437,-0.6437,-0.6437,-0.6437,-0.6437,-0.6437,-0.6437,-0.6437,-0.6437,-0.6437,0.4159,0.3593,0.1391,-0.0375,-0.1482,-0.1729,-0.1853,-0.1977,-0.1973,-0.1971,-0.1957,-0.1878,-0.1842,-0.1836,-0.1809,-0.1796,-0.1795,-0.1795,-0.1795,-0.1795,-0.1792,-0.1791,-0.1787,-0.1759,-0.173,-0.17,-0.1675,-0.165,-0.1621,-0.1618,-0.1617,-0.1617,-0.1617,-0.1617,-0.1617,-0.1617,-0.1617,-0.1617,-0.1617,-0.1617,-0.1617,-0.1617,-0.1615,-0.1613,-0.1585,-0.157,-0.1567,-0.1541,-0.1527,-0.1526,-0.1528,-0.1527,-0.153,-0.1552,-0.1763,-0.196,-0.1991,-0.2113,-0.2414,-0.2622,-0.2725,-0.2522,-0.2725,-0.2826,-0.2826,-0.3029,-0.323,-0.323,-0.323,-0.323,-0.323,-0.323,-0.323,-0.323,-0.323,-0.323,-0.323,-0.323,-0.323,-0.323,-0.323,-0.333,-0.3731,-0.3932,-0.4332,-0.5135,-0.5534,-0.5837,-0.6134,-0.6337,-0.6437,-0.6437,-0.6437,-0.6437,-0.6437,-0.6437,-0.6437,-0.6437,-0.6437,-0.6437,-0.6437,-0.6437,-0.6437,-0.6437,-0.6437,-0.6437,-0.6437,-0.6437,-0.6437,-0.6437,-0.6437,-0.6437,-0.6437,-0.6437,-0.6437,0.3145,0.1561,0.0509,-0.0751,-0.1978,-0.1977,-0.1977,-0.1977,-0.1977,-0.1977,-0.197,-0.1918,-0.1884,-0.1866,-0.1835,-0.1812,-0.1795,-0.1795,-0.1795,-0.1795,-0.1795,-0.1795,-0.1793,-0.1782,-0.1761,-0.173,-0.1701,-0.1672,-0.1645,-0.1626,-0.1617,-0.1617,-0.1617,-0.1617,-0.1617,-0.1617,-0.1617,-0.1617,-0.1617,-0.1617,-0.1617,-0.1617,-0.1617,-0.1615,-0.1605,-0.1598,-0.1597,-0.1585,-0.1679,-0.1777,-0.1777,-0.1777,-0.1777,-0.1988,-0.2096,-0.2196,-0.2513,-0.2726,-0.2826,-0.2928,-0.3029,-0.2826,-0.2928,-0.3029,-0.3029,-0.313,-0.323,-0.323,-0.323,-0.323,-0.323,-0.323,-0.323,-0.323,-0.323,-0.323,-0.323,-0.323,-0.323,-0.323,-0.323,-0.3432,-0.3932,-0.4533,-0.5035,-0.5636,-0.5834,-0.6137,-0.6337,-0.6437,-0.6437,-0.6437,-0.6437,-0.6437,-0.6437,-0.6437,-0.6437,-0.6437,-0.6437,-0.6437,-0.6437,-0.6437,-0.6437,-0.6437,-0.6437,-0.6437,-0.6437,-0.6437,-0.6437,-0.6437,-0.6437,-0.6437,-0.6437,-0.6437,-0.6437,0.1852,0.0132,-0.0385,-0.1133,-0.1988,-0.1979,-0.1977,-0.1977,-0.1977,-0.1977,-0.1975,-0.1953,-0.1926,-0.1895,-0.1858,-0.1827,-0.1808,-0.1799,-0.1795,-0.1795,-0.1795,-0.1795,-0.1795,-0.1795,-0.1779,-0.175,-0.1727,-0.1697,-0.1662,-0.1632,-0.1617,-0.1617,-0.1617,-0.1617,-0.1617,-0.1617,-0.1617,-0.1617,-0.1617,-0.1617,-0.1617,-0.1617,-0.1617,-0.1617,-0.1617,-0.1617,-0.1617,-0.1617,-0.1718,-0.2021,-0.2022,-0.2022,-0.2122,-0.2322,-0.2422,-0.2522,-0.2927,-0.323,-0.323,-0.323,-0.323,-0.323,-0.323,-0.323,-0.323,-0.323,-0.323,-0.323,-0.323,-0.323,-0.323,-0.323,-0.323,-0.323,-0.323,-0.323,-0.323,-0.323,-0.323,-0.323,-0.3331,-0.3732,-0.4435,-0.5236,-0.5837,-0.5934,-0.6137,-0.6437,-0.6437,-0.6437,-0.6437,-0.6437,-0.6437,-0.6437,-0.6437,-0.6437,-0.6437,-0.6437,-0.6437,-0.6437,-0.6437,-0.6437,-0.6437,-0.6437,-0.6437,-0.6437,-0.6437,-0.6437,-0.6437,-0.6437,-0.6437,-0.6437,-0.6437,-0.6437,-0.6437,0.0134,-0.0267,-0.1434,-0.1915,-0.2014,-0.1988,-0.1977,-0.1977,-0.1977,-0.1977,-0.1977,-0.1974,-0.1958,-0.1926,-0.1871,-0.184,-0.1834,-0.1808,-0.1795,-0.1795,-0.1795,-0.1795,-0.1795,-0.1795,-0.178,-0.1755,-0.1746,-0.1716,-0.1663,-0.1633,-0.1617,-0.1617,-0.1617,-0.1617,-0.1617,-0.1617,-0.1617,-0.1617,-0.1617,-0.1617,-0.1617,-0.1617,-0.1617,-0.1617,-0.1617,-0.1617,-0.1617,-0.1617,-0.1718,-0.2021,-0.2021,-0.2121,-0.2321,-0.2422,-0.2522,-0.2826,-0.3029,-0.323,-0.323,-0.323,-0.323,-0.323,-0.323,-0.323,-0.323,-0.323,-0.323,-0.323,-0.323,-0.323,-0.323,-0.323,-0.323,-0.323,-0.323,-0.323,-0.323,-0.323,-0.323,-0.3331,-0.3732,-0.4334,-0.5336,-0.6037,-0.6237,-0.6337,-0.6337,-0.6437,-0.6437,-0.6437,-0.6437,-0.6437,-0.6437,-0.6437,-0.6437,-0.6437,-0.6437,-0.6437,-0.6437,-0.6437,-0.6437,-0.6437,-0.6437,-0.6437,-0.6437,-0.6437,-0.6437,-0.6437,-0.6437,-0.6437,-0.6437,-0.6437,-0.6437,-0.6437,-0.6437,-0.0535,-0.1325,-0.195,-0.2047,-0.2016,-0.1988,-0.1977,-0.1977,-0.1977,-0.1977,-0.1977,-0.1977,-0.197,-0.1958,-0.1917,-0.1877,-0.184,-0.1808,-0.1795,-0.1795,-0.1795,-0.1795,-0.1795,-0.1795,-0.179,-0.1778,-0.1759,-0.172,-0.1667,-0.165,-0.1636,-0.1619,-0.1617,-0.1617,-0.1617,-0.1617,-0.1617,-0.1617,-0.1617,-0.1617,-0.1617,-0.1718,-0.1819,-0.1617,-0.1617,-0.1617,-0.1617,-0.1718,-0.2021,-0.2221,-0.2423,-0.2523,-0.2624,-0.2624,-0.2826,-0.3029,-0.313,-0.323,-0.323,-0.323,-0.323,-0.323,-0.323,-0.323,-0.323,-0.323,-0.323,-0.323,-0.323,-0.323,-0.323,-0.323,-0.323,-0.323,-0.323,-0.323,-0.323,-0.323,-0.3331,-0.3732,-0.4435,-0.5236,-0.5536,-0.6037,-0.6337,-0.6437,-0.6437,-0.6437,-0.6437,-0.6437,-0.6437,-0.6437,-0.6437,-0.6437,-0.6437,-0.6437,-0.6437,-0.6437,-0.6437,-0.6437,-0.6437,-0.6437,-0.6437,-0.6437,-0.6437,-0.6437,-0.6437,-0.6437,-0.6437,-0.6437,-0.6437,-0.6437,-0.6437,-0.6437,-0.6437,-0.1204,-0.2119,-0.208,-0.2052,-0.2029,-0.1992,-0.1977,-0.1977,-0.1977,-0.1977,-0.1977,-0.1977,-0.1977,-0.1971,-0.1945,-0.1904,-0.1855,-0.1823,-0.1804,-0.1795,-0.1795,-0.1795,-0.1795,-0.1795,-0.1795,-0.179,-0.1764,-0.1727,-0.1692,-0.1671,-0.1652,-0.1633,-0.1622,-0.1617,-0.1617,-0.1617,-0.1617,-0.1617,-0.1617,-0.1617,-0.1617,-0.1819,-0.192,-0.1617,-0.1718,-0.1718,-0.1718,-0.192,-0.2223,-0.2522,-0.2725,-0.2826,-0.2927,-0.2927,-0.3029,-0.323,-0.323,-0.323,-0.323,-0.323,-0.323,-0.323,-0.323,-0.323,-0.323,-0.323,-0.323,-0.323,-0.323,-0.323,-0.323,-0.323,-0.323,-0.323,-0.323,-0.323,-0.323,-0.3331,-0.3833,-0.4433,-0.5133,-0.5634,-0.5834,-0.6134,-0.6337,-0.6437,-0.6437,-0.6437,-0.6437,-0.6437,-0.6437,-0.6437,-0.6437,-0.6437,-0.6437,-0.6437,-0.6437,-0.6437,-0.6437,-0.6437,-0.6437,-0.6437,-0.6437,-0.6437,-0.6437,-0.6437,-0.6437,-0.6437,-0.6437,-0.6437,-0.6437,-0.6437,-0.6437,-0.6437,-0.6437,-0.2154,-0.2144,-0.209,-0.2063,-0.2052,-0.2,-0.1977,-0.1977,-0.1977,-0.1977,-0.1977,-0.1977,-0.1977,-0.1971,-0.1949,-0.1915,-0.1885,-0.1855,-0.1823,-0.1797,-0.1795,-0.1795,-0.1795,-0.1795,-0.1795,-0.1794,-0.1765,-0.175,-0.174,-0.1695,-0.1668,-0.1656,-0.1633,-0.162,-0.1617,-0.1617,-0.1617,-0.1617,-0.1617,-0.1617,-0.1617,-0.192,-0.192,-0.1718,-0.192,-0.2021,-0.2021,-0.2021,-0.2222,-0.2725,-0.2826,-0.2927,-0.313,-0.313,-0.323,-0.323,-0.323,-0.323,-0.323,-0.323,-0.323,-0.323,-0.323,-0.323,-0.323,-0.323,-0.323,-0.323,-0.323,-0.323,-0.323,-0.323,-0.323,-0.323,-0.323,-0.323,-0.3331,-0.3732,-0.4437,-0.5244,-0.5653,-0.5842,-0.6242,-0.6356,-0.6461,-0.6442,-0.6437,-0.6437,-0.6437,-0.6437,-0.6437,-0.6437,-0.6437,-0.6437,-0.6437,-0.6437,-0.6437,-0.6437,-0.6437,-0.6437,-0.6437,-0.6437,-0.6437,-0.6437,-0.6437,-0.6437,-0.6437,-0.6437,-0.6437,-0.6437,-0.6437,-0.6437,-0.6437,-0.6437,-0.6437,-0.2155,-0.2147,-0.2089,-0.2065,-0.2056,-0.2002,-0.1977,-0.1977,-0.1977,-0.1977,-0.1977,-0.1977,-0.1977,-0.1975,-0.1966,-0.1945,-0.1915,-0.1885,-0.1844,-0.1802,-0.1795,-0.1795,-0.1795,-0.1795,-0.1795,-0.1793,-0.1786,-0.177,-0.175,-0.173,-0.1704,-0.1667,-0.1654,-0.1637,-0.1619,-0.1617,-0.1617,-0.1617,-0.1617,-0.1718,-0.192,-0.2121,-0.2221,-0.2221,-0.2423,-0.2523,-0.2524,-0.2424,-0.2423,-0.2826,-0.2928,-0.313,-0.313,-0.323,-0.323,-0.323,-0.323,-0.323,-0.323,-0.323,-0.323,-0.323,-0.323,-0.323,-0.323,-0.323,-0.323,-0.323,-0.323,-0.323,-0.323,-0.323,-0.323,-0.323,-0.323,-0.3331,-0.3831,-0.4537,-0.5168,-0.5632,-0.6052,-0.6358,-0.6457,-0.6559,-0.6524,-0.6456,-0.6442,-0.6437,-0.6437,-0.6437,-0.6437,-0.6437,-0.6437,-0.6437,-0.6437,-0.6437,-0.6437,-0.6437,-0.6437,-0.6437,-0.6437,-0.6437,-0.6437,-0.6437,-0.6437,-0.6437,-0.6437,-0.6437,-0.6437,-0.6437,-0.6437,-0.6437,-0.6437,-0.6437,-0.6437,-0.2155,-0.2148,-0.2089,-0.2065,-0.2057,-0.2001,-0.1977,-0.1977,-0.1977,-0.1977,-0.1977,-0.1977,-0.1977,-0.1977,-0.1977,-0.1959,-0.193,-0.19,-0.1859,-0.1814,-0.1798,-0.1795,-0.1795,-0.1795,-0.1795,-0.1795,-0.1795,-0.1785,-0.1767,-0.1754,-0.1839,-0.1699,-0.1674,-0.1654,-0.1633,-0.1622,-0.1617,-0.1718,-0.1718,-0.192,-0.2121,-0.2423,-0.2522,-0.2422,-0.2624,-0.2826,-0.2826,-0.2624,-0.2725,-0.2927,-0.313,-0.323,-0.323,-0.323,-0.323,-0.323,-0.323,-0.323,-0.323,-0.323,-0.323,-0.323,-0.323,-0.323,-0.323,-0.323,-0.323,-0.323,-0.323,-0.323,-0.323,-0.323,-0.323,-0.323,-0.323,-0.3531,-0.4236,-0.5067,-0.5715,-0.6092,-0.6448,-0.6575,-0.6684,-0.6632,-0.6597,-0.6516,-0.6464,-0.6437,-0.6437,-0.6437,-0.6437,-0.6437,-0.6437,-0.6437,-0.6437,-0.6437,-0.6437,-0.6437,-0.6437,-0.6437,-0.6437,-0.6437,-0.6437,-0.6437,-0.6437,-0.6437,-0.6437,-0.6437,-0.6437,-0.6437,-0.6437,-0.6437,-0.6437,-0.6437,-0.6437,-0.2155,-0.2147,-0.2089,-0.2065,-0.2056,-0.2001,-0.1977,-0.1977,-0.1977,-0.1977,-0.1977,-0.1977,-0.1977,-0.1977,-0.1977,-0.1962,-0.1932,-0.1899,-0.1872,-0.184,-0.1812,-0.1795,-0.1795,-0.1795,-0.1795,-0.1795,-0.1795,-0.1794,-0.1789,-0.1768,-0.1751,-0.1738,-0.1697,-0.1665,-0.1656,-0.1633,-0.1722,-0.1921,-0.2022,-0.2122,-0.2422,-0.2624,-0.2725,-0.2522,-0.2725,-0.2826,-0.2826,-0.2826,-0.2927,-0.313,-0.323,-0.323,-0.323,-0.323,-0.323,-0.323,-0.323,-0.323,-0.323,-0.323,-0.323,-0.323,-0.323,-0.323,-0.323,-0.323,-0.323,-0.323,-0.323,-0.323,-0.323,-0.323,-0.323,-0.3229,-0.343,-0.3831,-0.4642,-0.5417,-0.6095,-0.6445,-0.673,-0.6806,-0.679,-0.67,-0.6641,-0.6567,-0.6491,-0.645,-0.6437,-0.6437,-0.6437,-0.6437,-0.6437,-0.6437,-0.6437,-0.6437,-0.6437,-0.6437,-0.6437,-0.6437,-0.6437,-0.6437,-0.6437,-0.6437,-0.6437,-0.6437,-0.6437,-0.6437,-0.6437,-0.6437,-0.6437,-0.6437,-0.6437,-0.6437,-0.6437,-0.2155,-0.2148,-0.2089,-0.2065,-0.2056,-0.2001,-0.1977,-0.1977,-0.1977,-0.1977,-0.1977,-0.1977,-0.1977,-0.1977,-0.1977,-0.1971,-0.1952,-0.1909,-0.1883,-0.1866,-0.1818,-0.1797,-0.1795,-0.1795,-0.1795,-0.1795,-0.1795,-0.1795,-0.1794,-0.1785,-0.177,-0.175,-0.1733,-0.1703,-0.1668,-0.1654,-0.1843,-0.2025,-0.2022,-0.2223,-0.2624,-0.2725,-0.2826,-0.3029,-0.3029,-0.313,-0.313,-0.313,-0.313,-0.323,-0.323,-0.323,-0.323,-0.323,-0.323,-0.323,-0.323,-0.323,-0.323,-0.323,-0.323,-0.323,-0.323,-0.323,-0.323,-0.323,-0.323,-0.323,-0.323,-0.323,-0.323,-0.323,-0.3432,-0.3732,-0.4033,-0.4435,-0.4949,-0.5729,-0.6548,-0.6747,-0.6853,-0.6866,-0.6817,-0.6757,-0.6673,-0.6543,-0.6469,-0.6437,-0.6437,-0.6437,-0.6437,-0.6437,-0.6437,-0.6437,-0.6437,-0.6437,-0.6437,-0.6437,-0.6437,-0.6437,-0.6437,-0.6437,-0.6437,-0.6437,-0.6437,-0.6437,-0.6437,-0.6437,-0.6437,-0.6437,-0.6437,-0.6437,-0.6437,-0.6437,-0.6437,-0.2155,-0.2149,-0.2089,-0.2065,-0.2056,-0.2001,-0.1977,-0.1977,-0.1977,-0.1977,-0.1977,-0.1977,-0.1977,-0.1977,-0.1977,-0.1977,-0.1968,-0.1913,-0.1887,-0.1875,-0.1823,-0.1797,-0.1795,-0.1795,-0.1795,-0.1795,-0.1795,-0.1795,-0.1795,-0.1795,-0.1784,-0.177,-0.1756,-0.1731,-0.1703,-0.1879,-0.1964,-0.2147,-0.2334,-0.2524,-0.2928,-0.2928,-0.3029,-0.323,-0.323,-0.323,-0.323,-0.323,-0.323,-0.323,-0.323,-0.323,-0.323,-0.323,-0.323,-0.323,-0.323,-0.323,-0.323,-0.323,-0.323,-0.323,-0.323,-0.323,-0.323,-0.323,-0.323,-0.323,-0.323,-0.323,-0.3232,-0.3432,-0.3632,-0.4033,-0.4634,-0.5133,-0.5135,-0.6037,-0.6538,-0.673,-0.682,-0.6888,-0.6806,-0.676,-0.6662,-0.6551,-0.6475,-0.645,-0.6437,-0.6437,-0.6437,-0.6437,-0.6437,-0.6437,-0.6437,-0.6437,-0.6437,-0.6437,-0.6437,-0.6437,-0.6437,-0.6437,-0.6437,-0.6437,-0.6437,-0.6437,-0.6437,-0.6437,-0.6437,-0.6437,-0.6437,-0.6437,-0.6437,-0.6437,-0.6437,-0.2153,-0.2145,-0.2088,-0.2063,-0.205,-0.2001,-0.1977,-0.1977,-0.1977,-0.1977,-0.1977,-0.1977,-0.1977,-0.1977,-0.1977,-0.1977,-0.1973,-0.1913,-0.1883,-0.1857,-0.182,-0.1795,-0.1795,-0.1795,-0.1795,-0.1795,-0.1795,-0.1795,-0.1795,-0.1795,-0.1795,-0.1786,-0.1767,-0.1863,-0.1842,-0.2015,-0.2296,-0.2481,-0.2657,-0.2838,-0.3133,-0.313,-0.313,-0.323,-0.323,-0.323,-0.323,-0.323,-0.323,-0.323,-0.323,-0.323,-0.323,-0.323,-0.323,-0.323,-0.323,-0.323,-0.323,-0.323,-0.323,-0.323,-0.323,-0.323,-0.323,-0.323,-0.323,-0.323,-0.323,-0.323,-0.323,-0.363,-0.4033,-0.4234,-0.5035,-0.5536,-0.5756,-0.6238,-0.6619,-0.6627,-0.673,-0.679,-0.6757,-0.6695,-0.6608,-0.6526,-0.6469,-0.6448,-0.6437,-0.6437,-0.6437,-0.6437,-0.6437,-0.6437,-0.6437,-0.6437,-0.6437,-0.6437,-0.6437,-0.6437,-0.6437,-0.6437,-0.6437,-0.6437,-0.6437,-0.6437,-0.6437,-0.6437,-0.6437,-0.6437,-0.6437,-0.6437,-0.6437,-0.6437,-0.6437,-0.214,-0.2115,-0.208,-0.205,-0.2024,-0.1992,-0.1977,-0.1977,-0.1977,-0.1977,-0.1977,-0.1977,-0.1977,-0.1977,-0.1977,-0.1977,-0.1969,-0.1913,-0.1863,-0.1814,-0.1805,-0.1795,-0.1795,-0.1795,-0.1795,-0.1795,-0.1795,-0.1795,-0.1795,-0.1795,-0.1795,-0.1793,-0.1787,-0.1884,-0.2078,-0.2168,-0.2449,-0.2711,-0.2891,-0.2965,-0.3135,-0.323,-0.323,-0.323,-0.323,-0.323,-0.323,-0.323,-0.323,-0.323,-0.323,-0.323,-0.323,-0.323,-0.323,-0.323,-0.323,-0.323,-0.323,-0.323,-0.323,-0.323,-0.323,-0.323,-0.323,-0.323,-0.323,-0.323,-0.323,-0.323,-0.323,-0.3732,-0.4133,-0.4634,-0.5233,-0.5737,-0.6152,-0.6441,-0.66,-0.6635,-0.6706,-0.6763,-0.6673,-0.6643,-0.657,-0.6499,-0.6464,-0.6442,-0.6437,-0.6437,-0.6437,-0.6437,-0.6437,-0.6437,-0.6437,-0.6437,-0.6437,-0.6437,-0.6437,-0.6437,-0.6437,-0.6437,-0.6437,-0.6437,-0.6437,-0.6437,-0.6437,-0.6437,-0.6437,-0.6437,-0.6437,-0.6437,-0.6437,-0.6437,-0.6437,-0.2124,-0.2105,-0.2062,-0.2033,-0.2015,-0.1989,-0.1977,-0.1977,-0.1977,-0.1977,-0.1977,-0.1977,-0.1977,-0.1977,-0.1977,-0.1977,-0.1963,-0.1913,-0.1853,-0.1808,-0.1795,-0.1795,-0.1795,-0.1795,-0.1795,-0.1795,-0.1795,-0.1795,-0.1795,-0.1795,-0.1795,-0.1795,-0.1907,-0.2011,-0.2212,-0.2417,-0.2696,-0.2955,-0.3021,-0.3188,-0.324,-0.323,-0.323,-0.323,-0.323,-0.323,-0.323,-0.323,-0.323,-0.323,-0.323,-0.323,-0.323,-0.323,-0.323,-0.323,-0.323,-0.323,-0.323,-0.323,-0.323,-0.323,-0.323,-0.323,-0.323,-0.323,-0.323,-0.323,-0.323,-0.323,-0.323,-0.3932,-0.4533,-0.4834,-0.5536,-0.6034,-0.6348,-0.6497,-0.6535,-0.6543,-0.6578,-0.6581,-0.6554,-0.6554,-0.6532,-0.6461,-0.6456,-0.6437,-0.6437,-0.6437,-0.6437,-0.6437,-0.6437,-0.6437,-0.6437,-0.6437,-0.6437,-0.6437,-0.6437,-0.6437,-0.6437,-0.6437,-0.6437,-0.6437,-0.6437,-0.6437,-0.6437,-0.6437,-0.6437,-0.6437,-0.6437,-0.6437,-0.6437,-0.6437,-0.6437,-0.2107,-0.2098,-0.2041,-0.2016,-0.2009,-0.1986,-0.1977,-0.1977,-0.1977,-0.1977,-0.1977,-0.1977,-0.1977,-0.1977,-0.1977,-0.1974,-0.1948,-0.1913,-0.1853,-0.1801,-0.1795,-0.1795,-0.1795,-0.1795,-0.1795,-0.1795,-0.1795,-0.1795,-0.1795,-0.1795,-0.1795,-0.1795,-0.2019,-0.2241,-0.2346,-0.2767,-0.3052,-0.3106,-0.3265,-0.3211,-0.3256,-0.3241,-0.323,-0.323,-0.323,-0.323,-0.323,-0.323,-0.323,-0.323,-0.323,-0.323,-0.323,-0.323,-0.323,-0.323,-0.323,-0.323,-0.323,-0.323,-0.323,-0.323,-0.323,-0.323,-0.323,-0.323,-0.323,-0.323,-0.323,-0.323,-0.323,-0.4133,-0.4634,-0.5033,-0.5734,-0.6337,-0.6437,-0.6437,-0.645,-0.6453,-0.6486,-0.6491,-0.6475,-0.6469,-0.645,-0.6437,-0.6437,-0.6437,-0.6437,-0.6437,-0.6437,-0.6437,-0.6437,-0.6437,-0.6437,-0.6437,-0.6437,-0.6437,-0.6437,-0.6437,-0.6437,-0.6437,-0.6437,-0.6437,-0.6437,-0.6437,-0.6437,-0.6437,-0.6437,-0.6437,-0.6437,-0.6437,-0.6437,-0.6437,-0.6437,-0.2094,-0.2068,-0.2033,-0.2005,-0.1985,-0.1979,-0.1977,-0.1977,-0.1977,-0.1977,-0.1977,-0.1977,-0.1977,-0.1977,-0.1977,-0.1951,-0.1915,-0.1887,-0.1853,-0.1803,-0.1795,-0.1795,-0.1795,-0.1795,-0.1795,-0.1795,-0.1795,-0.1795,-0.1795,-0.1795,-0.1795,-0.1795,-0.2131,-0.2356,-0.2579,-0.2903,-0.3203,-0.3363,-0.3416,-0.3358,-0.3303,-0.3255,-0.323,-0.323,-0.323,-0.323,-0.323,-0.323,-0.323,-0.323,-0.323,-0.323,-0.323,-0.323,-0.323,-0.323,-0.323,-0.323,-0.323,-0.323,-0.323,-0.323,-0.323,-0.323,-0.323,-0.323,-0.323,-0.323,-0.323,-0.323,-0.323,-0.4234,-0.4734,-0.5033,-0.5734,-0.6437,-0.6437,-0.6437,-0.6437,-0.6437,-0.6437,-0.6437,-0.6437,-0.6437,-0.6437,-0.6437,-0.6437,-0.6437,-0.6437,-0.6437,-0.6437,-0.6437,-0.6437,-0.6437,-0.6437,-0.6437,-0.6437,-0.6437,-0.6437,-0.6437,-0.6437,-0.6437,-0.6437,-0.6437,-0.6437,-0.6437,-0.6437,-0.6437,-0.6437,-0.6437,-0.6437,-0.6437,-0.6437,-0.6437,-0.6437,-0.2068,-0.2038,-0.2009,-0.1989,-0.1978,-0.1977,-0.1977,-0.1977,-0.1977,-0.1977,-0.1977,-0.1977,-0.1977,-0.1977,-0.1977,-0.1943,-0.1899,-0.1885,-0.1851,-0.1806,-0.1795,-0.1795,-0.1795,-0.1795,-0.1795,-0.1795,-0.1795,-0.1795,-0.1795,-0.1795,-0.1795,-0.1907,-0.2244,-0.2581,-0.2805,-0.3138,-0.3331,-0.3499,-0.3441,-0.3382,-0.332,-0.326,-0.3234,-0.323,-0.323,-0.323,-0.323,-0.323,-0.323,-0.323,-0.323,-0.323,-0.323,-0.323,-0.323,-0.323,-0.323,-0.323,-0.323,-0.323,-0.323,-0.323,-0.323,-0.323,-0.323,-0.323,-0.323,-0.323,-0.323,-0.3331,-0.3632,-0.4334,-0.4834,-0.5236,-0.5937,-0.6337,-0.6437,-0.6437,-0.6437,-0.6437,-0.6437,-0.6437,-0.6437,-0.6437,-0.6437,-0.6437,-0.6437,-0.6437,-0.6437,-0.6437,-0.6437,-0.6437,-0.6437,-0.6437,-0.6437,-0.6437,-0.6437,-0.6437,-0.6437,-0.6437,-0.6437,-0.6437,-0.6437,-0.6437,-0.6437,-0.6437,-0.6437,-0.6437,-0.6437,-0.6437,-0.6437,-0.6437,-0.6437,-0.6437,-0.6437,-0.1791,-0.2016,-0.1988,-0.1977,-0.1977,-0.1977,-0.1977,-0.1977,-0.1977,-0.1977,-0.1977,-0.1977,-0.1977,-0.1975,-0.1964,-0.1937,-0.1887,-0.1881,-0.1842,-0.1805,-0.1795,-0.1795,-0.1795,-0.1795,-0.1795,-0.1795,-0.1795,-0.1795,-0.1795,-0.1795,-0.1795,-0.1907,-0.2356,-0.2693,-0.2806,-0.3253,-0.344,-0.3512,-0.3443,-0.338,-0.3308,-0.3259,-0.323,-0.323,-0.323,-0.323,-0.323,-0.323,-0.323,-0.323,-0.323,-0.323,-0.323,-0.323,-0.323,-0.323,-0.323,-0.323,-0.323,-0.323,-0.323,-0.323,-0.323,-0.323,-0.323,-0.323,-0.323,-0.323,-0.323,-0.3432,-0.3831,-0.4435,-0.5035,-0.5534,-0.6037,-0.6437,-0.6437,-0.6437,-0.6437,-0.6437,-0.6437,-0.6437,-0.6437,-0.6437,-0.6437,-0.6437,-0.6437,-0.6437,-0.6437,-0.6437,-0.6437,-0.6437,-0.6437,-0.6437,-0.6437,-0.6437,-0.6437,-0.6437,-0.6437,-0.6437,-0.6437,-0.6437,-0.6437,-0.6437,-0.6437,-0.6437,-0.6437,-0.6437,-0.6437,-0.6437,-0.6437,-0.6437,-0.6437,-0.6437,-0.6437,-0.0895,-0.2016,-0.1988,-0.1977,-0.1977,-0.1977,-0.1977,-0.1977,-0.1977,-0.1977,-0.1977,-0.1977,-0.1977,-0.1971,-0.1948,-0.1919,-0.1887,-0.1859,-0.1832,-0.1799,-0.1795,-0.1795,-0.1795,-0.1795,-0.1795,-0.1795,-0.1795,-0.1795,-0.1795,-0.1795,-0.1795,-0.1907,-0.2356,-0.2693,-0.2806,-0.3253,-0.3585,-0.3557,-0.3467,-0.336,-0.3268,-0.324,-0.3232,-0.323,-0.323,-0.323,-0.323,-0.323,-0.323,-0.323,-0.323,-0.323,-0.323,-0.323,-0.323,-0.323,-0.323,-0.323,-0.323,-0.323,-0.323,-0.323,-0.323,-0.323,-0.323,-0.323,-0.323,-0.323,-0.323,-0.3531,-0.4033,-0.4533,-0.5035,-0.5536,-0.6137,-0.6337,-0.6437,-0.6437,-0.6437,-0.6437,-0.6437,-0.6437,-0.6437,-0.6437,-0.6437,-0.6437,-0.6437,-0.6437,-0.6437,-0.6437,-0.6437,-0.6437,-0.6437,-0.6437,-0.6437,-0.6437,-0.6437,-0.6437,-0.6437,-0.6437,-0.6437,-0.6437,-0.6437,-0.6437,-0.6437,-0.6437,-0.6437,-0.6437,-0.6437,-0.6437,-0.6437,-0.6437,-0.6437,-0.6437,-0.6437,0.1135,-0.0871,-0.0866,-0.1358,-0.1977,-0.1977,-0.1977,-0.1977,-0.1977,-0.1977,-0.1977,-0.1977,-0.1977,-0.1969,-0.1945,-0.1915,-0.1885,-0.1853,-0.1824,-0.18,-0.1795,-0.1795,-0.1795,-0.1795,-0.1795,-0.1795,-0.1795,-0.1795,-0.1795,-0.1795,-0.1795,-0.1907,-0.2244,-0.2468,-0.2692,-0.3139,-0.3363,-0.3553,-0.3474,-0.3372,-0.3297,-0.3251,-0.3232,-0.323,-0.323,-0.323,-0.323,-0.323,-0.323,-0.323,-0.323,-0.323,-0.323,-0.323,-0.323,-0.323,-0.323,-0.323,-0.323,-0.323,-0.323,-0.323,-0.323,-0.323,-0.323,-0.323,-0.323,-0.323,-0.323,-0.3632,-0.4232,-0.4634,-0.5236,-0.5837,-0.6237,-0.6337,-0.6437,-0.6437,-0.6437,-0.6437,-0.6437,-0.6437,-0.6437,-0.6437,-0.6437,-0.6437,-0.6437,-0.6437,-0.6437,-0.6437,-0.6437,-0.6437,-0.6437,-0.6437,-0.6437,-0.6437,-0.6437,-0.6437,-0.6437,-0.6437,-0.6437,-0.6437,-0.6437,-0.6437,-0.6437,-0.6437,-0.6437,-0.6437,-0.6437,-0.6437,-0.6437,-0.6437,-0.6437,-0.6437,-0.6437,0.311,0.0985,0.0246,-0.037,-0.1111,-0.1729,-0.1729,-0.1482,-0.1853,-0.1977,-0.1977,-0.1976,-0.1973,-0.1958,-0.1932,-0.19,-0.1872,-0.1843,-0.1819,-0.1801,-0.1795,-0.1795,-0.1795,-0.1795,-0.1795,-0.1795,-0.1795,-0.1795,-0.1795,-0.1795,-0.1795,-0.1795,-0.2132,-0.2356,-0.258,-0.2913,-0.3244,-0.3548,-0.3372,-0.3293,-0.3221,-0.3174,-0.3148,-0.3236,-0.323,-0.323,-0.323,-0.323,-0.323,-0.323,-0.323,-0.323,-0.323,-0.323,-0.323,-0.323,-0.323,-0.323,-0.323,-0.323,-0.323,-0.323,-0.323,-0.323,-0.323,-0.323,-0.323,-0.323,-0.323,-0.3732,-0.4533,-0.4834,-0.5334,-0.5937,-0.6337,-0.6437,-0.6437,-0.6437,-0.6437,-0.6437,-0.6437,-0.6437,-0.6437,-0.6437,-0.6437,-0.6437,-0.6437,-0.6437,-0.6437,-0.6437,-0.6437,-0.6437,-0.6437,-0.6437,-0.6437,-0.6437,-0.6437,-0.6437,-0.6437,-0.6437,-0.6437,-0.6437,-0.6437,-0.6437,-0.6437,-0.6437,-0.6437,-0.6437,-0.6437,-0.6437,-0.6437,-0.6437,-0.6437,-0.6437,-0.6437,0.4931,0.3445,0.1108,0.0739,0.1354,-0.0987,-0.1234,-0.0493,-0.1481,-0.1977,-0.1977,-0.1975,-0.1962,-0.1934,-0.1908,-0.1877,-0.1844,-0.1812,-0.1801,-0.1797,-0.1795,-0.1795,-0.1795,-0.1795,-0.1795,-0.1795,-0.1795,-0.1795,-0.1795,-0.1795,-0.1795,-0.1795,-0.2019,-0.2132,-0.2467,-0.2801,-0.3229,-0.3427,-0.3274,-0.3216,-0.3254,-0.3103,-0.3077,-0.3139,-0.323,-0.323,-0.323,-0.323,-0.323,-0.323,-0.323,-0.323,-0.323,-0.323,-0.323,-0.323,-0.323,-0.323,-0.323,-0.323,-0.323,-0.323,-0.323,-0.323,-0.323,-0.323,-0.323,-0.323,-0.323,-0.3732,-0.4433,-0.4933,-0.5334,-0.6037,-0.6437,-0.6437,-0.6437,-0.6437,-0.6437,-0.6437,-0.6437,-0.6437,-0.6437,-0.6437,-0.6437,-0.6437,-0.6437,-0.6437,-0.6437,-0.6437,-0.6437,-0.6437,-0.6437,-0.6437,-0.6437,-0.6437,-0.6437,-0.6437,-0.6437,-0.6437,-0.6437,-0.6437,-0.6437,-0.6437,-0.6437,-0.6437,-0.6437,-0.6437,-0.6437,-0.6437,-0.6437,-0.6437,-0.6437,-0.6437,-0.6437,0.5546,0.4926,0.32,0.2215,0.1846,-0.0,-0.0493,-0.0247,-0.1481,-0.1977,-0.1977,-0.1975,-0.196,-0.1929,-0.19,-0.1869,-0.1839,-0.1809,-0.1798,-0.1795,-0.1795,-0.1795,-0.1795,-0.1795,-0.1795,-0.1795,-0.1795,-0.1795,-0.1795,-0.1795,-0.1795,-0.1795,-0.1907,-0.2019,-0.2355,-0.2802,-0.3234,-0.3438,-0.3404,-0.3346,-0.3288,-0.323,-0.3189,-0.3236,-0.323,-0.323,-0.323,-0.323,-0.323,-0.323,-0.323,-0.323,-0.323,-0.323,-0.323,-0.323,-0.323,-0.323,-0.323,-0.323,-0.323,-0.323,-0.323,-0.323,-0.323,-0.323,-0.323,-0.323,-0.323,-0.3632,-0.4533,-0.4834,-0.5236,-0.6037,-0.6437,-0.6437,-0.6437,-0.6437,-0.6437,-0.6437,-0.6437,-0.6437,-0.6437,-0.6437,-0.6437,-0.6437,-0.6437,-0.6437,-0.6437,-0.6437,-0.6437,-0.6437,-0.6437,-0.6437,-0.6437,-0.6437,-0.6437,-0.6437,-0.6437,-0.6437,-0.6437,-0.6437,-0.6437,-0.6437,-0.6437,-0.6437,-0.6437,-0.6437,-0.6437,-0.6437,-0.6437,-0.6437,-0.6437,-0.6437,-0.6437,0.5919,0.5794,0.4926,0.3939,0.2955,0.1354,0.0616,0.037,-0.074,-0.1729,-0.1976,-0.1967,-0.1946,-0.1916,-0.1885,-0.1855,-0.1826,-0.1805,-0.1797,-0.1795,-0.1795,-0.1795,-0.1795,-0.1795,-0.1795,-0.1795,-0.1795,-0.1795,-0.1795,-0.1795,-0.1795,-0.1795,-0.1795,-0.1907,-0.2131,-0.2691,-0.3138,-0.3351,-0.3326,-0.3264,-0.3204,-0.3056,-0.3199,-0.3145,-0.323,-0.323,-0.323,-0.323,-0.323,-0.323,-0.323,-0.323,-0.323,-0.323,-0.323,-0.323,-0.323,-0.323,-0.323,-0.323,-0.323,-0.323,-0.323,-0.323,-0.323,-0.323,-0.323,-0.323,-0.3232,-0.3633,-0.4634,-0.4834,-0.5336,-0.6137,-0.6337,-0.6437,-0.6437,-0.6437,-0.6437,-0.6437,-0.6437,-0.6437,-0.6437,-0.6437,-0.6437,-0.6437,-0.6437,-0.6437,-0.6437,-0.6437,-0.6437,-0.6437,-0.6437,-0.6437,-0.6437,-0.6437,-0.6437,-0.6437,-0.6437,-0.6437,-0.6437,-0.6437,-0.6437,-0.6437,-0.6437,-0.6437,-0.6437,-0.6437,-0.6437,-0.6437,-0.6437,-0.6437,-0.6437,-0.6437,-0.6437,0.5919,0.5919,0.5794,0.5794,0.5298,0.2954,0.197,0.1601,0.0246,-0.0987,-0.1973,-0.1949,-0.1919,-0.1889,-0.1863,-0.1833,-0.1808,-0.1797,-0.1795,-0.1795,-0.1795,-0.1795,-0.1795,-0.1795,-0.1795,-0.1795,-0.1795,-0.1795,-0.1795,-0.1795,-0.1795,-0.1795,-0.1795,-0.1907,-0.1907,-0.2356,-0.2803,-0.3025,-0.2911,-0.2968,-0.3014,-0.2873,-0.292,-0.3169,-0.3233,-0.323,-0.323,-0.323,-0.323,-0.323,-0.323,-0.323,-0.323,-0.323,-0.323,-0.323,-0.323,-0.323,-0.323,-0.323,-0.323,-0.323,-0.323,-0.323,-0.323,-0.323,-0.323,-0.323,-0.323,-0.3732,-0.4334,-0.4832,-0.5434,-0.6037,-0.6337,-0.6437,-0.6437,-0.6437,-0.6437,-0.6437,-0.6437,-0.6437,-0.6437,-0.6437,-0.6437,-0.6437,-0.6437,-0.6437,-0.6437,-0.6437,-0.6437,-0.6437,-0.6437,-0.6437,-0.6437,-0.6437,-0.6437,-0.6437,-0.6437,-0.6437,-0.6437,-0.6437,-0.6437,-0.6437,-0.6437,-0.6437,-0.6437,-0.6437,-0.6437,-0.6437,-0.6437,-0.6437,-0.6437,-0.6337,-0.6337,0.5919,0.5919,0.5919,0.5919,0.5669,0.4062,0.283,0.1724,-0.0247,-0.1605,-0.1969,-0.1944,-0.1914,-0.1884,-0.1853,-0.1823,-0.18,-0.1795,-0.1795,-0.1795,-0.1795,-0.1795,-0.1795,-0.1795,-0.1795,-0.1795,-0.1795,-0.1795,-0.1795,-0.1795,-0.1795,-0.1795,-0.1795,-0.1907,-0.2019,-0.2356,-0.2468,-0.2805,-0.28,-0.2775,-0.3042,-0.2893,-0.2949,-0.3288,-0.3248,-0.323,-0.323,-0.323,-0.323,-0.323,-0.323,-0.323,-0.323,-0.323,-0.323,-0.323,-0.323,-0.323,-0.323,-0.323,-0.323,-0.323,-0.323,-0.323,-0.323,-0.323,-0.323,-0.323,-0.323,-0.3732,-0.4533,-0.4734,-0.5233,-0.6137,-0.6437,-0.6437,-0.6437,-0.6437,-0.6437,-0.6437,-0.6437,-0.6437,-0.6437,-0.6437,-0.6437,-0.6437,-0.6437,-0.6437,-0.6437,-0.6437,-0.6437,-0.6437,-0.6437,-0.6437,-0.6437,-0.6437,-0.6437,-0.6437,-0.6437,-0.6437,-0.6437,-0.6437,-0.6437,-0.6437,-0.6437,-0.6437,-0.6437,-0.6437,-0.6437,-0.6437,-0.6437,-0.6437,-0.6437,-0.6337,-0.6237,0.5919,0.5919,0.5919,0.5919,0.5794,0.4926,0.3693,0.1722,-0.0736,-0.1961,-0.1952,-0.1918,-0.1889,-0.1864,-0.1838,-0.1818,-0.1795,-0.1795,-0.1795,-0.1795,-0.1795,-0.1795,-0.1795,-0.1795,-0.1795,-0.1795,-0.1795,-0.1795,-0.1795,-0.1795,-0.1795,-0.1795,-0.1795,-0.1907,-0.2019,-0.2132,-0.2356,-0.2468,-0.2464,-0.2549,-0.2716,-0.2886,-0.2947,-0.3194,-0.3252,-0.323,-0.323,-0.323,-0.323,-0.323,-0.323,-0.323,-0.323,-0.323,-0.323,-0.323,-0.323,-0.323,-0.323,-0.323,-0.323,-0.323,-0.323,-0.323,-0.323,-0.323,-0.323,-0.323,-0.323,-0.3831,-0.4533,-0.4734,-0.5233,-0.6037,-0.6437,-0.6437,-0.6437,-0.6437,-0.6437,-0.6437,-0.6437,-0.6437,-0.6437,-0.6437,-0.6437,-0.6437,-0.6437,-0.6437,-0.6437,-0.6437,-0.6437,-0.6437,-0.6437,-0.6437,-0.6437,-0.6437,-0.6437,-0.6437,-0.6437,-0.6437,-0.6437,-0.6437,-0.6437,-0.6437,-0.6437,-0.6437,-0.6437,-0.6437,-0.6437,-0.6437,-0.6437,-0.6437,-0.6437,-0.6237,-0.6137,0.5919,0.5919,0.5919,0.5794,0.5794,0.5291,0.3933,0.172,-0.0728,-0.1932,-0.1926,-0.187,-0.1849,-0.1838,-0.1811,-0.1797,-0.1795,-0.1795,-0.1795,-0.1795,-0.1795,-0.1795,-0.1795,-0.1795,-0.1795,-0.1795,-0.1795,-0.1795,-0.1795,-0.1795,-0.1795,-0.1795,-0.1795,-0.1795,-0.1907,-0.2019,-0.2132,-0.2244,-0.2241,-0.2326,-0.2614,-0.2568,-0.284,-0.3095,-0.3252,-0.3234,-0.323,-0.323,-0.323,-0.323,-0.323,-0.323,-0.323,-0.323,-0.323,-0.323,-0.323,-0.323,-0.323,-0.323,-0.323,-0.323,-0.323,-0.323,-0.323,-0.323,-0.323,-0.323,-0.323,-0.3932,-0.4533,-0.4832,-0.5233,-0.5834,-0.6337,-0.6437,-0.6437,-0.6437,-0.6437,-0.6437,-0.6437,-0.6437,-0.6437,-0.6437,-0.6437,-0.6437,-0.6437,-0.6437,-0.6437,-0.6437,-0.6437,-0.6437,-0.6437,-0.6437,-0.6437,-0.6437,-0.6437,-0.6437,-0.6437,-0.6437,-0.6437,-0.6437,-0.6437,-0.6437,-0.6437,-0.6437,-0.6437,-0.6437,-0.6437,-0.6437,-0.6337,-0.6337,-0.6337,-0.6237,-0.6034,0.5919,0.5919,0.5919,0.5298,0.4301,0.2556,0.1696,0.1573,-0.0724,-0.1921,-0.1896,-0.1857,-0.1838,-0.1838,-0.1809,-0.1797,-0.1795,-0.1795,-0.1795,-0.1795,-0.1795,-0.1795,-0.1795,-0.1795,-0.1795,-0.1795,-0.1795,-0.1795,-0.1795,-0.1795,-0.1795,-0.1795,-0.1795,-0.1795,-0.1795,-0.1907,-0.1907,-0.1907,-0.1907,-0.222,-0.2407,-0.2476,-0.2856,-0.3125,-0.3157,-0.3139,-0.323,-0.323,-0.323,-0.323,-0.323,-0.323,-0.323,-0.323,-0.323,-0.323,-0.323,-0.323,-0.323,-0.323,-0.323,-0.323,-0.323,-0.323,-0.323,-0.323,-0.323,-0.323,-0.323,-0.3831,-0.4433,-0.4933,-0.5434,-0.5934,-0.6337,-0.6437,-0.6437,-0.6437,-0.6437,-0.6437,-0.6437,-0.6437,-0.6437,-0.6437,-0.6437,-0.6437,-0.6437,-0.6437,-0.6437,-0.6437,-0.6437,-0.6437,-0.6437,-0.6437,-0.6437,-0.6437,-0.6437,-0.6437,-0.6437,-0.6437,-0.6437,-0.6437,-0.6437,-0.6437,-0.6437,-0.6437,-0.6437,-0.6337,-0.6237,-0.6237,-0.6134,-0.6234,-0.6234,-0.5934,-0.5634,0.5546,0.517,0.5142,0.438,0.2896,0.0958,0.0595,0.0828,-0.0947,-0.1883,-0.1865,-0.1835,-0.1822,-0.1819,-0.1803,-0.1795,-0.1795,-0.1795,-0.1795,-0.1795,-0.1795,-0.1795,-0.1795,-0.1795,-0.1795,-0.1795,-0.1795,-0.1795,-0.1795,-0.1795,-0.1795,-0.1795,-0.1795,-0.1795,-0.1795,-0.1795,-0.1795,-0.1795,-0.1904,-0.2115,-0.2303,-0.2478,-0.2765,-0.3131,-0.3157,-0.3139,-0.323,-0.323,-0.323,-0.323,-0.323,-0.323,-0.323,-0.323,-0.323,-0.323,-0.323,-0.323,-0.323,-0.323,-0.323,-0.323,-0.323,-0.323,-0.323,-0.323,-0.323,-0.323,-0.3331,-0.3531,-0.4232,-0.4933,-0.5534,-0.6234,-0.6337,-0.6437,-0.6437,-0.6437,-0.6437,-0.6437,-0.6437,-0.6437,-0.6437,-0.6437,-0.6437,-0.6437,-0.6437,-0.6437,-0.6437,-0.6437,-0.6437,-0.6437,-0.6437,-0.6437,-0.6437,-0.6437,-0.6437,-0.6437,-0.6437,-0.6437,-0.6437,-0.6437,-0.6437,-0.6437,-0.6437,-0.6337,-0.6237,-0.6137,-0.5937,-0.5934,-0.5734,-0.5534,-0.5534,-0.5436,-0.5035,0.5028,0.3914,0.3746,0.2977,0.1878,0.0469,-0.0116,-0.0229,-0.1264,-0.1836,-0.1831,-0.1808,-0.1798,-0.1801,-0.1795,-0.1795,-0.1795,-0.1795,-0.1795,-0.1795,-0.1795,-0.1795,-0.1795,-0.1795,-0.1795,-0.1795,-0.1795,-0.1795,-0.1795,-0.1795,-0.1795,-0.1795,-0.1795,-0.1795,-0.1795,-0.1795,-0.1795,-0.1794,-0.1895,-0.199,-0.2273,-0.2342,-0.2413,-0.2965,-0.3036,-0.2927,-0.313,-0.323,-0.323,-0.323,-0.323,-0.323,-0.323,-0.323,-0.323,-0.323,-0.323,-0.323,-0.323,-0.323,-0.323,-0.323,-0.323,-0.323,-0.323,-0.323,-0.323,-0.323,-0.323,-0.3732,-0.4433,-0.4832,-0.5334,-0.6034,-0.6337,-0.6437,-0.6437,-0.6437,-0.6437,-0.6437,-0.6437,-0.6437,-0.6437,-0.6437,-0.6437,-0.6437,-0.6437,-0.6437,-0.6437,-0.6437,-0.6437,-0.6437,-0.6437,-0.6437,-0.6437,-0.6437,-0.6437,-0.6437,-0.6437,-0.6437,-0.6437,-0.6437,-0.6337,-0.6237,-0.6137,-0.6134,-0.6034,-0.5734,-0.5536,-0.5436,-0.5236,-0.4834,-0.4736,-0.4736,-0.4636,0.4163,0.3685,0.1776,0.082,0.0462,-0.0809,-0.1375,-0.1354,-0.1693,-0.1807,-0.1804,-0.1799,-0.1795,-0.1795,-0.1795,-0.1795,-0.1795,-0.1795,-0.1795,-0.1795,-0.1795,-0.1795,-0.1795,-0.1795,-0.1795,-0.1795,-0.1795,-0.1795,-0.1795,-0.1795,-0.1795,-0.1795,-0.1795,-0.1795,-0.1794,-0.1793,-0.1789,-0.1788,-0.1767,-0.1972,-0.2163,-0.2242,-0.2422,-0.2784,-0.2856,-0.293,-0.313,-0.323,-0.323,-0.323,-0.323,-0.323,-0.323,-0.323,-0.323,-0.323,-0.323,-0.323,-0.323,-0.323,-0.323,-0.323,-0.323,-0.323,-0.323,-0.323,-0.323,-0.323,-0.3432,-0.4033,-0.4533,-0.4834,-0.5133,-0.5837,-0.6437,-0.6437,-0.6437,-0.6437,-0.6437,-0.6437,-0.6437,-0.6437,-0.6437,-0.6437,-0.6437,-0.6437,-0.6437,-0.6437,-0.6437,-0.6437,-0.6437,-0.6437,-0.6437,-0.6437,-0.6437,-0.6437,-0.6437,-0.6437,-0.6437,-0.6437,-0.6437,-0.6237,-0.6137,-0.5937,-0.5737,-0.5634,-0.5534,-0.5133,-0.4933,-0.4935,-0.4634,-0.4234,-0.4034,-0.4034,-0.4033,0.3175,0.1997,0.0117,-0.0692,-0.091,-0.1478,-0.181,-0.1797,-0.1795,-0.1795,-0.1795,-0.1795,-0.1795,-0.1795,-0.1795,-0.1795,-0.1795,-0.1795,-0.1795,-0.1795,-0.1795,-0.1795,-0.1795,-0.1795,-0.1795,-0.1795,-0.1795,-0.1795,-0.1795,-0.1795,-0.1795,-0.1795,-0.1795,-0.1794,-0.1792,-0.1785,-0.1776,-0.1773,-0.1744,-0.1834,-0.2039,-0.2011,-0.2296,-0.2564,-0.2743,-0.2927,-0.313,-0.323,-0.323,-0.323,-0.323,-0.323,-0.323,-0.323,-0.323,-0.323,-0.323,-0.323,-0.323,-0.323,-0.323,-0.323,-0.323,-0.323,-0.323,-0.323,-0.323,-0.323,-0.3632,-0.4133,-0.4634,-0.5033,-0.5536,-0.6137,-0.6337,-0.6437,-0.6437,-0.6437,-0.6437,-0.6437,-0.6437,-0.6437,-0.6437,-0.6437,-0.6437,-0.6437,-0.6437,-0.6437,-0.6437,-0.6437,-0.6437,-0.6437,-0.6437,-0.6437,-0.6437,-0.6437,-0.6437,-0.6437,-0.6337,-0.6337,-0.6337,-0.6137,-0.5937,-0.5636,-0.5336,-0.5135,-0.4935,-0.4634,-0.4433,-0.4433,-0.4033,-0.363,-0.3531,-0.3432,-0.3533,0.2101,-0.0117,-0.1268,-0.182,-0.1797,-0.1795,-0.1795,-0.1795,-0.1795,-0.1795,-0.1795,-0.1795,-0.1795,-0.1795,-0.1795,-0.1795,-0.1795,-0.1795,-0.1795,-0.1795,-0.1795,-0.1795,-0.1795,-0.1795,-0.1795,-0.1795,-0.1795,-0.1795,-0.1795,-0.1795,-0.1795,-0.1795,-0.1794,-0.1793,-0.1782,-0.1767,-0.1752,-0.1738,-0.1715,-0.1689,-0.1673,-0.1765,-0.2158,-0.2442,-0.2623,-0.2725,-0.3029,-0.323,-0.323,-0.323,-0.323,-0.323,-0.323,-0.323,-0.323,-0.323,-0.323,-0.323,-0.323,-0.323,-0.323,-0.323,-0.323,-0.323,-0.323,-0.323,-0.323,-0.3331,-0.3732,-0.4133,-0.4634,-0.5135,-0.5737,-0.6237,-0.6337,-0.6437,-0.6437,-0.6437,-0.6437,-0.6437,-0.6437,-0.6437,-0.6437,-0.6437,-0.6437,-0.6437,-0.6437,-0.6437,-0.6437,-0.6437,-0.6437,-0.6437,-0.6437,-0.6437,-0.6437,-0.6337,-0.6337,-0.6137,-0.6037,-0.6134,-0.6134,-0.5737,-0.5436,-0.5236,-0.4935,-0.4634,-0.4332,-0.4031,-0.3932,-0.3932,-0.3732,-0.343,-0.3331,-0.3331,-0.323,0.0791,-0.1472,-0.1692,-0.18,-0.1795,-0.1795,-0.1795,-0.1795,-0.1795,-0.1795,-0.1795,-0.1795,-0.1795,-0.1795,-0.1795,-0.1795,-0.1795,-0.1795,-0.1795,-0.1795,-0.1795,-0.1795,-0.1795,-0.1795,-0.1795,-0.1795,-0.1795,-0.1795,-0.1795,-0.1795,-0.1795,-0.1795,-0.1793,-0.1782,-0.1759,-0.1744,-0.1731,-0.1712,-0.1688,-0.1663,-0.1768,-0.186,-0.2154,-0.2441,-0.2624,-0.2927,-0.313,-0.323,-0.323,-0.323,-0.323,-0.323,-0.323,-0.323,-0.323,-0.323,-0.323,-0.323,-0.323,-0.323,-0.323,-0.323,-0.323,-0.323,-0.323,-0.323,-0.323,-0.323,-0.3531,-0.4033,-0.4433,-0.4834,-0.5336,-0.6037,-0.6437,-0.6437,-0.6437,-0.6437,-0.6437,-0.6437,-0.6437,-0.6437,-0.6437,-0.6437,-0.6437,-0.6437,-0.6437,-0.6437,-0.6437,-0.6437,-0.6337,-0.6337,-0.6337,-0.6437,-0.6337,-0.6237,-0.6237,-0.5937,-0.5734,-0.5636,-0.5434,-0.5133,-0.4834,-0.4736,-0.4334,-0.4033,-0.3732,-0.363,-0.3531,-0.3531,-0.3432,-0.323,-0.323,-0.323,-0.323]},{"header":{"parameterUnit":"m.s-1","parameterCategory":1,"la1":31.0,"la2":29.5877,"lo1":-88.7671,"lo2":-86.6584,"dy":0.0162,"dx":0.0185,"nx":115,"ny":88,"refTime":"2024-07-31T00:00:00:Z","depth":0,"parameterNumber":3,"parameterNumberName":"V-component_of_WINDS"},"data":[0.0,0.0,0.0,0.0,0.0,0.0,0.0,0.0,0.0,0.0,0.0,0.0,0.0,0.0,0.0,0.0,0.0,0.0,0.0,0.0,0.0,0.0,0.0,0.0,0.0,0.0,0.0,0.0,0.0,0.0,0.0,0.0,0.0,0.0,0.0,0.0,0.0,0.0,0.0,0.0,0.0,0.0,0.0,0.0,0.0,0.0,0.0,0.0,0.0,0.0,0.0,0.0,0.0,0.0,0.0,0.0,0.0,0.0,0.0,0.0,0.0,0.0,0.0,0.0,0.0,0.0,0.0,0.0,0.0,0.0,0.0,0.0,0.0,0.0,0.0,0.0,0.0,0.0,0.0,0.0,0.0,0.0,0.0,0.0,0.0,0.0,0.0,0.0,0.0,0.0,0.0,0.0,0.0,0.0,0.0,0.0,0.0,0.0,0.0,0.0,0.0,0.0,0.0,0.0,0.0,0.0,0.0,0.0,0.0,0.0,0.0,0.0,0.0,0.0,0.0,0.0,0.0,0.0,0.0,0.0,0.0,0.0,0.0,0.0,0.0,0.0,0.0,0.0,0.0,0.0,0.0,0.0,0.0,0.0,0.0,0.0,0.0,0.0,0.0,0.0,0.0,0.0,0.0,0.0,0.0,0.0,0.0,0.0,0.0,0.0,0.0,0.0,0.0,0.0,0.0,0.0,0.0,0.0,0.0,0.0,0.0,0.0,0.0,0.0,0.0,0.0,0.0,0.0,0.0,0.0,0.0,0.0,0.0,0.0,0.0,0.0,0.0,0.0,0.0,0.0,0.0,0.0,0.0,0.0,0.0,0.0,0.0,0.0,0.0,0.0,0.0,0.0,0.0,0.0,0.0,0.0,0.0,0.0,0.0,0.0,0.0,0.0,0.0,0.0,0.0,0.0,0.0,0.0,0.0,0.0,0.0,0.0,0.0,0.0,0.0,0.0,0.0,0.0,0.0,0.0,0.0,0.0,0.0,0.0,0.0,0.0,0.0,0.0,0.0,0.0,0.0,0.0,0.0,0.0,0.0,0.0,0.0,0.0,0.0,0.0,0.0,0.0,0.0,0.0,0.0,0.0,0.0,0.0,0.0,0.0,0.0,0.0,0.0,0.0,0.0,0.0,0.0,0.0,0.0,0.0,0.0,0.0,0.0,0.0,0.0,0.0,0.0,0.0,0.0,0.0,0.0,0.0,0.0,0.0,0.0,0.0,0.0,0.0,0.0,0.0,0.0,0.0,0.0,0.0,0.0,0.0,0.0,0.0,0.0,0.0,0.0,0.0,0.0,0.0,0.0,0.0,0.0,0.0,0.0,0.0,0.0,0.0,0.0,0.0,0.0,0.0,0.0,0.0,0.0,0.0,0.0,0.0,0.0,0.0,0.0,0.0,0.0,0.0,0.0,0.0,0.0,0.0,0.0,0.0,0.0,0.0,0.0,0.0,0.0,0.0,0.0,0.0,0.0,0.0,0.0,0.0,0.0,0.0,0.0,0.0,0.0,0.0,0.0,0.0,0.0,0.0,0.0,0.0,0.0,0.0,0.0,0.0,0.0,0.0,0.0,0.0,0.0,0.0,0.0,0.0,0.0,0.0,0.0,0.0,0.0,0.0,0.0,0.0,0.0,0.0,0.0,0.0,0.0,0.0,0.0,0.0,0.0,0.0,0.0,0.0,0.0,0.0,0.0,0.0,0.0,0.0,0.0,0.0,0.0,0.0,0.0,0.0,0.0,0.0,0.0,0.0,0.0,0.0,0.0,0.0,0.0,0.0,0.0,0.0,0.0,0.0,0.0,0.0,0.0,0.0,0.0,0.0,0.0,0.0,0.0,0.0,0.0,0.0,0.0,0.0,0.0,0.0,0.0,0.0,0.0,0.0,0.0,0.0,0.0,0.0,0.0,0.0,0.0,0.0,0.0,0.0,0.0,0.0,0.0,0.0,0.0,0.0,0.0,0.0,0.0,0.0,0.0,0.0,0.0,0.0,0.0,0.0,0.0,0.0,0.0,0.0,0.0,0.0,0.0,0.0,0.0,0.0,0.0,0.0,0.0,0.0,0.0,0.0,0.0,0.0,0.0,0.0,0.0,0.0,0.0,0.0,0.0,0.0,0.0,0.0,0.0,0.0,0.0,0.0,0.0,0.0,0.0,0.0,0.0,0.0,0.0,0.0,0.0,0.0,0.0,0.0,0.0,0.0,0.0,0.0,0.0,0.0,0.0,0.0,0.0,0.0,0.0,0.0,0.0,0.0,0.0,0.0,0.0,0.0,0.0,0.0,0.0,0.0,0.0,0.0,0.0,0.0,0.0,0.0,0.0,0.0,0.0,0.0,0.0,0.0,0.0,0.0,0.0,0.0,0.0,0.0,0.0,0.0,0.0,0.0,0.0,0.0,0.0,0.0,0.0,0.0,0.0,0.0,0.0,0.0,0.0,0.0,0.0,0.0,0.0,0.0,0.0,0.0,0.0,0.0,0.0,0.0,0.0,0.0,0.0,0.0,0.0,0.0,0.0,0.0,0.0,0.0,0.0,0.0,0.0,0.0,0.0,0.0,0.0,0.0,0.0,0.0,0.0,0.0,0.0,0.0,0.0,0.0,0.0,0.0,0.0,0.0,0.0,0.0,0.0,0.0,0.0,0.0,0.0,0.0,0.0,0.0,0.0,0.0,0.0,0.0,0.0,0.0,0.0,0.0,0.0,0.0,0.0,0.0,0.0,0.0,0.0,0.0,0.0,0.0,0.0,0.0,0.0,0.0,0.0,0.0,0.0,0.0,0.0,0.0,0.0,0.0,0.0,0.0,0.0,0.0,0.0,0.0,0.0,0.0,0.0,0.0,0.0,0.0,0.0,0.0,0.0,0.0,0.0,0.0,0.0,0.0,0.0,0.0,0.0,0.0,0.0,0.0,0.0,0.0,0.0,0.0,0.0,0.0,0.0,0.0,0.0,0.0,0.0,0.0,0.0,0.0,0.0,0.0,0.0,0.0,0.0,0.0,0.0,0.0,0.0,0.0,0.0,0.0,0.0,0.0,0.0,0.0,0.0,0.0,0.0,0.0,0.0,0.0,0.0,0.0,0.0,0.0,0.0,0.0,0.0,0.0,0.0,0.0,0.0,0.0,0.0,0.0,0.0,0.0,0.0,0.0,0.0,0.0,0.0,0.0,0.0,0.0,0.0,0.0,0.0,0.0,0.0,0.0,0.0,0.0,0.0,0.0,0.0,0.0,0.0,0.0,0.0,0.0,0.0,0.0,0.0,0.0,0.0,0.0,0.0,0.0,0.0,0.0,0.0,0.0,0.0,0.0,0.0,0.0,0.0,0.0,0.0,0.0,0.0,0.0,0.0,0.0,0.0,0.0,0.0,0.0,0.0,0.0,0.0,0.0,0.0,0.0,0.0,0.0,0.0,0.0,0.0,0.0,0.0,0.0,0.0,0.0,0.0,0.0,0.0,0.0,0.0,0.0,0.0,0.0,0.0,0.0,0.0,0.0,0.0,0.0,0.0,0.0,0.0,0.0,0.0,0.0,0.0,0.0,0.0,0.0,0.0,0.0,0.0,0.0,0.0,0.0,0.0,0.0,0.0,0.0,0.0,0.0,0.0,0.0,0.0,0.0,0.0,0.0,0.0,0.0,0.0,0.0,0.0,0.0,0.0,0.0,0.0,0.0,0.0,0.0,0.0,0.0,0.0,0.0,0.0,0.0,0.0,0.0,0.0,0.0,0.0,0.0,0.0,0.0,0.0,0.0,0.0,0.0,0.0,0.0,0.0,0.0,0.0,0.0,0.0,0.0,0.0,0.0,0.0,0.0,0.0,0.0,0.0,0.0,0.0,0.0,0.0,0.0,0.0,0.0,0.0,0.0,0.0,0.0,0.0,0.0,0.0,0.0,0.0,0.0,0.0,0.0,0.0,0.0,0.0,0.0,0.0,0.0,0.0,0.0,0.0,0.0,0.0,0.0,0.0,0.0,0.0,0.0,0.0,0.0,0.0,0.0,0.0,0.0,0.0,0.0,0.0,0.0,0.0,0.0,0.0,0.0,0.0,0.0,0.0,0.0,0.0,0.0,0.0,0.0,0.0,0.0,0.0,0.0,0.0,0.0,0.0,0.0,0.0,0.0,0.0,0.0,0.0,0.0,0.0,0.0,0.0,0.0,0.0,0.0,0.0,0.0,0.0,0.0,0.0,0.0,0.0,0.0,0.0,0.0,0.0,0.0,0.0,0.0,0.0,0.0,0.0,0.0,0.0,0.0,0.0,0.0,0.0,0.0,-1.7584,0.0,0.0,0.0,0.0,0.0,0.0,0.0,0.0,0.0,0.0,0.0,0.0,0.0,0.0,0.0,0.0,0.0,0.0,0.0,0.0,0.0,0.0,0.0,0.0,0.0,0.0,0.0,0.0,0.0,0.0,0.0,0.0,0.0,0.0,0.0,0.0,0.0,0.0,0.0,0.0,0.0,0.0,0.0,0.0,0.0,0.0,0.0,0.0,0.0,0.0,0.0,0.0,0.0,0.0,0.0,0.0,0.0,0.0,0.0,0.0,0.0,0.0,0.0,0.0,0.0,0.0,0.0,0.0,0.0,0.0,0.0,0.0,0.0,0.0,0.0,0.0,0.0,0.0,0.0,0.0,0.0,0.0,0.0,0.0,0.0,0.0,0.0,0.0,0.0,0.0,0.0,0.0,0.0,0.0,0.0,0.0,0.0,0.0,0.0,0.0,0.0,0.0,0.0,0.0,0.0,0.0,0.0,0.0,0.0,0.0,-1.9219,-1.8761,-1.8005,-1.7393,-1.6965,0.0,0.0,0.0,0.0,0.0,0.0,0.0,0.0,0.0,0.0,0.0,0.0,0.0,0.0,0.0,0.0,0.0,0.0,0.0,0.0,0.0,0.0,0.0,0.0,0.0,0.0,0.0,0.0,0.0,0.0,0.0,0.0,0.0,0.0,0.0,0.0,0.0,0.0,0.0,0.0,0.0,0.0,0.0,0.0,0.0,0.0,0.0,0.0,0.0,0.0,0.0,0.0,0.0,0.0,0.0,0.0,0.0,0.0,0.0,0.0,0.0,0.0,0.0,0.0,0.0,0.0,0.0,0.0,0.0,0.0,0.0,0.0,0.0,0.0,0.0,0.0,0.0,0.0,0.0,0.0,0.0,0.0,0.0,0.0,0.0,0.0,0.0,0.0,0.0,0.0,0.0,0.0,0.0,0.0,0.0,0.0,0.0,0.0,0.0,0.0,0.0,0.0,0.0,0.0,0.0,0.0,0.0,0.0,0.0,0.0,0.0,0.0,-1.8272,-1.7882,-1.7309,0.0,0.0,0.0,0.0,0.0,0.0,0.0,0.0,0.0,0.0,0.0,0.0,0.0,0.0,0.0,0.0,0.0,0.0,0.0,0.0,0.0,0.0,0.0,0.0,0.0,0.0,0.0,0.0,0.0,0.0,0.0,0.0,0.0,0.0,0.0,0.0,0.0,0.0,0.0,0.0,0.0,0.0,0.0,0.0,0.0,0.0,0.0,0.0,0.0,0.0,0.0,0.0,0.0,0.0,0.0,0.0,0.0,0.0,0.0,0.0,0.0,0.0,0.0,0.0,0.0,0.0,0.0,0.0,0.0,0.0,0.0,0.0,0.0,0.0,0.0,0.0,0.0,0.0,0.0,0.0,0.0,0.0,0.0,0.0,0.0,0.0,0.0,0.0,0.0,0.0,0.0,0.0,0.0,0.0,0.0,0.0,0.0,0.0,0.0,0.0,0.0,0.0,0.0,0.0,0.0,0.0,0.0,0.0,0.0,0.0,-1.8788,-2.0967,-2.0251,0.0,-1.9764,0.0,0.0,0.0,0.0,0.0,0.0,0.0,0.0,0.0,0.0,0.0,0.0,0.0,0.0,0.0,0.0,0.0,0.0,0.0,0.0,0.0,0.0,0.0,0.0,0.0,0.0,0.0,0.0,0.0,0.0,0.0,0.0,0.0,0.0,0.0,0.0,0.0,0.0,0.0,0.0,0.0,0.0,0.0,0.0,0.0,0.0,0.0,0.0,0.0,0.0,0.0,0.0,0.0,0.0,0.0,0.0,0.0,0.0,0.0,0.0,0.0,0.0,0.0,0.0,0.0,0.0,0.0,0.0,0.0,0.0,0.0,0.0,0.0,0.0,0.0,0.0,0.0,0.0,0.0,0.0,0.0,0.0,0.0,0.0,0.0,0.0,0.0,0.0,0.0,0.0,0.0,0.0,0.0,0.0,0.0,0.0,0.0,0.0,0.0,0.0,0.0,0.0,0.0,0.0,0.0,0.0,0.0,0.0,0.0,0.0,0.0,-1.9905,-1.9579,-1.9379,0.0,0.0,0.0,0.0,0.0,0.0,0.0,0.0,0.0,0.0,0.0,0.0,0.0,0.0,0.0,0.0,0.0,0.0,0.0,0.0,0.0,0.0,0.0,0.0,0.0,0.0,0.0,0.0,0.0,0.0,0.0,0.0,0.0,0.0,0.0,0.0,0.0,0.0,0.0,0.0,0.0,0.0,0.0,0.0,0.0,0.0,0.0,0.0,0.0,0.0,0.0,0.0,0.0,0.0,0.0,0.0,0.0,0.0,0.0,0.0,0.0,0.0,0.0,0.0,0.0,0.0,0.0,0.0,0.0,0.0,0.0,0.0,0.0,0.0,0.0,0.0,0.0,0.0,0.0,0.0,0.0,0.0,0.0,0.0,0.0,0.0,0.0,0.0,0.0,0.0,0.0,0.0,0.0,0.0,0.0,0.0,0.0,0.0,0.0,0.0,0.0,0.0,0.0,0.0,0.0,0.0,0.0,0.0,0.0,0.0,-1.9316,0.0,-2.0004,-2.0012,-1.9681,-1.8964,0.0,0.0,0.0,0.0,0.0,0.0,0.0,0.0,0.0,0.0,0.0,0.0,0.0,0.0,0.0,0.0,0.0,0.0,0.0,0.0,0.0,0.0,0.0,0.0,0.0,0.0,0.0,0.0,0.0,0.0,0.0,0.0,0.0,0.0,0.0,0.0,0.0,0.0,0.0,0.0,0.0,0.0,0.0,0.0,0.0,0.0,0.0,0.0,0.0,0.0,0.0,0.0,0.0,0.0,0.0,0.0,0.0,0.0,0.0,0.0,0.0,0.0,0.0,0.0,0.0,0.0,0.0,0.0,0.0,0.0,0.0,0.0,0.0,0.0,0.0,0.0,0.0,0.0,0.0,0.0,0.0,0.0,0.0,0.0,0.0,0.0,0.0,0.0,0.0,0.0,0.0,0.0,0.0,0.0,0.0,0.0,0.0,0.0,0.0,0.0,0.0,0.0,0.0,0.0,0.0,0.0,0.0,0.0,0.0,-2.0307,-2.0288,-2.259,-2.2714,-2.1546,0.0,0.0,0.0,0.0,0.0,0.0,0.0,0.0,0.0,0.0,0.0,0.0,0.0,0.0,0.0,0.0,0.0,0.0,0.0,0.0,0.0,0.0,0.0,0.0,0.0,0.0,0.0,0.0,0.0,0.0,0.0,0.0,0.0,0.0,0.0,0.0,0.0,0.0,0.0,0.0,0.0,0.0,0.0,0.0,0.0,0.0,0.0,0.0,0.0,0.0,0.0,0.0,0.0,0.0,0.0,0.0,0.0,0.0,0.0,0.0,0.0,0.0,0.0,0.0,0.0,0.0,0.0,0.0,0.0,0.0,0.0,0.0,0.0,0.0,0.0,0.0,0.0,0.0,0.0,0.0,0.0,0.0,0.0,0.0,0.0,0.0,0.0,0.0,0.0,0.0,0.0,0.0,0.0,0.0,0.0,0.0,0.0,0.0,0.0,0.0,0.0,0.0,0.0,0.0,0.0,0.0,0.0,0.0,0.0,-1.7945,-1.872,-2.0785,-2.4109,-2.1847,-2.0495,0.0,0.0,0.0,0.0,0.0,0.0,0.0,0.0,0.0,0.0,0.0,0.0,0.0,0.0,0.0,0.0,0.0,0.0,0.0,0.0,0.0,0.0,0.0,0.0,0.0,0.0,0.0,0.0,0.0,0.0,0.0,0.0,0.0,0.0,0.0,0.0,0.0,0.0,0.0,0.0,0.0,0.0,0.0,0.0,0.0,0.0,0.0,0.0,0.0,0.0,0.0,0.0,0.0,0.0,0.0,0.0,0.0,0.0,0.0,0.0,0.0,0.0,0.0,0.0,0.0,0.0,0.0,0.0,0.0,0.0,0.0,0.0,0.0,0.0,0.0,0.0,0.0,0.0,0.0,0.0,0.0,0.0,0.0,0.0,0.0,0.0,0.0,0.0,0.0,0.0,0.0,0.0,0.0,0.0,0.0,0.0,0.0,0.0,0.0,0.0,0.0,0.0,0.0,0.0,0.0,0.0,0.0,0.0,0.0,-1.7383,0.0,-2.214,0.0,-2.1429,-1.9837,0.0,0.0,0.0,0.0,0.0,0.0,0.0,0.0,0.0,0.0,0.0,0.0,0.0,0.0,0.0,0.0,0.0,0.0,0.0,0.0,0.0,0.0,0.0,0.0,0.0,0.0,0.0,0.0,0.0,0.0,0.0,0.0,0.0,0.0,0.0,0.0,0.0,0.0,0.0,0.0,0.0,0.0,0.0,0.0,0.0,0.0,0.0,0.0,0.0,0.0,0.0,0.0,0.0,0.0,0.0,0.0,0.0,0.0,0.0,0.0,0.0,0.0,0.0,0.0,0.0,0.0,0.0,0.0,0.0,0.0,0.0,0.0,0.0,0.0,0.0,0.0,0.0,0.0,0.0,0.0,0.0,0.0,0.0,0.0,0.0,0.0,0.0,0.0,0.0,0.0,0.0,0.0,0.0,0.0,0.0,0.0,0.0,0.0,0.0,0.0,0.0,0.0,0.0,0.0,0.0,0.0,0.0,0.0,-1.7527,-2.1463,-2.4015,-2.4156,-2.1889,-2.1717,-1.9777,0.0,0.0,0.0,0.0,0.0,0.0,0.0,0.0,0.0,0.0,0.0,0.0,0.0,0.0,0.0,0.0,0.0,0.0,0.0,0.0,0.0,0.0,0.0,0.0,0.0,0.0,0.0,0.0,0.0,0.0,0.0,0.0,0.0,0.0,0.0,0.0,0.0,0.0,0.0,0.0,0.0,0.0,0.0,0.0,0.0,0.0,0.0,0.0,0.0,0.0,0.0,0.0,0.0,0.0,0.0,0.0,0.0,0.0,0.0,0.0,0.0,0.0,0.0,0.0,0.0,0.0,0.0,0.0,0.0,0.0,0.0,0.0,0.0,0.0,0.0,0.0,0.0,0.0,0.0,0.0,0.0,0.0,0.0,0.0,0.0,0.0,0.0,0.0,0.0,0.0,0.0,0.0,0.0,0.0,0.0,0.0,0.0,0.0,0.0,0.0,0.0,0.0,0.0,0.0,0.0,0.0,0.0,0.0,0.0,-2.0116,-2.1968,-2.3439,-2.4237,-2.1581,-2.026,0.0,0.0,0.0,0.0,0.0,0.0,0.0,0.0,0.0,0.0,0.0,0.0,0.0,0.0,0.0,0.0,0.0,0.0,0.0,0.0,0.0,0.0,0.0,0.0,0.0,0.0,0.0,0.0,0.0,0.0,0.0,0.0,0.0,0.0,0.0,0.0,0.0,0.0,0.0,0.0,0.0,0.0,0.0,0.0,0.0,0.0,0.0,0.0,0.0,0.0,0.0,0.0,0.0,0.0,0.0,0.0,0.0,0.0,0.0,0.0,0.0,0.0,0.0,0.0,0.0,0.0,0.0,0.0,0.0,0.0,0.0,0.0,0.0,0.0,0.0,0.0,0.0,0.0,0.0,0.0,0.0,0.0,0.0,0.0,0.0,0.0,0.0,0.0,0.0,0.0,0.0,0.0,0.0,0.0,0.0,0.0,0.0,0.0,0.0,0.0,0.0,0.0,0.0,0.0,0.0,0.0,0.0,0.0,0.0,-2.234,-2.4102,-2.5255,-2.5591,-2.3046,-2.1652,-2.1568,0.0,0.0,0.0,0.0,0.0,0.0,0.0,0.0,0.0,0.0,0.0,0.0,0.0,0.0,0.0,0.0,0.0,0.0,0.0,0.0,0.0,0.0,0.0,0.0,0.0,0.0,0.0,0.0,0.0,0.0,0.0,0.0,0.0,0.0,0.0,0.0,0.0,0.0,0.0,0.0,0.0,0.0,0.0,0.0,0.0,0.0,0.0,0.0,0.0,0.0,0.0,0.0,0.0,0.0,0.0,0.0,0.0,0.0,0.0,0.0,0.0,0.0,0.0,0.0,0.0,0.0,0.0,0.0,0.0,0.0,0.0,0.0,0.0,0.0,0.0,0.0,0.0,0.0,0.0,0.0,0.0,0.0,0.0,0.0,0.0,0.0,0.0,0.0,0.0,0.0,0.0,0.0,0.0,0.0,0.0,0.0,0.0,0.0,0.0,0.0,0.0,0.0,0.0,0.0,0.0,0.0,0.0,0.0,-2.7279,-2.9663,-2.9323,-2.6136,-2.5824,-2.3849,0.0,0.0,0.0,0.0,0.0,0.0,0.0,0.0,0.0,0.0,0.0,0.0,0.0,0.0,0.0,0.0,0.0,0.0,0.0,0.0,0.0,0.0,0.0,0.0,0.0,0.0,0.0,0.0,0.0,0.0,0.0,0.0,0.0,0.0,0.0,0.0,0.0,0.0,0.0,0.0,0.0,0.0,0.0,0.0,0.0,0.0,0.0,0.0,0.0,0.0,0.0,0.0,0.0,0.0,0.0,0.0,0.0,0.0,0.0,0.0,0.0,0.0,0.0,0.0,0.0,0.0,0.0,0.0,0.0,0.0,0.0,0.0,0.0,0.0,0.0,0.0,0.0,0.0,0.0,0.0,0.0,0.0,0.0,0.0,0.0,0.0,0.0,0.0,0.0,0.0,0.0,0.0,0.0,0.0,0.0,0.0,0.0,0.0,0.0,0.0,0.0,0.0,0.0,0.0,0.0,0.0,0.0,0.0,0.0,-3.0693,-3.2658,-3.2615,-3.0437,-2.7986,-2.5844,0.0,0.0,0.0,0.0,0.0,0.0,0.0,0.0,0.0,0.0,0.0,0.0,0.0,0.0,0.0,0.0,0.0,0.0,0.0,0.0,0.0,0.0,0.0,0.0,0.0,0.0,0.0,0.0,0.0,0.0,0.0,0.0,0.0,0.0,0.0,0.0,0.0,0.0,0.0,0.0,0.0,0.0,0.0,0.0,0.0,0.0,0.0,0.0,0.0,0.0,0.0,0.0,0.0,0.0,0.0,0.0,0.0,0.0,0.0,0.0,0.0,0.0,0.0,0.0,0.0,0.0,0.0,0.0,0.0,0.0,0.0,0.0,0.0,0.0,0.0,0.0,0.0,0.0,0.0,0.0,0.0,0.0,0.0,0.0,0.0,0.0,0.0,0.0,0.0,0.0,0.0,0.0,0.0,0.0,0.0,0.0,0.0,0.0,0.0,0.0,0.0,0.0,0.0,0.0,0.0,0.0,0.0,0.0,-2.9564,-3.2586,-3.4697,-3.5129,-3.3788,-3.1114,-2.842,0.0,0.0,0.0,0.0,0.0,0.0,0.0,0.0,0.0,0.0,0.0,0.0,0.0,0.0,0.0,0.0,0.0,0.0,0.0,0.0,0.0,0.0,0.0,0.0,0.0,0.0,0.0,0.0,0.0,0.0,0.0,0.0,0.0,0.0,0.0,0.0,0.0,0.0,0.0,0.0,0.0,0.0,0.0,0.0,0.0,0.0,0.0,0.0,0.0,0.0,0.0,0.0,0.0,0.0,0.0,0.0,0.0,0.0,0.0,0.0,0.0,0.0,0.0,0.0,0.0,0.0,0.0,0.0,0.0,0.0,0.0,0.0,0.0,0.0,0.0,0.0,0.0,0.0,0.0,0.0,0.0,0.0,0.0,0.0,0.0,0.0,0.0,0.0,0.0,0.0,0.0,0.0,0.0,0.0,0.0,0.0,0.0,0.0,0.0,0.0,0.0,0.0,0.0,0.0,0.0,0.0,0.0,0.0,-3.1014,-3.3623,-3.6127,-3.7048,-3.6245,-3.4413,-3.1072,0.0,0.0,0.0,0.0,0.0,0.0,0.0,0.0,0.0,0.0,0.0,0.0,0.0,0.0,0.0,0.0,0.0,0.0,0.0,0.0,0.0,0.0,0.0,0.0,0.0,0.0,0.0,0.0,0.0,0.0,0.0,0.0,0.0,0.0,0.0,0.0,0.0,0.0,0.0,0.0,0.0,0.0,0.0,0.0,0.0,0.0,0.0,0.0,0.0,0.0,0.0,0.0,0.0,0.0,0.0,0.0,0.0,0.0,0.0,0.0,0.0,0.0,0.0,0.0,0.0,0.0,0.0,0.0,0.0,0.0,0.0,0.0,0.0,0.0,0.0,0.0,0.0,0.0,0.0,0.0,0.0,0.0,0.0,0.0,0.0,0.0,0.0,0.0,0.0,0.0,0.0,0.0,0.0,0.0,0.0,0.0,0.0,0.0,0.0,0.0,0.0,0.0,0.0,0.0,0.0,0.0,0.0,0.0,-3.2143,-3.5366,-3.7321,-3.8238,-3.8043,-3.5018,-3.1619,0.0,0.0,0.0,0.0,0.0,0.0,0.0,0.0,0.0,0.0,0.0,0.0,0.0,0.0,0.0,0.0,0.0,0.0,0.0,0.0,0.0,0.0,0.0,0.0,0.0,0.0,0.0,0.0,0.0,0.0,0.0,0.0,0.0,0.0,0.0,0.0,0.0,0.0,0.0,0.0,0.0,0.0,0.0,0.0,0.0,0.0,0.0,0.0,-1.8259,0.0,0.0,0.0,0.0,0.0,0.0,0.0,0.0,0.0,0.0,0.0,0.0,0.0,0.0,0.0,0.0,0.0,0.0,0.0,0.0,0.0,0.0,0.0,0.0,0.0,0.0,0.0,0.0,0.0,0.0,0.0,0.0,0.0,0.0,0.0,0.0,0.0,0.0,0.0,0.0,0.0,0.0,0.0,0.0,0.0,0.0,0.0,0.0,0.0,0.0,0.0,0.0,0.0,0.0,0.0,0.0,0.0,0.0,0.0,-3.3512,-3.654,-3.8297,-3.898,-3.8514,-3.6013,-3.2831,0.0,0.0,0.0,0.0,0.0,0.0,0.0,0.0,0.0,0.0,0.0,0.0,0.0,0.0,0.0,0.0,0.0,0.0,0.0,0.0,0.0,0.0,0.0,0.0,0.0,0.0,0.0,0.0,0.0,0.0,0.0,0.0,0.0,0.0,0.0,0.0,0.0,0.0,0.0,0.0,0.0,0.0,0.0,0.0,0.0,0.0,0.0,0.0,0.0,0.0,0.0,0.0,0.0,0.0,0.0,0.0,0.0,0.0,0.0,0.0,0.0,0.0,0.0,0.0,0.0,0.0,0.0,0.0,0.0,0.0,0.0,0.0,0.0,0.0,0.0,0.0,0.0,0.0,0.0,0.0,0.0,0.0,0.0,0.0,0.0,0.0,0.0,0.0,0.0,0.0,0.0,0.0,0.0,0.0,0.0,0.0,0.0,0.0,0.0,0.0,0.0,0.0,0.0,0.0,0.0,0.0,0.0,-3.0916,-3.4608,-3.7419,-3.9136,-3.9546,-3.8609,-3.6911,-3.4042,-2.9923,0.0,0.0,0.0,0.0,0.0,0.0,0.0,0.0,0.0,0.0,0.0,0.0,0.0,0.0,0.0,0.0,0.0,0.0,0.0,0.0,0.0,0.0,0.0,0.0,0.0,0.0,0.0,0.0,0.0,0.0,0.0,0.0,0.0,0.0,0.0,0.0,0.0,0.0,-1.8546,-2.0672,0.0,0.0,0.0,0.0,0.0,0.0,0.0,0.0,-2.0188,0.0,0.0,0.0,0.0,0.0,0.0,0.0,0.0,0.0,0.0,0.0,0.0,0.0,0.0,0.0,0.0,0.0,0.0,0.0,0.0,0.0,0.0,0.0,0.0,0.0,0.0,0.0,0.0,0.0,0.0,0.0,0.0,0.0,0.0,0.0,0.0,0.0,0.0,0.0,0.0,0.0,0.0,0.0,0.0,0.0,0.0,0.0,0.0,0.0,0.0,0.0,0.0,0.0,0.0,0.0,0.0,-2.9865,-3.1499,-3.4273,-3.8277,-4.0015,-4.0151,-3.8648,-3.6911,-3.4293,-3.0684,0.0,0.0,0.0,0.0,0.0,0.0,0.0,0.0,0.0,0.0,0.0,0.0,0.0,0.0,0.0,0.0,0.0,0.0,0.0,0.0,0.0,0.0,0.0,0.0,0.0,0.0,0.0,0.0,0.0,0.0,0.0,0.0,0.0,0.0,0.0,0.0,0.0,0.0,0.0,-2.2796,-2.4023,0.0,0.0,0.0,0.0,0.0,0.0,0.0,0.0,-1.9876,0.0,0.0,0.0,0.0,0.0,0.0,0.0,0.0,0.0,0.0,0.0,0.0,0.0,0.0,0.0,0.0,0.0,0.0,0.0,0.0,0.0,0.0,0.0,0.0,0.0,0.0,0.0,0.0,0.0,0.0,0.0,0.0,0.0,0.0,0.0,0.0,0.0,0.0,0.0,0.0,0.0,0.0,0.0,0.0,0.0,0.0,0.0,0.0,0.0,0.0,0.0,0.0,0.0,0.0,0.0,-2.9298,-3.2087,-3.5112,-3.8473,-3.939,-3.9409,-3.857,-3.5603,-3.2773,0.0,0.0,0.0,0.0,0.0,0.0,0.0,0.0,0.0,0.0,0.0,0.0,0.0,0.0,0.0,0.0,0.0,0.0,0.0,0.0,0.0,0.0,0.0,0.0,0.0,0.0,0.0,0.0,0.0,0.0,0.0,0.0,0.0,0.0,0.0,0.0,0.0,0.0,0.0,0.0,-2.3984,-2.5075,-2.5075,0.0,0.0,0.0,0.0,0.0,0.0,-2.2624,-2.151,0.0,0.0,0.0,0.0,0.0,0.0,0.0,0.0,0.0,0.0,0.0,0.0,0.0,0.0,0.0,0.0,0.0,0.0,0.0,0.0,0.0,0.0,0.0,0.0,0.0,0.0,0.0,0.0,0.0,0.0,0.0,0.0,0.0,0.0,0.0,0.0,0.0,0.0,0.0,0.0,0.0,0.0,0.0,0.0,0.0,0.0,0.0,0.0,0.0,0.0,0.0,0.0,0.0,0.0,0.0,-2.8264,-3.2168,-3.5525,-3.8199,-3.8512,-3.8512,-3.8297,-3.4627,-3.168,0.0,0.0,0.0,0.0,0.0,0.0,0.0,0.0,0.0,0.0,0.0,0.0,0.0,0.0,0.0,0.0,0.0,0.0,0.0,0.0,0.0,0.0,0.0,0.0,0.0,0.0,0.0,0.0,0.0,0.0,0.0,0.0,0.0,0.0,0.0,0.0,0.0,0.0,0.0,0.0,0.0,-2.5933,-2.5933,-2.5796,0.0,0.0,0.0,0.0,-2.5017,-2.4432,0.0,0.0,0.0,0.0,0.0,0.0,0.0,0.0,0.0,0.0,0.0,0.0,0.0,0.0,0.0,0.0,0.0,0.0,0.0,0.0,0.0,0.0,0.0,0.0,0.0,0.0,0.0,0.0,0.0,0.0,0.0,0.0,0.0,0.0,0.0,0.0,0.0,0.0,0.0,0.0,0.0,0.0,0.0,0.0,0.0,0.0,0.0,0.0,0.0,0.0,0.0,0.0,0.0,0.0,0.0,0.0,-2.8166,-3.0997,-3.4022,-3.7282,-3.8199,-3.8238,-3.7458,-3.5467,-3.2871,0.0,0.0,0.0,0.0,0.0,0.0,0.0,0.0,0.0,0.0,0.0,0.0,0.0,0.0,0.0,0.0,0.0,0.0,0.0,0.0,0.0,0.0,0.0,0.0,0.0,0.0,0.0,0.0,0.0,0.0,0.0,0.0,0.0,0.0,0.0,0.0,0.0,0.0,0.0,0.0,0.0,-2.6751,-2.6771,-2.6147,-2.6186,0.0,0.0,-2.5952,-2.753,-2.7043,0.0,0.0,0.0,0.0,0.0,0.0,0.0,0.0,0.0,0.0,0.0,0.0,0.0,0.0,0.0,0.0,0.0,0.0,0.0,0.0,0.0,0.0,0.0,0.0,0.0,0.0,0.0,0.0,0.0,0.0,0.0,0.0,0.0,0.0,0.0,0.0,0.0,0.0,0.0,0.0,0.0,0.0,0.0,0.0,0.0,0.0,0.0,0.0,0.0,0.0,0.0,0.0,0.0,0.0,0.0,-2.4087,-2.8244,-3.1289,-3.4276,-3.7165,-3.7184,-3.7165,-3.7282,-3.4178,-3.1348,0.0,0.0,0.0,0.0,0.0,0.0,0.0,0.0,0.0,0.0,0.0,0.0,0.0,0.0,0.0,0.0,0.0,0.0,0.0,0.0,0.0,0.0,0.0,0.0,0.0,0.0,0.0,0.0,0.0,0.0,0.0,0.0,0.0,0.0,0.0,0.0,0.0,0.0,0.0,0.0,0.0,0.0,-2.7647,-2.7764,0.0,0.0,0.0,-2.7916,-2.8154,0.0,0.0,0.0,0.0,0.0,0.0,0.0,0.0,0.0,0.0,0.0,0.0,0.0,0.0,0.0,0.0,0.0,0.0,0.0,0.0,0.0,0.0,0.0,0.0,0.0,0.0,0.0,0.0,0.0,0.0,0.0,0.0,0.0,0.0,0.0,0.0,0.0,0.0,0.0,0.0,0.0,0.0,0.0,0.0,0.0,0.0,0.0,0.0,0.0,0.0,0.0,0.0,0.0,0.0,0.0,0.0,0.0,-2.8596,-3.1992,-3.4881,-3.7184,-3.6657,-3.6638,-3.7204,-3.3495,0.0,0.0,0.0,0.0,0.0,0.0,0.0,0.0,0.0,0.0,0.0,0.0,0.0,0.0,0.0,0.0,0.0,0.0,0.0,0.0,0.0,0.0,0.0,0.0,0.0,0.0,0.0,-1.3504,0.0,0.0,0.0,0.0,0.0,0.0,0.0,0.0,0.0,0.0,0.0,0.0,0.0,0.0,-2.8598,-2.8812,-2.9596,-3.0005,0.0,0.0,-2.9907,-2.9284,-2.9186,-2.8446,0.0,0.0,0.0,0.0,0.0,0.0,0.0,0.0,0.0,0.0,0.0,0.0,0.0,0.0,0.0,0.0,0.0,0.0,0.0,0.0,0.0,0.0,0.0,0.0,0.0,0.0,0.0,0.0,0.0,0.0,0.0,0.0,0.0,0.0,0.0,0.0,0.0,0.0,0.0,0.0,0.0,0.0,0.0,0.0,0.0,0.0,0.0,0.0,0.0,0.0,0.0,0.0,0.0,0.0,0.0,-2.9457,-3.289,-3.5486,-3.7223,-3.7243,-3.7243,-3.7262,-3.4647,-3.168,0.0,0.0,0.0,0.0,0.0,0.0,0.0,0.0,0.0,0.0,0.0,0.0,0.0,0.0,0.0,0.0,0.0,0.0,0.0,0.0,0.0,0.0,0.0,0.0,0.0,0.0,0.0,0.0,0.0,0.0,0.0,0.0,0.0,0.0,0.0,0.0,0.0,0.0,0.0,0.0,0.0,-2.9708,-3.0507,-3.1369,-3.2192,0.0,0.0,-3.1899,-3.1841,-3.1822,-3.0706,-2.7355,0.0,0.0,0.0,0.0,0.0,0.0,0.0,0.0,0.0,0.0,0.0,0.0,0.0,0.0,0.0,0.0,0.0,0.0,0.0,0.0,0.0,0.0,0.0,0.0,0.0,0.0,0.0,0.0,0.0,0.0,0.0,0.0,0.0,0.0,0.0,0.0,0.0,0.0,0.0,0.0,0.0,0.0,0.0,0.0,0.0,0.0,0.0,0.0,0.0,0.0,0.0,0.0,0.0,-2.5785,-2.9572,-3.3495,-3.6091,-3.7223,-3.7301,-3.7301,-3.7301,-3.4783,-3.2051,0.0,0.0,0.0,0.0,0.0,0.0,0.0,0.0,0.0,0.0,0.0,0.0,0.0,0.0,0.0,0.0,0.0,0.0,0.0,0.0,0.0,0.0,0.0,0.0,0.0,0.0,0.0,0.0,-1.7774,-1.8217,-1.9406,0.0,0.0,0.0,0.0,0.0,0.0,0.0,0.0,0.0,0.0,-3.0799,-3.2206,-3.2694,0.0,0.0,-3.3551,-3.3453,-3.2966,-3.1992,-3.0667,-2.8797,-2.7199,0.0,0.0,0.0,0.0,0.0,0.0,0.0,0.0,0.0,0.0,0.0,0.0,0.0,0.0,0.0,0.0,0.0,0.0,0.0,0.0,0.0,0.0,0.0,0.0,0.0,0.0,0.0,0.0,0.0,0.0,0.0,0.0,0.0,0.0,0.0,0.0,0.0,0.0,0.0,0.0,0.0,0.0,0.0,0.0,0.0,0.0,0.0,0.0,0.0,0.0,0.0,0.0,-2.6351,-3.0333,-3.4334,-3.6911,-3.8024,-3.7809,-3.7692,-3.7614,-3.5154,-3.2578,0.0,0.0,0.0,0.0,0.0,0.0,0.0,0.0,0.0,0.0,0.0,0.0,0.0,0.0,0.0,0.0,0.0,0.0,0.0,0.0,0.0,0.0,0.0,0.0,0.0,0.0,0.0,0.0,-1.947,-1.972,-2.0091,0.0,0.0,0.0,0.0,0.0,0.0,0.0,0.0,0.0,0.0,-3.2109,-3.3551,-3.3979,-3.416,-3.414,-3.4622,-3.4603,-3.3551,-3.2791,-3.1773,-3.0137,0.0,0.0,0.0,0.0,0.0,0.0,0.0,0.0,0.0,0.0,0.0,0.0,0.0,0.0,0.0,0.0,0.0,0.0,0.0,0.0,0.0,0.0,0.0,0.0,0.0,0.0,0.0,-1.912,0.0,0.0,-1.6727,0.0,0.0,0.0,0.0,0.0,0.0,0.0,0.0,0.0,0.0,0.0,0.0,0.0,0.0,0.0,0.0,0.0,0.0,0.0,0.0,0.0,0.0,-2.6937,-3.1973,-3.5486,-3.8082,-3.9644,-3.898,-3.857,-3.8492,-3.6052,-3.3456,-3.0801,0.0,0.0,0.0,0.0,0.0,0.0,0.0,0.0,0.0,0.0,0.0,0.0,0.0,0.0,0.0,0.0,0.0,0.0,0.0,0.0,0.0,0.0,0.0,0.0,0.0,0.0,-1.9231,-2.0002,-2.0149,0.0,0.0,0.0,0.0,0.0,0.0,0.0,0.0,0.0,0.0,-3.2245,-3.3648,-3.4486,-3.5304,-3.5811,-3.585,-3.5889,-3.5324,-3.3765,-3.472,-3.4661,0.0,0.0,0.0,0.0,0.0,0.0,0.0,0.0,0.0,0.0,0.0,0.0,0.0,0.0,0.0,0.0,0.0,0.0,0.0,0.0,0.0,0.0,0.0,0.0,0.0,0.0,0.0,-2.568,-2.4353,0.0,0.0,0.0,0.0,0.0,0.0,0.0,0.0,0.0,0.0,0.0,-3.2988,-3.4724,0.0,0.0,0.0,0.0,0.0,0.0,0.0,0.0,0.0,0.0,0.0,0.0,-2.8088,-3.2051,-3.6091,-3.8687,-3.9761,-3.9546,-3.9136,-3.859,-3.6638,-3.3807,-3.0118,0.0,0.0,0.0,0.0,0.0,0.0,0.0,0.0,0.0,0.0,0.0,0.0,0.0,0.0,0.0,0.0,0.0,0.0,0.0,0.0,0.0,0.0,0.0,0.0,0.0,-1.9195,0.0,0.0,0.0,0.0,0.0,0.0,0.0,0.0,0.0,0.0,0.0,-3.0901,-3.2343,-3.3979,-3.5363,-3.622,-3.6571,-3.696,0.0,0.0,0.0,0.0,0.0,0.0,0.0,0.0,0.0,0.0,0.0,0.0,0.0,0.0,-3.3492,-2.866,-2.7297,-2.684,-2.6549,0.0,0.0,0.0,0.0,0.0,0.0,0.0,0.0,0.0,0.0,0.0,0.0,0.0,0.0,-3.0663,0.0,-2.8418,0.0,0.0,0.0,0.0,0.0,0.0,0.0,0.0,-3.524,-3.7099,-3.7382,-3.9058,-3.8821,0.0,-3.6088,-3.2881,0.0,0.0,0.0,0.0,0.0,0.0,0.0,0.0,-2.975,-3.3437,-3.7126,-3.9409,-4.019,-3.9976,-3.9409,-3.859,-3.6618,-3.41,-3.1016,-2.8693,-2.6663,0.0,0.0,0.0,0.0,0.0,0.0,0.0,0.0,0.0,0.0,0.0,0.0,0.0,0.0,0.0,0.0,0.0,0.0,0.0,0.0,0.0,0.0,0.0,-2.0499,0.0,0.0,0.0,0.0,0.0,0.0,0.0,0.0,0.0,-2.8816,-3.1447,-3.3843,-3.5032,-3.6103,-3.7116,-3.7993,0.0,0.0,0.0,0.0,0.0,0.0,0.0,-3.5772,-3.6279,-3.5012,-3.3999,-3.4213,-3.5675,-3.661,-3.6006,0.0,0.0,-3.2596,-3.1281,-3.0837,-3.0853,-3.1028,-3.1164,-3.1138,-3.1829,-3.2449,0.0,0.0,0.0,0.0,0.0,0.0,0.0,0.0,-3.5294,-3.4897,0.0,-3.3123,0.0,0.0,0.0,0.0,0.0,-3.3964,0.0,0.0,-4.1507,-4.3216,-4.2454,-4.2474,-4.2045,-4.1303,-4.1927,-4.0151,-3.5916,-2.9455,0.0,0.0,0.0,0.0,0.0,0.0,-3.1797,-3.5916,-3.8492,-4.021,-4.103,-4.0268,-3.9449,-3.857,-3.615,-3.4393,-3.3437,-3.1738,-2.9318,-2.6019,-2.4126,0.0,0.0,0.0,0.0,0.0,0.0,0.0,0.0,0.0,0.0,0.0,0.0,0.0,0.0,0.0,0.0,0.0,0.0,0.0,0.0,-2.085,0.0,0.0,0.0,0.0,0.0,0.0,0.0,0.0,0.0,0.0,-3.2582,-3.4525,-3.6629,-3.8285,0.0,0.0,0.0,0.0,-3.8636,-3.8714,-3.8694,-3.8422,-3.7623,-3.8772,-3.926,-3.7701,0.0,0.0,-3.6551,-3.7506,-3.811,-3.6415,-3.7564,-3.8558,-3.8461,-3.6833,-3.5755,-3.5709,-3.5049,-3.4611,-3.4575,-3.5049,-3.564,-4.0888,0.0,0.0,0.0,0.0,-3.7561,-3.9208,-4.2188,-4.1334,-4.0274,-3.9129,-3.8663,0.0,0.0,0.0,0.0,0.0,0.0,-3.8031,-4.0042,-4.1911,-4.3294,-4.425,-4.4894,-4.4738,-4.3879,-4.3509,-4.2376,-4.0483,-3.7321,-3.2714,-2.6937,0.0,0.0,0.0,0.0,-3.3827,-3.6833,-3.8824,-4.0229,-4.1088,-4.0854,-4.0054,-3.8629,-3.7262,-3.5857,-3.4374,-3.3261,-3.1641,-2.9416,-2.6546,0.0,0.0,0.0,0.0,0.0,0.0,0.0,0.0,0.0,0.0,0.0,0.0,0.0,0.0,0.0,0.0,0.0,0.0,0.0,-2.1815,-2.1891,-2.2901,0.0,0.0,0.0,0.0,0.0,0.0,0.0,0.0,0.0,-3.8383,-3.8597,-3.887,0.0,0.0,-4.1091,-4.0779,-4.0994,-4.1442,-4.2046,-4.2143,0.0,-4.1812,-4.1188,-4.0974,-4.1656,-4.2202,-4.2046,-4.0701,-4.0896,-4.0877,-3.9786,-3.9981,-4.0271,-4.0193,-3.8863,-3.7732,-3.7572,-3.7365,-3.7201,-3.7168,-3.734,-3.7475,-4.5705,-4.1548,-4.0364,-4.0946,-4.2636,-4.2177,-4.3646,-4.6254,-4.5091,-4.42,-4.3528,-4.2827,-4.0762,-3.7727,-3.7589,0.0,0.0,0.0,-4.0854,-4.2689,-4.3548,-4.4504,-4.5519,-4.6046,-4.6027,-4.55,-4.4992,-4.4289,-4.343,-4.2376,-3.8824,-3.3046,0.0,0.0,-3.2441,-3.4432,-3.6579,-3.8726,-3.98,-4.0581,-4.1069,-4.0756,-3.9956,-3.8648,-3.775,-3.6638,-3.5252,-3.4393,-3.3261,-3.1875,-2.9201,-2.6878,0.0,0.0,0.0,0.0,0.0,0.0,0.0,0.0,0.0,0.0,0.0,-1.8405,0.0,0.0,0.0,0.0,-2.0937,-2.3118,-2.4949,-2.5879,0.0,0.0,0.0,0.0,0.0,0.0,0.0,-3.7214,-3.926,-4.0916,-4.1948,-4.1929,-4.1812,-4.1812,-4.2416,-4.2767,-4.2611,0.0,-4.3,-4.3526,-4.3617,-4.3617,-4.3598,-4.2767,-4.2429,-4.3422,-4.3617,-4.3442,-4.2935,-4.2818,-4.2643,-4.2174,-4.2004,-4.1999,-4.2002,-4.0829,-3.9723,-3.9364,-3.9286,-3.927,-3.9224,-3.9224,-3.9224,-4.9726,-4.8852,-4.7181,-4.6832,-4.7406,-4.7473,-4.7934,-4.8565,-4.705,-4.6839,-4.746,-4.5898,-4.4313,-4.2708,-4.1069,0.0,-4.1576,-4.3177,-4.4309,-4.5129,-4.5929,-4.63,-4.63,-4.63,-4.63,-4.628,-4.63,-4.589,-4.5129,-4.507,-4.3469,-4.0346,-3.8785,-3.8258,-3.8687,-3.8827,-3.9705,-4.1283,-4.1303,-4.1264,-4.1186,-4.0346,-3.9488,-3.8629,-3.775,-3.6852,-3.5935,-3.5057,-3.4198,-3.3319,-3.1699,-2.9338,-2.6175,0.0,0.0,0.0,0.0,0.0,0.0,0.0,0.0,0.0,0.0,0.0,0.0,0.0,0.0,0.0,-2.5359,0.0,-2.8622,-3.1538,0.0,0.0,0.0,-3.5383,-3.6411,-3.8589,-4.0045,-4.0175,0.0,0.0,-4.3792,-4.4501,-4.4988,-4.5007,-4.4306,-4.4052,-4.4812,-4.4247,-4.3792,-4.3909,-4.3838,-4.3838,-4.3994,-4.3858,-4.3838,-4.3955,-4.3812,-4.387,-4.3714,-4.3676,-4.3661,-4.3419,-4.3469,-4.3451,-4.3461,-4.2632,-4.1939,-4.1125,-4.0858,-4.0752,-4.0674,-4.0636,-4.0616,-5.2678,-5.2387,-5.1319,-4.9901,-4.8308,-4.8321,-4.8448,-4.8594,-4.8253,-4.8226,-4.8382,-4.8046,-4.732,-4.6319,-4.5246,-4.4875,-4.509,-4.55,-4.5792,-4.6007,-4.6202,-4.63,-4.63,-4.63,-4.63,-4.63,-4.63,-4.6202,-4.6007,-4.5987,-4.5578,-4.4777,-4.4348,-4.2611,-3.9683,-4.0834,-4.2006,-4.3079,-4.3079,-4.2767,-4.2084,-4.1244,-4.0093,-3.8648,-3.775,-3.6579,-3.5057,-3.4178,-3.33,-3.2441,-3.1387,-3.0157,-2.8732,-2.557,0.0,0.0,0.0,0.0,0.0,0.0,0.0,0.0,0.0,-2.5119,-2.1273,0.0,-2.6273,0.0,-2.8684,-3.0781,-3.2923,-3.3317,0.0,0.0,-3.7862,-3.87,-4.1442,-4.1734,-4.2221,-4.3526,-4.4228,-4.4851,-4.5494,-4.5767,-4.5884,-4.5884,-4.5709,-4.5436,-4.4988,-4.5338,-4.5592,-4.5553,-4.5514,-4.5572,-4.5514,-4.5572,-4.5514,-4.5592,-4.5572,-4.5331,-4.4639,-4.4514,-4.4284,-4.3666,-4.346,-4.3438,-4.3474,-4.3175,-4.2983,-4.2654,-4.1712,-4.079,-4.079,-4.081,-4.079,-5.372,-5.3669,-5.3164,-5.2154,-5.0814,-5.0072,-4.9742,-4.9732,-4.9432,-4.9298,-4.9309,-4.8944,-4.856,-4.8096,-4.7627,-4.7198,-4.6885,-4.6885,-4.6671,-4.6319,-4.63,-4.63,-4.63,-4.63,-4.63,-4.63,-4.63,-4.63,-4.63,-4.63,-4.63,-4.63,-4.63,-4.509,-4.2825,-4.3274,-4.3801,-4.425,-4.3899,-4.3274,-4.2415,-4.1927,-4.0698,-3.8668,-3.8141,-3.7067,-3.533,-3.4432,-3.3573,-3.2695,-3.1485,-3.0606,-3.0118,-2.76,-2.6134,0.0,0.0,0.0,0.0,0.0,0.0,0.0,0.0,0.0,0.0,0.0,-2.9201,-3.047,-3.3149,-3.5401,-3.6844,-3.7898,-3.9343,-4.1305,-4.1753,-4.2533,-4.4033,-4.4091,-4.4403,-4.5358,-4.5475,-4.565,-4.6137,-4.6196,-4.6196,-4.6196,-4.6196,-4.602,-4.5611,-4.5923,-4.6196,-4.6196,-4.6196,-4.6196,-4.6196,-4.6196,-4.6196,-4.6154,-4.6154,-4.5963,-4.5433,-4.5327,-4.5172,-4.4683,-4.4533,-4.4497,-4.4473,-4.4124,-4.3885,-4.3711,-4.2841,-4.1874,-4.1409,-4.1042,-4.079,-5.4019,-5.4019,-5.3902,-5.3856,-5.3763,-5.2211,-5.1483,-5.1328,-5.0523,-5.0207,-5.0194,-4.9338,-4.8954,-4.8954,-4.8857,-4.8408,-4.7764,-4.7744,-4.7276,-4.6495,-4.6456,-4.6417,-4.63,-4.63,-4.63,-4.63,-4.63,-4.63,-4.63,-4.63,-4.63,-4.63,-4.63,-4.63,-4.6261,-4.5558,-4.5168,-4.5148,-4.4309,-4.3509,-4.2747,-4.2533,-4.1225,-3.8882,-3.8531,-3.7555,-3.5759,-3.5057,-3.4295,-3.3417,-3.2048,-3.1309,-3.127,-2.9708,-2.8732,0.0,-2.7913,0.0,0.0,0.0,0.0,0.0,0.0,0.0,0.0,-3.1948,-3.2865,-3.427,-3.7979,-4.0326,-4.0423,-4.3136,-4.4637,-4.4052,-4.528,-4.5903,-4.5202,-4.5748,-4.6196,-4.6196,-4.6196,-4.6196,-4.6196,-4.6196,-4.6196,-4.6196,-4.6196,-4.6176,-4.6169,-4.6176,-4.6196,-4.6196,-4.6196,-4.6189,-4.6189,-4.6181,-4.6146,-4.6122,-4.6093,-4.6075,-4.5958,-4.5947,-4.5936,-4.5859,-4.5776,-4.5783,-4.5814,-4.52,-4.4775,-4.4736,-4.402,-4.315,-4.2376,-4.1719,-4.11,-5.5806,-5.5728,-5.5029,-5.4797,-5.4751,-5.3793,-5.2955,-5.2204,-5.1467,-5.1151,-5.1093,-5.0246,-4.9852,-4.9794,-4.9111,-4.8701,-4.8564,-4.8564,-4.8135,-4.7354,-4.7354,-4.6983,-4.6319,-4.63,-4.63,-4.63,-4.63,-4.63,-4.63,-4.63,-4.63,-4.63,-4.63,-4.63,-4.63,0.0,0.0,0.0,-4.5187,-4.466,-4.4465,-4.3138,-4.1518,-3.9624,-3.8258,0.0,-3.4081,-3.4393,-3.4295,-3.3476,-3.3749,0.0,0.0,0.0,0.0,0.0,0.0,0.0,0.0,0.0,0.0,0.0,-3.4822,-3.4309,-3.5022,-3.8174,-4.0047,-3.9754,-4.1632,-4.3181,-4.3863,-4.4494,-4.5124,-4.567,-4.602,-4.6137,-4.5962,-4.6098,-4.6196,-4.6196,-4.6196,-4.6196,-4.6196,-4.6196,-4.6196,-4.6196,-4.6196,-4.6181,-4.613,-4.6162,-4.6196,-4.6196,-4.6166,-4.6111,-4.6111,-4.6075,-4.6047,-4.6065,-4.6047,-4.5997,-4.5941,-4.591,-4.5886,-4.5841,-4.5808,-4.5827,-4.5814,-4.5664,-4.5529,-4.5568,-4.491,-4.4098,-4.3247,-4.2957,-4.2628,-5.6311,-5.6253,-5.5825,-5.5668,0.0,-5.4833,-5.4211,-5.3702,-5.2538,-5.1801,-5.1375,-5.0926,-5.0731,-5.0731,-5.0282,-4.9852,-4.9442,-4.9442,-4.8993,-4.8174,-4.7783,-4.7354,-4.6924,-4.6495,-4.63,-4.63,-4.63,-4.63,-4.63,-4.63,-4.63,-4.63,-4.63,-4.63,-4.63,-4.63,-4.63,-4.63,-4.587,-4.5441,-4.4992,-4.4133,-4.265,-4.0522,-3.9624,0.0,0.0,0.0,0.0,0.0,0.0,0.0,0.0,0.0,0.0,-3.4627,-3.4647,-3.4842,-3.5232,-3.5662,-3.7028,-3.9605,-4.018,-3.986,-3.8631,-4.1647,-4.347,-4.3066,-4.4161,-4.5072,-4.5481,-4.5547,-4.5709,-4.6157,-4.6196,-4.6196,-4.6196,-4.6196,-4.6196,-4.6196,-4.6196,-4.6196,-4.6196,-4.6196,-4.6196,-4.6196,-4.6196,-4.6181,-4.613,-4.6138,-4.6146,-4.6102,-4.6084,-4.6066,-4.6037,-4.6017,-4.5997,-4.5997,-4.5975,-4.591,-4.5848,-4.5835,-4.5841,-4.5814,-4.58,-4.58,-4.58,-4.58,-4.58,-4.578,-4.5471,-4.5084,-4.4562,-4.3904,-4.3189,-5.6447,-5.6311,-5.6297,-5.6302,-5.6258,-5.5619,-5.5271,-5.5026,0.0,0.0,0.0,-5.1472,-5.1394,-5.1394,-5.1394,-5.1004,-5.034,-5.0321,-4.9872,-4.8993,-4.8349,-4.7959,-4.7764,-4.6944,-4.6534,-4.6515,-4.6358,-4.63,-4.63,-4.63,-4.63,-4.63,-4.63,-4.63,-4.63,-4.63,-4.63,-4.63,-4.63,-4.5948,-4.5246,-4.507,-4.3899,-4.1596,-4.1244,-4.0307,-3.8668,-3.8043,-3.736,-3.6501,-3.5896,-3.5935,-3.6618,-3.6677,-3.7301,-3.8687,-3.9097,-3.9566,-4.0207,-4.0405,-4.1166,-4.2767,-4.427,-4.4178,-4.1944,-4.3826,-4.5142,-4.5142,-4.5799,-4.6203,-4.6203,-4.6209,-4.6196,-4.6196,-4.6196,-4.6196,-4.6196,-4.6196,-4.6196,-4.6196,-4.6196,-4.6196,-4.6196,-4.6196,-4.6196,-4.6196,-4.6189,-4.6146,-4.6084,-4.6056,-4.6066,-4.5977,-4.5986,-4.5986,-4.5986,-4.5944,-4.5953,-4.591,-4.5905,-4.5867,-4.5827,-4.58,-4.58,-4.58,-4.58,-4.58,-4.58,-4.58,-4.58,-4.58,-4.58,-4.58,-4.5684,-4.4736,-4.3808,-5.6971,-5.6304,-5.631,-5.6332,-5.6372,-5.6319,-5.5897,-5.514,-5.3451,-5.2624,-5.2468,-5.1726,-5.1394,-5.1394,-5.1394,-5.1336,-5.1219,-5.1219,-5.075,-4.993,-4.9794,-4.9345,-4.8603,-4.7803,-4.7412,-4.7354,-4.6651,-4.63,-4.63,-4.63,-4.63,-4.63,-4.63,-4.63,-4.63,-4.63,-4.63,-4.63,-4.63,-4.6241,-4.6105,-4.5382,-4.4484,-4.3352,-4.1888,-4.031,-3.8687,-3.9175,-3.9078,-3.8297,-3.8785,-3.9136,-3.9253,-3.9273,-3.937,-3.9683,-4.1049,-4.1924,-4.205,-4.2744,-4.3587,-4.4563,-4.5479,-4.5538,-4.4532,-4.5371,-4.6027,-4.6008,-4.6125,-4.6203,-4.6203,-4.6203,-4.6196,-4.6196,-4.6196,-4.6196,-4.6196,-4.6196,-4.6196,-4.6196,-4.6196,-4.6196,-4.6196,-4.6196,-4.6196,-4.6196,-4.6138,-4.6056,-4.5986,-4.5986,-4.5986,-4.5941,-4.5898,-4.5898,-4.5898,-4.588,-4.5867,-4.5905,-4.5835,-4.5827,-4.5814,-4.58,-4.58,-4.58,-4.58,-4.58,-4.58,-4.58,-4.58,-4.58,-4.58,-4.58,-4.58,-4.5471,-4.5142,-5.7371,-5.6942,-5.6485,-5.6335,-5.6395,-5.6461,-5.6323,-5.5903,-5.4654,-5.3834,-5.3346,-5.2487,-5.2097,-5.2058,-5.1609,-5.1394,-5.1394,-5.1394,-5.118,-5.077,-5.0301,-4.9891,-4.9442,-4.8662,-4.8017,-4.7588,-4.7198,-4.6768,-4.6339,-4.63,-4.63,-4.63,-4.63,-4.63,-4.63,-4.63,-4.63,-4.63,-4.63,-4.63,-4.63,-4.5909,-4.5285,-4.4426,-4.3587,-4.265,-4.142,-4.1713,-4.1732,-4.1381,-4.1713,-4.1927,-4.1927,-4.1927,-4.1924,-4.194,-4.2662,-4.3298,-4.3734,-4.4562,-4.5226,-4.565,-4.5986,-4.6033,-4.5625,-4.5969,-4.6196,-4.6196,-4.6196,-4.6196,-4.6196,-4.6196,-4.6196,-4.6196,-4.6196,-4.6196,-4.6196,-4.6196,-4.6196,-4.6196,-4.6196,-4.6196,-4.6196,-4.6196,-4.6189,-4.6146,-4.6066,-4.5975,-4.5898,-4.5886,-4.5893,-4.5848,-4.5835,-4.5854,-4.5854,-4.5827,-4.5827,-4.5835,-4.5827,-4.58,-4.58,-4.58,-4.58,-4.58,-4.58,-4.58,-4.58,-4.58,-4.58,-4.58,-4.58,-4.58,-4.58,-4.58,-4.5664,-5.8059,-5.7808,-5.6991,-5.6558,-5.6456,-5.6504,-5.6554,-5.6528,-5.5884,-5.5201,-5.4478,-5.3268,-5.2702,-5.2605,-5.1804,-5.1394,-5.1394,-5.1394,-5.1394,-5.1316,-5.0711,-5.0399,-5.0282,-4.9501,-4.8662,-4.792,-4.7705,-4.7159,-4.6397,-4.63,-4.63,-4.63,-4.63,-4.63,-4.63,-4.63,-4.63,-4.63,-4.63,-4.63,-4.63,-4.63,-4.5987,-4.5343,-4.509,-4.466,-4.4036,-4.3801,-4.3704,-4.3704,-4.3704,-4.3704,-4.3704,-4.3879,-4.3993,-4.4001,-4.4177,-4.4543,-4.5153,-4.5811,-4.6201,-4.6209,-4.6209,-4.6196,-4.6209,-4.6203,-4.6196,-4.6196,-4.6196,-4.6196,-4.6196,-4.6196,-4.6196,-4.6196,-4.6196,-4.6196,-4.6196,-4.6196,-4.6196,-4.6196,-4.6196,-4.6196,-4.6189,-4.6189,-4.6146,-4.6066,-4.5964,-4.5905,-4.5861,-4.5822,-4.5814,-4.58,-4.58,-4.5814,-4.58,-4.58,-4.58,-4.58,-4.58,-4.58,-4.58,-4.58,-4.58,-4.58,-4.58,-4.58,-4.58,-4.58,-4.58,-4.58,-4.58,-4.58,-4.58,-4.58,-4.58,-5.9484,-5.8738,-5.7952,-5.7245,-5.6602,-5.6595,-5.6591,-5.6606,-5.6489,-5.645,-5.604,-5.3776,-5.2741,-5.2585,-5.1804,-5.1433,-5.1394,-5.1394,-5.1394,-5.1394,-5.1316,-5.1277,-5.116,-5.0379,-4.954,-4.8681,-4.7978,-4.7237,-4.6417,-4.6319,-4.63,-4.63,-4.63,-4.63,-4.63,-4.63,-4.63,-4.63,-4.63,-4.63,-4.63,-4.63,-4.6261,-4.6183,-4.5402,-4.4972,-4.4875,-4.4133,-4.3723,-4.3704,-4.3762,-4.3723,-4.3821,-4.4445,-4.4868,-4.4899,-4.5601,-4.6084,-4.6069,-4.6176,-4.6209,-4.6201,-4.6209,-4.6203,-4.6203,-4.6209,-4.6196,-4.6196,-4.6196,-4.6196,-4.6196,-4.6196,-4.6196,-4.6196,-4.6196,-4.6196,-4.6196,-4.6196,-4.6196,-4.6196,-4.6196,-4.6169,-4.6119,-4.6102,-4.6047,-4.5964,-4.5898,-4.588,-4.5822,-4.5814,-4.58,-4.58,-4.58,-4.58,-4.58,-4.58,-4.58,-4.58,-4.58,-4.58,-4.58,-4.58,-4.58,-4.58,-4.58,-4.58,-4.58,-4.58,-4.58,-4.58,-4.58,-4.58,-4.58,-4.58,-4.58,-6.0015,-5.9608,-5.8337,-5.7339,-5.6645,-5.6606,-5.6606,-5.6606,-5.6606,-5.6606,-5.6411,-5.4927,-5.3951,-5.3424,-5.2546,-5.1902,-5.1414,-5.1394,-5.1394,-5.1394,-5.1394,-5.1394,-5.1355,-5.1043,-5.0418,-4.954,-4.872,-4.7881,-4.71,-4.6554,-4.63,-4.63,-4.63,-4.63,-4.63,-4.63,-4.63,-4.63,-4.63,-4.63,-4.63,-4.63,-4.63,-4.6261,-4.5948,-4.5773,-4.5734,-4.5402,-4.5242,-4.5238,-4.5238,-4.5219,-4.5238,-4.5523,-4.5714,-4.5728,-4.6025,-4.6228,-4.6203,-4.6216,-4.6209,-4.6203,-4.6216,-4.6209,-4.6209,-4.6203,-4.6196,-4.6196,-4.6196,-4.6196,-4.6196,-4.6196,-4.6196,-4.6196,-4.6196,-4.6196,-4.6196,-4.6196,-4.6196,-4.6196,-4.6196,-4.6181,-4.6102,-4.6027,-4.5975,-4.5905,-4.5861,-4.5841,-4.5814,-4.58,-4.58,-4.58,-4.58,-4.58,-4.58,-4.58,-4.58,-4.58,-4.58,-4.58,-4.58,-4.58,-4.58,-4.58,-4.58,-4.58,-4.58,-4.58,-4.58,-4.58,-4.58,-4.58,-4.58,-4.58,-4.58,-6.0616,-6.039,-5.8866,-5.7684,-5.6918,-5.6684,-5.6606,-5.6606,-5.6606,-5.6606,-5.6547,-5.5923,-5.5162,-5.4264,-5.321,-5.2331,-5.1785,-5.1511,-5.1394,-5.1394,-5.1394,-5.1394,-5.1394,-5.1394,-5.0945,-5.0126,-4.9462,-4.8603,-4.7608,-4.6729,-4.63,-4.63,-4.63,-4.63,-4.63,-4.63,-4.63,-4.63,-4.63,-4.63,-4.63,-4.63,-4.63,-4.63,-4.63,-4.63,-4.63,-4.63,-4.6296,-4.6284,-4.6303,-4.6303,-4.6279,-4.6231,-4.6206,-4.6201,-4.6196,-4.6196,-4.6196,-4.6196,-4.6196,-4.6196,-4.6196,-4.6196,-4.6196,-4.6196,-4.6196,-4.6196,-4.6196,-4.6196,-4.6196,-4.6196,-4.6196,-4.6196,-4.6196,-4.6196,-4.6196,-4.6196,-4.6196,-4.6196,-4.6189,-4.6138,-4.6056,-4.5953,-4.588,-4.5848,-4.5841,-4.58,-4.58,-4.58,-4.58,-4.58,-4.58,-4.58,-4.58,-4.58,-4.58,-4.58,-4.58,-4.58,-4.58,-4.58,-4.58,-4.58,-4.58,-4.58,-4.58,-4.58,-4.58,-4.58,-4.58,-4.58,-4.58,-4.58,-4.58,-6.1543,-6.1269,-5.9729,-5.8504,-5.768,-5.6918,-5.6606,-5.6606,-5.6606,-5.6606,-5.6606,-5.6528,-5.6059,-5.5142,-5.358,-5.2702,-5.2507,-5.1765,-5.1394,-5.1394,-5.1394,-5.1394,-5.1394,-5.1394,-5.0965,-5.0243,-5.0008,-4.913,-4.7627,-4.6768,-4.63,-4.63,-4.63,-4.63,-4.63,-4.63,-4.63,-4.63,-4.63,-4.63,-4.63,-4.63,-4.63,-4.63,-4.63,-4.63,-4.63,-4.63,-4.6296,-4.6284,-4.6284,-4.626,-4.6211,-4.6206,-4.6201,-4.6203,-4.6209,-4.6196,-4.6196,-4.6196,-4.6196,-4.6196,-4.6196,-4.6196,-4.6196,-4.6196,-4.6196,-4.6196,-4.6196,-4.6196,-4.6196,-4.6196,-4.6196,-4.6196,-4.6196,-4.6196,-4.6196,-4.6196,-4.6196,-4.6189,-4.6138,-4.6066,-4.5941,-4.5854,-4.5827,-4.5814,-4.5814,-4.58,-4.58,-4.58,-4.58,-4.58,-4.58,-4.58,-4.58,-4.58,-4.58,-4.58,-4.58,-4.58,-4.58,-4.58,-4.58,-4.58,-4.58,-4.58,-4.58,-4.58,-4.58,-4.58,-4.58,-4.58,-4.58,-4.58,-4.58,-6.1287,-6.0728,-5.9577,-5.8616,-5.7738,-5.6938,-5.6606,-5.6606,-5.6606,-5.6606,-5.6606,-5.6606,-5.6411,-5.6059,-5.4908,-5.3756,-5.2683,-5.1785,-5.1394,-5.1394,-5.1394,-5.1394,-5.1394,-5.1394,-5.1258,-5.0906,-5.036,-4.9247,-4.7744,-4.7256,-4.6846,-4.6358,-4.63,-4.63,-4.63,-4.63,-4.63,-4.63,-4.63,-4.63,-4.63,-4.6296,-4.6292,-4.63,-4.63,-4.63,-4.63,-4.6296,-4.6284,-4.6236,-4.6226,-4.622,-4.6215,-4.6215,-4.6203,-4.6209,-4.6203,-4.6196,-4.6196,-4.6196,-4.6196,-4.6196,-4.6196,-4.6196,-4.6196,-4.6196,-4.6196,-4.6196,-4.6196,-4.6196,-4.6196,-4.6196,-4.6196,-4.6196,-4.6196,-4.6196,-4.6196,-4.6196,-4.6189,-4.6138,-4.6056,-4.5953,-4.5917,-4.5854,-4.5814,-4.58,-4.58,-4.58,-4.58,-4.58,-4.58,-4.58,-4.58,-4.58,-4.58,-4.58,-4.58,-4.58,-4.58,-4.58,-4.58,-4.58,-4.58,-4.58,-4.58,-4.58,-4.58,-4.58,-4.58,-4.58,-4.58,-4.58,-4.58,-4.58,-4.58,-6.1316,-6.0686,-5.9573,-5.8753,-5.8109,-5.7055,-5.6606,-5.6606,-5.6606,-5.6606,-5.6606,-5.6606,-5.6606,-5.645,-5.5689,-5.4517,-5.3112,-5.2214,-5.1668,-5.1414,-5.1394,-5.1394,-5.1394,-5.1394,-5.1394,-5.1258,-5.0516,-4.9462,-4.8447,-4.7861,-4.7295,-4.6768,-4.6456,-4.63,-4.63,-4.63,-4.63,-4.63,-4.63,-4.63,-4.63,-4.6292,-4.6288,-4.63,-4.6296,-4.6296,-4.6296,-4.6288,-4.6275,-4.6201,-4.6209,-4.6203,-4.6196,-4.6196,-4.6209,-4.6196,-4.6196,-4.6196,-4.6196,-4.6196,-4.6196,-4.6196,-4.6196,-4.6196,-4.6196,-4.6196,-4.6196,-4.6196,-4.6196,-4.6196,-4.6196,-4.6196,-4.6196,-4.6196,-4.6196,-4.6196,-4.6196,-4.6189,-4.613,-4.6037,-4.5944,-4.5886,-4.5861,-4.5822,-4.5814,-4.58,-4.58,-4.58,-4.58,-4.58,-4.58,-4.58,-4.58,-4.58,-4.58,-4.58,-4.58,-4.58,-4.58,-4.58,-4.58,-4.58,-4.58,-4.58,-4.58,-4.58,-4.58,-4.58,-4.58,-4.58,-4.58,-4.58,-4.58,-4.58,-4.58,-6.1681,-6.1388,-5.9846,-5.9085,-5.8773,-5.727,-5.6606,-5.6606,-5.6606,-5.6606,-5.6606,-5.6606,-5.6606,-5.645,-5.5806,-5.4849,-5.3971,-5.3112,-5.2214,-5.1453,-5.1394,-5.1394,-5.1394,-5.1394,-5.1394,-5.1375,-5.0555,-5.0126,-4.9833,-4.8545,-4.7764,-4.7432,-4.6749,-4.6397,-4.63,-4.63,-4.63,-4.63,-4.63,-4.63,-4.63,-4.6288,-4.6288,-4.6296,-4.6288,-4.6284,-4.6284,-4.6284,-4.6255,-4.6209,-4.6203,-4.6196,-4.6203,-4.6203,-4.6196,-4.6196,-4.6196,-4.6196,-4.6196,-4.6196,-4.6196,-4.6196,-4.6196,-4.6196,-4.6196,-4.6196,-4.6196,-4.6196,-4.6196,-4.6196,-4.6196,-4.6196,-4.6196,-4.6196,-4.6196,-4.6196,-4.6189,-4.6138,-4.6076,-4.603,-4.6041,-4.5919,-4.5866,-4.5949,-4.5974,-4.5838,-4.58,-4.58,-4.58,-4.58,-4.58,-4.58,-4.58,-4.58,-4.58,-4.58,-4.58,-4.58,-4.58,-4.58,-4.58,-4.58,-4.58,-4.58,-4.58,-4.58,-4.58,-4.58,-4.58,-4.58,-4.58,-4.58,-4.58,-4.58,-4.58,-6.1701,-6.1486,-5.9827,-5.9124,-5.887,-5.7328,-5.6606,-5.6606,-5.6606,-5.6606,-5.6606,-5.6606,-5.6606,-5.6567,-5.6294,-5.5708,-5.4849,-5.3971,-5.2819,-5.1609,-5.1394,-5.1394,-5.1394,-5.1394,-5.1394,-5.1355,-5.1141,-5.0672,-5.0106,-4.954,-4.8798,-4.7744,-4.7354,-4.6885,-4.6358,-4.63,-4.63,-4.63,-4.63,-4.6296,-4.6288,-4.626,-4.6236,-4.6236,-4.6226,-4.622,-4.624,-4.6245,-4.6226,-4.6203,-4.6216,-4.6203,-4.6203,-4.6196,-4.6196,-4.6196,-4.6196,-4.6196,-4.6196,-4.6196,-4.6196,-4.6196,-4.6196,-4.6196,-4.6196,-4.6196,-4.6196,-4.6196,-4.6196,-4.6196,-4.6196,-4.6196,-4.6196,-4.6196,-4.6196,-4.6189,-4.6111,-4.6066,-4.6255,-4.6712,-4.6758,-4.6718,-4.6684,-4.667,-4.6419,-4.5935,-4.5838,-4.58,-4.58,-4.58,-4.58,-4.58,-4.58,-4.58,-4.58,-4.58,-4.58,-4.58,-4.58,-4.58,-4.58,-4.58,-4.58,-4.58,-4.58,-4.58,-4.58,-4.58,-4.58,-4.58,-4.58,-4.58,-4.58,-4.58,-4.58,-6.1701,-6.1505,-5.9807,-5.9124,-5.8909,-5.7309,-5.6606,-5.6606,-5.6606,-5.6606,-5.6606,-5.6606,-5.6606,-5.6606,-5.6606,-5.6098,-5.5279,-5.44,-5.3249,-5.196,-5.1492,-5.1394,-5.1394,-5.1394,-5.1394,-5.1394,-5.1394,-5.1121,-5.0594,-5.0223,-4.9556,-4.8662,-4.7939,-4.7354,-4.6768,-4.6456,-4.63,-4.6296,-4.6296,-4.6288,-4.626,-4.6226,-4.6201,-4.6206,-4.6215,-4.6203,-4.6203,-4.6215,-4.6209,-4.6196,-4.6203,-4.6196,-4.6196,-4.6196,-4.6196,-4.6196,-4.6196,-4.6196,-4.6196,-4.6196,-4.6196,-4.6196,-4.6196,-4.6196,-4.6196,-4.6196,-4.6196,-4.6196,-4.6196,-4.6196,-4.6196,-4.6196,-4.6196,-4.6196,-4.6196,-4.6154,-4.6095,-4.6266,-4.6545,-4.7068,-4.7376,-4.7536,-4.756,-4.7192,-4.6941,-4.6361,-4.5993,-4.58,-4.58,-4.58,-4.58,-4.58,-4.58,-4.58,-4.58,-4.58,-4.58,-4.58,-4.58,-4.58,-4.58,-4.58,-4.58,-4.58,-4.58,-4.58,-4.58,-4.58,-4.58,-4.58,-4.58,-4.58,-4.58,-4.58,-4.58,-6.1701,-6.1486,-5.9827,-5.9124,-5.889,-5.7309,-5.6606,-5.6606,-5.6606,-5.6606,-5.6606,-5.6606,-5.6606,-5.6606,-5.6606,-5.6177,-5.5337,-5.4381,-5.36,-5.2683,-5.1902,-5.1394,-5.1394,-5.1394,-5.1394,-5.1394,-5.1394,-5.1375,-5.1219,-5.0633,-5.0145,-4.9774,-4.8584,-4.7666,-4.7412,-4.6749,-4.6413,-4.6308,-4.6303,-4.6279,-4.6206,-4.6215,-4.6209,-4.6201,-4.6209,-4.6203,-4.6203,-4.6203,-4.6196,-4.6203,-4.6196,-4.6196,-4.6196,-4.6196,-4.6196,-4.6196,-4.6196,-4.6196,-4.6196,-4.6196,-4.6196,-4.6196,-4.6196,-4.6196,-4.6196,-4.6196,-4.6196,-4.6196,-4.6196,-4.6196,-4.6196,-4.6196,-4.6196,-4.6176,-4.6162,-4.6111,-4.6095,-4.6639,-4.7088,-4.7356,-4.7889,-4.843,-4.8314,-4.7676,-4.725,-4.6728,-4.6187,-4.5896,-4.58,-4.58,-4.58,-4.58,-4.58,-4.58,-4.58,-4.58,-4.58,-4.58,-4.58,-4.58,-4.58,-4.58,-4.58,-4.58,-4.58,-4.58,-4.58,-4.58,-4.58,-4.58,-4.58,-4.58,-4.58,-4.58,-4.58,-6.1701,-6.1505,-5.9827,-5.9124,-5.887,-5.7309,-5.6606,-5.6606,-5.6606,-5.6606,-5.6606,-5.6606,-5.6606,-5.6606,-5.6606,-5.645,-5.5903,-5.4654,-5.3932,-5.3444,-5.2058,-5.1453,-5.1394,-5.1394,-5.1394,-5.1394,-5.1394,-5.1394,-5.1375,-5.1121,-5.0692,-5.0106,-4.9618,-4.8759,-4.7764,-4.7373,-4.6897,-4.6381,-4.6303,-4.6275,-4.6215,-4.6209,-4.6203,-4.6209,-4.6209,-4.6203,-4.6203,-4.6203,-4.6203,-4.6196,-4.6196,-4.6196,-4.6196,-4.6196,-4.6196,-4.6196,-4.6196,-4.6196,-4.6196,-4.6196,-4.6196,-4.6196,-4.6196,-4.6196,-4.6196,-4.6196,-4.6196,-4.6196,-4.6196,-4.6196,-4.6196,-4.6196,-4.6181,-4.6138,-4.6093,-4.6056,-4.6122,-4.6661,-4.7342,-4.8005,-4.8759,-4.8856,-4.8508,-4.8082,-4.7482,-4.6554,-4.6032,-4.58,-4.58,-4.58,-4.58,-4.58,-4.58,-4.58,-4.58,-4.58,-4.58,-4.58,-4.58,-4.58,-4.58,-4.58,-4.58,-4.58,-4.58,-4.58,-4.58,-4.58,-4.58,-4.58,-4.58,-4.58,-4.58,-4.58,-4.58,-6.1701,-6.1544,-5.9827,-5.9124,-5.889,-5.7309,-5.6606,-5.6606,-5.6606,-5.6606,-5.6606,-5.6606,-5.6606,-5.6606,-5.6606,-5.6606,-5.6352,-5.4791,-5.4029,-5.3698,-5.2195,-5.1453,-5.1394,-5.1394,-5.1394,-5.1394,-5.1394,-5.1394,-5.1394,-5.1394,-5.1082,-5.0672,-5.0282,-4.9579,-4.8779,-4.7834,-4.7362,-4.6826,-4.6484,-4.624,-4.6216,-4.6216,-4.6209,-4.6196,-4.6196,-4.6196,-4.6196,-4.6196,-4.6196,-4.6196,-4.6196,-4.6196,-4.6196,-4.6196,-4.6196,-4.6196,-4.6196,-4.6196,-4.6196,-4.6196,-4.6196,-4.6196,-4.6196,-4.6196,-4.6196,-4.6196,-4.6196,-4.6196,-4.6196,-4.6196,-4.6215,-4.6181,-4.6146,-4.6093,-4.6017,-4.5944,-4.5964,-4.6642,-4.7265,-4.7889,-4.8527,-4.901,-4.843,-4.8101,-4.7405,-4.6612,-4.6071,-4.5896,-4.58,-4.58,-4.58,-4.58,-4.58,-4.58,-4.58,-4.58,-4.58,-4.58,-4.58,-4.58,-4.58,-4.58,-4.58,-4.58,-4.58,-4.58,-4.58,-4.58,-4.58,-4.58,-4.58,-4.58,-4.58,-4.58,-4.58,-6.1661,-6.1427,-5.9788,-5.9065,-5.8695,-5.7289,-5.6606,-5.6606,-5.6606,-5.6606,-5.6606,-5.6606,-5.6606,-5.6606,-5.6606,-5.6606,-5.6489,-5.4791,-5.3912,-5.319,-5.2117,-5.1394,-5.1394,-5.1394,-5.1394,-5.1394,-5.1394,-5.1394,-5.1394,-5.1394,-5.1394,-5.1141,-5.0594,-5.0219,-4.9653,-4.8571,-4.7796,-4.7337,-4.68,-4.6398,-4.6261,-4.6203,-4.6203,-4.6196,-4.6196,-4.6196,-4.6196,-4.6196,-4.6196,-4.6196,-4.6196,-4.6196,-4.6196,-4.6196,-4.6196,-4.6196,-4.6196,-4.6196,-4.6196,-4.6196,-4.6196,-4.6196,-4.6196,-4.6196,-4.6196,-4.6196,-4.6196,-4.6196,-4.6196,-4.6196,-4.6196,-4.6127,-4.6093,-4.6075,-4.5975,-4.5917,-4.6048,-4.6596,-4.7096,-4.7154,-4.7889,-4.8314,-4.8082,-4.7637,-4.7018,-4.6438,-4.6032,-4.5877,-4.58,-4.58,-4.58,-4.58,-4.58,-4.58,-4.58,-4.58,-4.58,-4.58,-4.58,-4.58,-4.58,-4.58,-4.58,-4.58,-4.58,-4.58,-4.58,-4.58,-4.58,-4.58,-4.58,-4.58,-4.58,-4.58,-4.58,-6.1291,-6.0568,-5.9553,-5.8695,-5.7972,-5.7035,-5.6606,-5.6606,-5.6606,-5.6606,-5.6606,-5.6606,-5.6606,-5.6606,-5.6606,-5.6606,-5.6391,-5.4791,-5.3346,-5.1941,-5.1687,-5.1394,-5.1394,-5.1394,-5.1394,-5.1394,-5.1394,-5.1394,-5.1394,-5.1394,-5.1394,-5.1336,-5.116,-5.0766,-5.0094,-4.966,-4.8767,-4.7735,-4.7275,-4.6801,-4.6281,-4.6196,-4.6196,-4.6196,-4.6196,-4.6196,-4.6196,-4.6196,-4.6196,-4.6196,-4.6196,-4.6196,-4.6196,-4.6196,-4.6196,-4.6196,-4.6196,-4.6196,-4.6196,-4.6196,-4.6196,-4.6196,-4.6196,-4.6196,-4.6196,-4.6196,-4.6196,-4.6196,-4.6196,-4.6196,-4.6196,-4.6138,-4.6084,-4.6017,-4.5933,-4.5893,-4.5957,-4.6568,-4.696,-4.7212,-4.7715,-4.8121,-4.7482,-4.727,-4.6748,-4.6245,-4.5993,-4.5838,-4.58,-4.58,-4.58,-4.58,-4.58,-4.58,-4.58,-4.58,-4.58,-4.58,-4.58,-4.58,-4.58,-4.58,-4.58,-4.58,-4.58,-4.58,-4.58,-4.58,-4.58,-4.58,-4.58,-4.58,-4.58,-4.58,-4.58,-6.0822,-6.0276,-5.9046,-5.8226,-5.7699,-5.6957,-5.6606,-5.6606,-5.6606,-5.6606,-5.6606,-5.6606,-5.6606,-5.6606,-5.6606,-5.6606,-5.6216,-5.4791,-5.3073,-5.1765,-5.1394,-5.1394,-5.1394,-5.1394,-5.1394,-5.1394,-5.1394,-5.1394,-5.1394,-5.1394,-5.1394,-5.1394,-5.139,-5.1171,-5.0655,-5.0313,-4.9379,-4.8308,-4.7678,-4.706,-4.6332,-4.6196,-4.6196,-4.6196,-4.6196,-4.6196,-4.6196,-4.6196,-4.6196,-4.6196,-4.6196,-4.6196,-4.6196,-4.6196,-4.6196,-4.6196,-4.6196,-4.6196,-4.6196,-4.6196,-4.6196,-4.6196,-4.6196,-4.6196,-4.6196,-4.6196,-4.6196,-4.6196,-4.6196,-4.6196,-4.6196,-4.6102,-4.6027,-4.5997,-4.5917,-4.5835,-4.5891,-4.6225,-4.6496,-4.6554,-4.6806,-4.6825,-4.6631,-4.6631,-4.6477,-4.5974,-4.5935,-4.58,-4.58,-4.58,-4.58,-4.58,-4.58,-4.58,-4.58,-4.58,-4.58,-4.58,-4.58,-4.58,-4.58,-4.58,-4.58,-4.58,-4.58,-4.58,-4.58,-4.58,-4.58,-4.58,-4.58,-4.58,-4.58,-4.58,-4.58,-6.0334,-6.008,-5.846,-5.7738,-5.7523,-5.6879,-5.6606,-5.6606,-5.6606,-5.6606,-5.6606,-5.6606,-5.6606,-5.6606,-5.6606,-5.6528,-5.5786,-5.4791,-5.3073,-5.157,-5.1394,-5.1394,-5.1394,-5.1394,-5.1394,-5.1394,-5.1394,-5.1394,-5.1394,-5.1394,-5.1394,-5.1394,-5.1386,-5.1338,-5.1177,-5.0686,-4.9907,-4.9023,-4.821,-4.7411,-4.6566,-4.6352,-4.6196,-4.6196,-4.6196,-4.6196,-4.6196,-4.6196,-4.6196,-4.6196,-4.6196,-4.6196,-4.6196,-4.6196,-4.6196,-4.6196,-4.6196,-4.6196,-4.6196,-4.6196,-4.6196,-4.6196,-4.6196,-4.6196,-4.6196,-4.6196,-4.6196,-4.6196,-4.6196,-4.6196,-4.6196,-4.6084,-4.6017,-4.5956,-4.5873,-4.5814,-4.58,-4.58,-4.5896,-4.5916,-4.6148,-4.6187,-4.6071,-4.6032,-4.5896,-4.58,-4.58,-4.58,-4.58,-4.58,-4.58,-4.58,-4.58,-4.58,-4.58,-4.58,-4.58,-4.58,-4.58,-4.58,-4.58,-4.58,-4.58,-4.58,-4.58,-4.58,-4.58,-4.58,-4.58,-4.58,-4.58,-4.58,-4.58,-4.58,-4.58,-5.9963,-5.9222,-5.8207,-5.7426,-5.684,-5.6665,-5.6606,-5.6606,-5.6606,-5.6606,-5.6606,-5.6606,-5.6606,-5.6606,-5.6606,-5.5864,-5.483,-5.4049,-5.3073,-5.1629,-5.1394,-5.1394,-5.1394,-5.1394,-5.1394,-5.1394,-5.1394,-5.1394,-5.1394,-5.1394,-5.1394,-5.1394,-5.1381,-5.1391,-5.1361,-5.1128,-5.0563,-4.9652,-4.8845,-4.8027,-4.7228,-4.6546,-4.6196,-4.6196,-4.6196,-4.6196,-4.6196,-4.6196,-4.6196,-4.6196,-4.6196,-4.6196,-4.6196,-4.6196,-4.6196,-4.6196,-4.6196,-4.6196,-4.6196,-4.6196,-4.6196,-4.6196,-4.6196,-4.6196,-4.6196,-4.6196,-4.6196,-4.6196,-4.6196,-4.6196,-4.6196,-4.6075,-4.6007,-4.5956,-4.5873,-4.58,-4.58,-4.58,-4.58,-4.58,-4.58,-4.58,-4.58,-4.58,-4.58,-4.58,-4.58,-4.58,-4.58,-4.58,-4.58,-4.58,-4.58,-4.58,-4.58,-4.58,-4.58,-4.58,-4.58,-4.58,-4.58,-4.58,-4.58,-4.58,-4.58,-4.58,-4.58,-4.58,-4.58,-4.58,-4.58,-4.58,-4.58,-4.58,-4.58,-5.9222,-5.8363,-5.7543,-5.6957,-5.6645,-5.6606,-5.6606,-5.6606,-5.6606,-5.6606,-5.6606,-5.6606,-5.6606,-5.6606,-5.6606,-5.565,-5.4381,-5.3971,-5.2995,-5.1707,-5.1394,-5.1394,-5.1394,-5.1394,-5.1394,-5.1394,-5.1394,-5.1394,-5.1394,-5.1394,-5.1394,-5.139,-5.1396,-5.14,-5.1369,-5.131,-5.0828,-5.0034,-4.9216,-4.8358,-4.7482,-4.6624,-4.6254,-4.6196,-4.6196,-4.6196,-4.6196,-4.6196,-4.6196,-4.6196,-4.6196,-4.6196,-4.6196,-4.6196,-4.6196,-4.6196,-4.6196,-4.6196,-4.6196,-4.6196,-4.6196,-4.6196,-4.6196,-4.6196,-4.6196,-4.6196,-4.6196,-4.6196,-4.6196,-4.6189,-4.6146,-4.6066,-4.5997,-4.5953,-4.5867,-4.5814,-4.58,-4.58,-4.58,-4.58,-4.58,-4.58,-4.58,-4.58,-4.58,-4.58,-4.58,-4.58,-4.58,-4.58,-4.58,-4.58,-4.58,-4.58,-4.58,-4.58,-4.58,-4.58,-4.58,-4.58,-4.58,-4.58,-4.58,-4.58,-4.58,-4.58,-4.58,-4.58,-4.58,-4.58,-4.58,-4.58,-4.58,-4.58,-4.58,-5.8605,-5.7738,-5.6938,-5.6606,-5.6606,-5.6606,-5.6606,-5.6606,-5.6606,-5.6606,-5.6606,-5.6606,-5.6606,-5.6547,-5.6235,-5.5454,-5.4029,-5.3854,-5.2761,-5.1687,-5.1394,-5.1394,-5.1394,-5.1394,-5.1394,-5.1394,-5.1394,-5.1394,-5.1394,-5.1394,-5.1394,-5.139,-5.1391,-5.1394,-5.1388,-5.1342,-5.0782,-5.0229,-4.9235,-4.8339,-4.7306,-4.6605,-4.6196,-4.6196,-4.6196,-4.6196,-4.6196,-4.6196,-4.6196,-4.6196,-4.6196,-4.6196,-4.6196,-4.6196,-4.6196,-4.6196,-4.6196,-4.6196,-4.6196,-4.6196,-4.6196,-4.6196,-4.6196,-4.6196,-4.6196,-4.6196,-4.6196,-4.6196,-4.6196,-4.6181,-4.6111,-4.6056,-4.5975,-4.5898,-4.5854,-4.58,-4.58,-4.58,-4.58,-4.58,-4.58,-4.58,-4.58,-4.58,-4.58,-4.58,-4.58,-4.58,-4.58,-4.58,-4.58,-4.58,-4.58,-4.58,-4.58,-4.58,-4.58,-4.58,-4.58,-4.58,-4.58,-4.58,-4.58,-4.58,-4.58,-4.58,-4.58,-4.58,-4.58,-4.58,-4.58,-4.58,-4.58,-4.58,-4.58,-5.8587,-5.7719,-5.6918,-5.6606,-5.6606,-5.6606,-5.6606,-5.6606,-5.6606,-5.6606,-5.6606,-5.6606,-5.6606,-5.645,-5.5786,-5.4947,-5.4049,-5.3229,-5.2448,-5.1511,-5.1394,-5.1394,-5.1394,-5.1394,-5.1394,-5.1394,-5.1394,-5.1394,-5.1394,-5.1394,-5.1394,-5.139,-5.1391,-5.1394,-5.1388,-5.1342,-5.1261,-5.0872,-4.9586,-4.8047,-4.6741,-4.6332,-4.6215,-4.6196,-4.6196,-4.6196,-4.6196,-4.6196,-4.6196,-4.6196,-4.6196,-4.6196,-4.6196,-4.6196,-4.6196,-4.6196,-4.6196,-4.6196,-4.6196,-4.6196,-4.6196,-4.6196,-4.6196,-4.6196,-4.6196,-4.6196,-4.6196,-4.6196,-4.6196,-4.6154,-4.6093,-4.6027,-4.5975,-4.5917,-4.5841,-4.5814,-4.58,-4.58,-4.58,-4.58,-4.58,-4.58,-4.58,-4.58,-4.58,-4.58,-4.58,-4.58,-4.58,-4.58,-4.58,-4.58,-4.58,-4.58,-4.58,-4.58,-4.58,-4.58,-4.58,-4.58,-4.58,-4.58,-4.58,-4.58,-4.58,-4.58,-4.58,-4.58,-4.58,-4.58,-4.58,-4.58,-4.58,-4.58,-4.58,-5.7801,-5.7044,-5.6692,-5.6566,-5.6606,-5.6606,-5.6606,-5.6606,-5.6606,-5.6606,-5.6606,-5.6606,-5.6606,-5.6391,-5.5689,-5.483,-5.3971,-5.3073,-5.2234,-5.155,-5.1394,-5.1394,-5.1394,-5.1394,-5.1394,-5.1394,-5.1394,-5.1394,-5.1394,-5.1394,-5.1394,-5.139,-5.1396,-5.1386,-5.1375,-5.133,-5.1316,-5.0813,-4.9683,-4.8222,-4.715,-4.6488,-4.6215,-4.6196,-4.6196,-4.6196,-4.6196,-4.6196,-4.6196,-4.6196,-4.6196,-4.6196,-4.6196,-4.6196,-4.6196,-4.6196,-4.6196,-4.6196,-4.6196,-4.6196,-4.6196,-4.6196,-4.6196,-4.6196,-4.6196,-4.6196,-4.6196,-4.6196,-4.6196,-4.6146,-4.6056,-4.6017,-4.5953,-4.588,-4.5827,-4.5814,-4.58,-4.58,-4.58,-4.58,-4.58,-4.58,-4.58,-4.58,-4.58,-4.58,-4.58,-4.58,-4.58,-4.58,-4.58,-4.58,-4.58,-4.58,-4.58,-4.58,-4.58,-4.58,-4.58,-4.58,-4.58,-4.58,-4.58,-4.58,-4.58,-4.58,-4.58,-4.58,-4.58,-4.58,-4.58,-4.58,-4.58,-4.58,-4.58,-5.6966,-5.6456,-5.6484,-5.6522,-5.6551,-5.6575,-5.6595,-5.6582,-5.6591,-5.6606,-5.6606,-5.6586,-5.6489,-5.6079,-5.5318,-5.442,-5.36,-5.278,-5.2078,-5.157,-5.1394,-5.1394,-5.1394,-5.1394,-5.1394,-5.1394,-5.1394,-5.1394,-5.1394,-5.1394,-5.1394,-5.1394,-5.1401,-5.1391,-5.138,-5.1304,-5.1206,-5.0735,-4.9788,-4.8619,-4.7547,-4.6865,-4.6475,-4.6274,-4.6196,-4.6196,-4.6196,-4.6196,-4.6196,-4.6196,-4.6196,-4.6196,-4.6196,-4.6196,-4.6196,-4.6196,-4.6196,-4.6196,-4.6196,-4.6196,-4.6196,-4.6196,-4.6196,-4.6196,-4.6196,-4.6196,-4.6196,-4.6196,-4.6196,-4.6138,-4.6027,-4.5997,-4.5922,-4.5867,-4.5814,-4.58,-4.58,-4.58,-4.58,-4.58,-4.58,-4.58,-4.58,-4.58,-4.58,-4.58,-4.58,-4.58,-4.58,-4.58,-4.58,-4.58,-4.58,-4.58,-4.58,-4.58,-4.58,-4.58,-4.58,-4.58,-4.58,-4.58,-4.58,-4.58,-4.58,-4.58,-4.58,-4.58,-4.58,-4.58,-4.58,-4.58,-4.58,-4.58,-4.58,-5.6367,-5.632,-5.6434,-5.6479,-5.6429,-5.6554,-5.6568,-5.6541,-5.6563,-5.6606,-5.6606,-5.6567,-5.6177,-5.5396,-5.4635,-5.3737,-5.28,-5.1882,-5.157,-5.1453,-5.1394,-5.1394,-5.1394,-5.1394,-5.1394,-5.1394,-5.1394,-5.1394,-5.1394,-5.1394,-5.1394,-5.1394,-5.1386,-5.1401,-5.1366,-5.131,-5.0972,-5.0587,-4.9951,-4.9074,-4.8034,-4.734,-4.695,-4.6339,-4.6196,-4.6196,-4.6196,-4.6196,-4.6196,-4.6196,-4.6196,-4.6196,-4.6196,-4.6196,-4.6196,-4.6196,-4.6196,-4.6196,-4.6196,-4.6196,-4.6196,-4.6196,-4.6196,-4.6196,-4.6196,-4.6196,-4.6196,-4.6196,-4.6196,-4.6138,-4.6037,-4.5966,-4.5922,-4.5854,-4.58,-4.58,-4.58,-4.58,-4.58,-4.58,-4.58,-4.58,-4.58,-4.58,-4.58,-4.58,-4.58,-4.58,-4.58,-4.58,-4.58,-4.58,-4.58,-4.58,-4.58,-4.58,-4.58,-4.58,-4.58,-4.58,-4.58,-4.58,-4.58,-4.58,-4.58,-4.58,-4.58,-4.58,-4.58,-4.58,-4.58,-4.58,-4.58,-4.58,-4.58,-5.6309,-5.6308,-5.6354,-5.6382,-5.6395,-5.6504,-5.6541,-5.6523,-5.6563,-5.6606,-5.6606,-5.6567,-5.6118,-5.524,-5.44,-5.3522,-5.2663,-5.1804,-5.1492,-5.1394,-5.1394,-5.1394,-5.1394,-5.1394,-5.1394,-5.1394,-5.1394,-5.1394,-5.1394,-5.1394,-5.1394,-5.1394,-5.139,-5.1386,-5.1372,-5.133,-5.105,-5.0762,-5.0256,-4.9398,-4.8541,-4.7684,-4.708,-4.6274,-4.6196,-4.6196,-4.6196,-4.6196,-4.6196,-4.6196,-4.6196,-4.6196,-4.6196,-4.6196,-4.6196,-4.6196,-4.6196,-4.6196,-4.6196,-4.6196,-4.6196,-4.6196,-4.6196,-4.6196,-4.6196,-4.6196,-4.6196,-4.6196,-4.6196,-4.6146,-4.6027,-4.5997,-4.5953,-4.5854,-4.58,-4.58,-4.58,-4.58,-4.58,-4.58,-4.58,-4.58,-4.58,-4.58,-4.58,-4.58,-4.58,-4.58,-4.58,-4.58,-4.58,-4.58,-4.58,-4.58,-4.58,-4.58,-4.58,-4.58,-4.58,-4.58,-4.58,-4.58,-4.58,-4.58,-4.58,-4.58,-4.58,-4.58,-4.58,-4.58,-4.58,-4.58,-4.58,-4.58,-4.58,-5.6311,-5.6304,-5.6308,-5.6327,-5.6387,-5.6429,-5.6461,-5.6483,-5.6538,-5.6595,-5.6586,-5.6333,-5.5728,-5.4869,-5.399,-5.3112,-5.2292,-5.1687,-5.1472,-5.1394,-5.1394,-5.1394,-5.1394,-5.1394,-5.1394,-5.1394,-5.1394,-5.1394,-5.1394,-5.1394,-5.1394,-5.1394,-5.1394,-5.139,-5.1381,-5.1355,-5.131,-5.1121,-5.075,-4.9795,-4.8879,-4.8243,-4.7235,-4.6436,-4.6196,-4.6196,-4.6196,-4.6196,-4.6196,-4.6196,-4.6196,-4.6196,-4.6196,-4.6196,-4.6196,-4.6196,-4.6196,-4.6196,-4.6196,-4.6196,-4.6196,-4.6196,-4.6196,-4.6196,-4.6196,-4.6196,-4.6196,-4.6196,-4.6215,-4.6166,-4.6017,-4.5997,-4.5941,-4.5841,-4.5814,-4.58,-4.58,-4.58,-4.58,-4.58,-4.58,-4.58,-4.58,-4.58,-4.58,-4.58,-4.58,-4.58,-4.58,-4.58,-4.58,-4.58,-4.58,-4.58,-4.58,-4.58,-4.58,-4.58,-4.58,-4.58,-4.58,-4.58,-4.58,-4.58,-4.58,-4.58,-4.58,-4.58,-4.58,-4.58,-4.58,-4.58,-4.58,-4.58,-4.58,-5.6311,-5.6311,-5.6304,-5.6304,-5.6314,-5.6368,-5.6411,-5.6422,-5.6484,-5.6554,-5.6489,-5.5825,-5.4966,-5.4108,-5.3346,-5.2487,-5.1785,-5.1472,-5.1394,-5.1394,-5.1394,-5.1394,-5.1394,-5.1394,-5.1394,-5.1394,-5.1394,-5.1394,-5.1394,-5.1394,-5.1394,-5.1394,-5.1394,-5.139,-5.139,-5.1391,-5.1349,-5.1297,-5.1265,-5.0323,-4.9283,-4.8724,-4.7743,-4.6787,-4.6235,-4.6196,-4.6196,-4.6196,-4.6196,-4.6196,-4.6196,-4.6196,-4.6196,-4.6196,-4.6196,-4.6196,-4.6196,-4.6196,-4.6196,-4.6196,-4.6196,-4.6196,-4.6196,-4.6196,-4.6196,-4.6196,-4.6196,-4.6196,-4.6196,-4.6138,-4.6066,-4.5977,-4.591,-4.5854,-4.5814,-4.58,-4.58,-4.58,-4.58,-4.58,-4.58,-4.58,-4.58,-4.58,-4.58,-4.58,-4.58,-4.58,-4.58,-4.58,-4.58,-4.58,-4.58,-4.58,-4.58,-4.58,-4.58,-4.58,-4.58,-4.58,-4.58,-4.58,-4.58,-4.58,-4.58,-4.58,-4.58,-4.58,-4.58,-4.58,-4.58,-4.58,-4.58,-4.5814,-4.5814,-5.6311,-5.6311,-5.6311,-5.6311,-5.6297,-5.6318,-5.6355,-5.6419,-5.6523,-5.6579,-5.6391,-5.5669,-5.481,-5.3951,-5.3053,-5.2195,-5.1531,-5.1394,-5.1394,-5.1394,-5.1394,-5.1394,-5.1394,-5.1394,-5.1394,-5.1394,-5.1394,-5.1394,-5.1394,-5.1394,-5.1394,-5.1394,-5.1394,-5.139,-5.1386,-5.1391,-5.1386,-5.1369,-5.1291,-5.0823,-4.9731,-4.9055,-4.8211,-4.7014,-4.6449,-4.6196,-4.6196,-4.6196,-4.6196,-4.6196,-4.6196,-4.6196,-4.6196,-4.6196,-4.6196,-4.6196,-4.6196,-4.6196,-4.6196,-4.6196,-4.6196,-4.6196,-4.6196,-4.6196,-4.6196,-4.6196,-4.6196,-4.6196,-4.6196,-4.6138,-4.6027,-4.6007,-4.5933,-4.5841,-4.58,-4.58,-4.58,-4.58,-4.58,-4.58,-4.58,-4.58,-4.58,-4.58,-4.58,-4.58,-4.58,-4.58,-4.58,-4.58,-4.58,-4.58,-4.58,-4.58,-4.58,-4.58,-4.58,-4.58,-4.58,-4.58,-4.58,-4.58,-4.58,-4.58,-4.58,-4.58,-4.58,-4.58,-4.58,-4.58,-4.58,-4.58,-4.58,-4.5814,-4.5827,-5.6311,-5.6311,-5.6311,-5.6311,-5.6304,-5.6308,-5.6344,-5.636,-5.6245,-5.6157,-5.5884,-5.4927,-5.4088,-5.3385,-5.2644,-5.2058,-5.1394,-5.1394,-5.1394,-5.1394,-5.1394,-5.1394,-5.1394,-5.1394,-5.1394,-5.1394,-5.1394,-5.1394,-5.1394,-5.1394,-5.1394,-5.1394,-5.1394,-5.139,-5.1386,-5.1401,-5.1391,-5.1386,-5.1308,-5.0756,-4.975,-4.8938,-4.8191,-4.7157,-4.6507,-4.6196,-4.6196,-4.6196,-4.6196,-4.6196,-4.6196,-4.6196,-4.6196,-4.6196,-4.6196,-4.6196,-4.6196,-4.6196,-4.6196,-4.6196,-4.6196,-4.6196,-4.6196,-4.6196,-4.6196,-4.6196,-4.6196,-4.6196,-4.6196,-4.6111,-4.6027,-4.6007,-4.5933,-4.5854,-4.58,-4.58,-4.58,-4.58,-4.58,-4.58,-4.58,-4.58,-4.58,-4.58,-4.58,-4.58,-4.58,-4.58,-4.58,-4.58,-4.58,-4.58,-4.58,-4.58,-4.58,-4.58,-4.58,-4.58,-4.58,-4.58,-4.58,-4.58,-4.58,-4.58,-4.58,-4.58,-4.58,-4.58,-4.58,-4.58,-4.58,-4.58,-4.58,-4.5827,-4.5841,-5.6311,-5.6311,-5.6311,-5.6304,-5.6304,-5.6236,-5.6249,-5.6282,-5.564,-5.5318,-5.5162,-5.3561,-5.2956,-5.2644,-5.1863,-5.1472,-5.1414,-5.1394,-5.1394,-5.1394,-5.1394,-5.1394,-5.1394,-5.1394,-5.1394,-5.1394,-5.1394,-5.1394,-5.1394,-5.1394,-5.1394,-5.1394,-5.1394,-5.1394,-5.139,-5.1386,-5.1401,-5.1396,-5.1318,-5.0728,-4.9873,-4.8995,-4.8158,-4.7223,-4.6507,-4.6254,-4.6196,-4.6196,-4.6196,-4.6196,-4.6196,-4.6196,-4.6196,-4.6196,-4.6196,-4.6196,-4.6196,-4.6196,-4.6196,-4.6196,-4.6196,-4.6196,-4.6196,-4.6196,-4.6196,-4.6196,-4.6196,-4.6196,-4.6196,-4.6102,-4.6027,-4.5977,-4.5933,-4.5861,-4.5814,-4.58,-4.58,-4.58,-4.58,-4.58,-4.58,-4.58,-4.58,-4.58,-4.58,-4.58,-4.58,-4.58,-4.58,-4.58,-4.58,-4.58,-4.58,-4.58,-4.58,-4.58,-4.58,-4.58,-4.58,-4.58,-4.58,-4.58,-4.58,-4.58,-4.58,-4.58,-4.58,-4.58,-4.58,-4.58,-4.5814,-4.5814,-4.5814,-4.5827,-4.5835,-5.6311,-5.6311,-5.6311,-5.6314,-5.6222,-5.5742,-5.5501,-5.5446,-5.5327,-5.5005,-5.4303,-5.319,-5.2624,-5.2624,-5.1804,-5.1472,-5.1394,-5.1394,-5.1394,-5.1394,-5.1394,-5.1394,-5.1394,-5.1394,-5.1394,-5.1394,-5.1394,-5.1394,-5.1394,-5.1394,-5.1394,-5.1394,-5.1394,-5.1394,-5.1394,-5.139,-5.139,-5.139,-5.139,-5.085,-5.0118,-4.9293,-4.8431,-4.7671,-4.6612,-4.6339,-4.6196,-4.6196,-4.6196,-4.6196,-4.6196,-4.6196,-4.6196,-4.6196,-4.6196,-4.6196,-4.6196,-4.6196,-4.6196,-4.6196,-4.6196,-4.6196,-4.6196,-4.6196,-4.6196,-4.6196,-4.6196,-4.6196,-4.6196,-4.6111,-4.6037,-4.5966,-4.591,-4.5848,-4.5814,-4.58,-4.58,-4.58,-4.58,-4.58,-4.58,-4.58,-4.58,-4.58,-4.58,-4.58,-4.58,-4.58,-4.58,-4.58,-4.58,-4.58,-4.58,-4.58,-4.58,-4.58,-4.58,-4.58,-4.58,-4.58,-4.58,-4.58,-4.58,-4.58,-4.58,-4.58,-4.58,-4.5814,-4.5827,-4.5827,-4.5822,-4.5808,-4.5808,-4.5848,-4.5886,-5.6309,-5.6267,-5.5956,-5.5648,-5.5256,-5.4874,-5.4508,-5.4193,-5.423,-5.3932,-5.3405,-5.2546,-5.2175,-5.2078,-5.1629,-5.1394,-5.1394,-5.1394,-5.1394,-5.1394,-5.1394,-5.1394,-5.1394,-5.1394,-5.1394,-5.1394,-5.1394,-5.1394,-5.1394,-5.1394,-5.1394,-5.1394,-5.1394,-5.1394,-5.1394,-5.1394,-5.1394,-5.1394,-5.1312,-5.0991,-5.024,-4.9352,-4.8691,-4.7768,-4.6612,-4.6339,-4.6196,-4.6196,-4.6196,-4.6196,-4.6196,-4.6196,-4.6196,-4.6196,-4.6196,-4.6196,-4.6196,-4.6196,-4.6196,-4.6196,-4.6196,-4.6196,-4.6196,-4.6196,-4.6196,-4.6196,-4.6196,-4.6196,-4.6189,-4.6154,-4.6056,-4.5966,-4.5898,-4.5808,-4.5814,-4.58,-4.58,-4.58,-4.58,-4.58,-4.58,-4.58,-4.58,-4.58,-4.58,-4.58,-4.58,-4.58,-4.58,-4.58,-4.58,-4.58,-4.58,-4.58,-4.58,-4.58,-4.58,-4.58,-4.58,-4.58,-4.58,-4.58,-4.58,-4.58,-4.58,-4.5814,-4.5827,-4.5841,-4.5867,-4.5848,-4.5873,-4.5898,-4.5898,-4.5929,-4.5975,-5.6064,-5.5976,-5.5303,-5.4528,-5.3776,-5.3787,-5.334,-5.2558,-5.2641,-5.2585,-5.2429,-5.1785,-5.1492,-5.157,-5.1414,-5.1394,-5.1394,-5.1394,-5.1394,-5.1394,-5.1394,-5.1394,-5.1394,-5.1394,-5.1394,-5.1394,-5.1394,-5.1394,-5.1394,-5.1394,-5.1394,-5.1394,-5.1394,-5.1394,-5.1394,-5.1394,-5.1394,-5.1375,-5.1078,-5.0644,-4.9577,-4.8752,-4.8045,-4.6801,-4.6326,-4.6196,-4.6203,-4.6196,-4.6196,-4.6196,-4.6196,-4.6196,-4.6196,-4.6196,-4.6196,-4.6196,-4.6196,-4.6196,-4.6196,-4.6196,-4.6196,-4.6196,-4.6196,-4.6196,-4.6196,-4.6196,-4.6196,-4.6196,-4.6196,-4.6138,-4.6037,-4.5977,-4.5922,-4.5835,-4.5814,-4.58,-4.58,-4.58,-4.58,-4.58,-4.58,-4.58,-4.58,-4.58,-4.58,-4.58,-4.58,-4.58,-4.58,-4.58,-4.58,-4.58,-4.58,-4.58,-4.58,-4.58,-4.58,-4.58,-4.58,-4.58,-4.58,-4.58,-4.5814,-4.5827,-4.5841,-4.5822,-4.5835,-4.5873,-4.5917,-4.5929,-4.5953,-4.5997,-4.6026,-4.6026,-4.6037,-5.4411,-5.4406,-5.4248,-5.3665,-5.2947,-5.2962,-5.2501,-5.172,-5.171,-5.1746,-5.1668,-5.1511,-5.1394,-5.1394,-5.1394,-5.1394,-5.1394,-5.1394,-5.1394,-5.1394,-5.1394,-5.1394,-5.1394,-5.1394,-5.1394,-5.1394,-5.1394,-5.1394,-5.1394,-5.1394,-5.1394,-5.1394,-5.1394,-5.1394,-5.1375,-5.1355,-5.1238,-5.1199,-5.0594,-5.0196,-4.9543,-4.8894,-4.822,-4.7203,-4.669,-4.6255,-4.6203,-4.6196,-4.6196,-4.6196,-4.6196,-4.6196,-4.6196,-4.6196,-4.6196,-4.6196,-4.6196,-4.6196,-4.6196,-4.6196,-4.6196,-4.6196,-4.6196,-4.6196,-4.6196,-4.6196,-4.6196,-4.6196,-4.6181,-4.6093,-4.6027,-4.5997,-4.5944,-4.588,-4.58,-4.58,-4.58,-4.58,-4.58,-4.58,-4.58,-4.58,-4.58,-4.58,-4.58,-4.58,-4.58,-4.58,-4.58,-4.58,-4.58,-4.58,-4.58,-4.58,-4.58,-4.58,-4.58,-4.58,-4.58,-4.58,-4.58,-4.5827,-4.5841,-4.5867,-4.5893,-4.5886,-4.5898,-4.5944,-4.5966,-4.5986,-4.6017,-4.6075,-4.6113,-4.6113,-4.6093,-5.3832,-5.3811,-5.3496,-5.2866,-5.216,-5.2108,-5.1843,-5.1453,-5.1394,-5.1394,-5.1394,-5.1394,-5.1394,-5.1394,-5.1394,-5.1394,-5.1394,-5.1394,-5.1394,-5.1394,-5.1394,-5.1394,-5.1394,-5.1394,-5.1394,-5.1394,-5.1394,-5.1394,-5.1394,-5.1394,-5.1394,-5.1394,-5.1394,-5.1375,-5.1316,-5.1102,-5.0848,-5.077,-4.995,-4.9439,-4.9157,-4.8493,-4.7796,-4.6961,-4.6521,-4.6196,-4.6203,-4.6196,-4.6196,-4.6196,-4.6196,-4.6196,-4.6196,-4.6196,-4.6196,-4.6196,-4.6196,-4.6196,-4.6196,-4.6196,-4.6196,-4.6196,-4.6196,-4.6196,-4.6196,-4.6196,-4.6196,-4.6196,-4.6146,-4.6084,-4.6017,-4.5956,-4.5917,-4.5841,-4.5814,-4.58,-4.58,-4.58,-4.58,-4.58,-4.58,-4.58,-4.58,-4.58,-4.58,-4.58,-4.58,-4.58,-4.58,-4.58,-4.58,-4.58,-4.58,-4.58,-4.58,-4.58,-4.58,-4.58,-4.5814,-4.5814,-4.5814,-4.5841,-4.5867,-4.5905,-4.5941,-4.5964,-4.5986,-4.6017,-4.6037,-4.6037,-4.6093,-4.6127,-4.6154,-4.6181,-4.6174,-5.3474,-5.3457,-5.2817,-5.2117,-5.1472,-5.1414,-5.1414,-5.1394,-5.1394,-5.1394,-5.1394,-5.1394,-5.1394,-5.1394,-5.1394,-5.1394,-5.1394,-5.1394,-5.1394,-5.1394,-5.1394,-5.1394,-5.1394,-5.1394,-5.1394,-5.1394,-5.1394,-5.1394,-5.1394,-5.1394,-5.1394,-5.1394,-5.1375,-5.1336,-5.1023,-5.0594,-5.0184,-4.9774,-4.9111,-4.8369,-4.792,-4.7565,-4.7079,-4.6596,-4.6195,-4.6209,-4.6209,-4.6196,-4.6196,-4.6196,-4.6196,-4.6196,-4.6196,-4.6196,-4.6196,-4.6196,-4.6196,-4.6196,-4.6196,-4.6196,-4.6196,-4.6196,-4.6196,-4.6196,-4.6196,-4.6196,-4.6196,-4.6189,-4.6138,-4.6084,-4.6017,-4.5964,-4.5893,-4.5827,-4.5814,-4.58,-4.58,-4.58,-4.58,-4.58,-4.58,-4.58,-4.58,-4.58,-4.58,-4.58,-4.58,-4.58,-4.58,-4.58,-4.58,-4.58,-4.58,-4.58,-4.58,-4.5814,-4.5814,-4.5841,-4.5854,-4.5822,-4.5822,-4.5893,-4.5929,-4.5953,-4.5986,-4.6017,-4.6047,-4.6074,-4.6102,-4.6102,-4.6138,-4.6162,-4.6189,-4.6189,-4.6196,-5.181,-5.1874,-5.1691,-5.155,-5.1394,-5.1394,-5.1394,-5.1394,-5.1394,-5.1394,-5.1394,-5.1394,-5.1394,-5.1394,-5.1394,-5.1394,-5.1394,-5.1394,-5.1394,-5.1394,-5.1394,-5.1394,-5.1394,-5.1394,-5.1394,-5.1394,-5.1394,-5.1394,-5.1394,-5.1394,-5.1394,-5.1394,-5.1336,-5.1023,-5.0379,-4.995,-4.956,-4.9013,-4.8349,-4.7627,-4.7643,-4.7346,-4.6982,-4.6577,-4.6215,-4.6196,-4.6203,-4.6196,-4.6196,-4.6196,-4.6196,-4.6196,-4.6196,-4.6196,-4.6196,-4.6196,-4.6196,-4.6196,-4.6196,-4.6196,-4.6196,-4.6196,-4.6196,-4.6196,-4.6196,-4.6196,-4.6196,-4.6196,-4.6154,-4.6093,-4.6037,-4.5997,-4.5941,-4.5854,-4.58,-4.58,-4.58,-4.58,-4.58,-4.58,-4.58,-4.58,-4.58,-4.58,-4.58,-4.58,-4.58,-4.58,-4.58,-4.58,-4.5814,-4.5814,-4.5814,-4.58,-4.5814,-4.5827,-4.5827,-4.5867,-4.5873,-4.5905,-4.591,-4.5944,-4.5997,-4.6026,-4.6066,-4.6093,-4.6138,-4.6127,-4.6154,-4.6154,-4.6181,-4.6196,-4.6196,-4.6196,-4.6196]}]]